[[{"header":{"parameterUnit":"m.s-1","parameterCategory":1,"la1":30.6,"la2":28.766,"lo1":-90.7593,"lo2":-88.6598,"dy":0.0162,"dx":0.0183,"nx":116,"ny":114,"refTime":"2024-07-03T18:00:00:Z","depth":0,"parameterNumber":2,"parameterNumberName":"U-component_of_WINDS"},"data":[0.0,0.0,0.0,0.0,0.0,0.0,0.0,0.0,0.0,0.0,0.0,0.0,0.0,0.0,0.0,0.0,0.0,0.0,0.0,0.0,0.0,0.0,0.0,0.0,0.0,0.0,0.0,0.0,0.0,0.0,0.0,0.0,0.0,0.0,0.0,0.0,0.0,0.0,0.0,0.0,0.0,0.0,0.0,0.0,0.0,0.0,0.0,0.0,0.0,0.0,0.0,0.0,0.0,0.0,0.0,0.0,0.0,0.0,0.0,0.0,0.0,0.0,0.0,0.0,0.0,0.0,0.0,0.0,0.0,0.0,0.0,0.0,0.0,0.0,0.0,0.0,0.0,0.0,0.0,0.0,0.0,0.0,0.0,0.0,0.0,0.0,0.0,0.0,0.0,0.0,0.0,0.0,0.0,0.0,0.0,0.0,0.0,0.0,0.0,0.0,0.0,0.0,0.0,0.0,0.0,0.0,0.0,0.0,0.0,0.0,0.0,0.0,0.0,0.0,0.0,0.0,0.0,0.0,0.0,0.0,0.0,0.0,0.0,0.0,0.0,0.0,0.0,0.0,0.0,0.0,0.0,0.0,0.0,0.0,0.0,0.0,0.0,0.0,0.0,0.0,0.0,0.0,0.0,0.0,0.0,0.0,0.0,0.0,0.0,0.0,0.0,0.0,0.0,0.0,0.0,0.0,0.0,0.0,0.0,0.0,0.0,0.0,0.0,0.0,0.0,0.0,0.0,0.0,0.0,0.0,0.0,0.0,0.0,0.0,0.0,0.0,0.0,0.0,0.0,0.0,0.0,0.0,0.0,0.0,0.0,0.0,0.0,0.0,0.0,0.0,0.0,0.0,0.0,0.0,0.0,0.0,0.0,0.0,0.0,0.0,0.0,0.0,0.0,0.0,0.0,0.0,0.0,0.0,0.0,0.0,0.0,0.0,0.0,0.0,0.0,0.0,0.0,0.0,0.0,0.0,0.0,0.0,0.0,0.0,0.0,0.0,0.0,0.0,0.0,0.0,0.0,0.0,0.0,0.0,0.0,0.0,0.0,0.0,0.0,0.0,0.0,0.0,0.0,0.0,0.0,0.0,0.0,0.0,0.0,0.0,0.0,0.0,0.0,0.0,0.0,0.0,0.0,0.0,0.0,0.0,0.0,0.0,0.0,0.0,0.0,0.0,0.0,0.0,0.0,0.0,0.0,0.0,0.0,0.0,0.0,0.0,0.0,0.0,0.0,0.0,0.0,0.0,0.0,0.0,0.0,0.0,0.0,0.0,0.0,0.0,0.0,0.0,0.0,0.0,0.0,0.0,0.0,0.0,0.0,0.0,0.0,0.0,0.0,0.0,0.0,0.0,0.0,0.0,0.0,0.0,0.0,0.0,0.0,0.0,0.0,0.0,0.0,0.0,0.0,0.0,0.0,0.0,0.0,0.0,0.0,0.0,0.0,0.0,0.0,0.0,0.0,0.0,0.0,0.0,0.0,0.0,0.0,0.0,0.0,0.0,0.0,0.0,0.0,0.0,0.0,0.0,0.0,0.0,0.0,0.0,0.0,0.0,0.0,0.0,0.0,0.0,0.0,0.0,0.0,0.0,0.0,0.0,0.0,0.0,0.0,0.0,0.0,0.0,0.0,0.0,0.0,0.0,0.0,0.0,0.0,0.0,0.0,0.0,0.0,0.0,0.0,0.0,0.0,0.0,0.0,0.0,0.0,0.0,0.0,0.0,0.0,0.0,0.0,0.0,0.0,0.0,0.0,0.0,0.0,0.0,0.0,0.0,0.0,0.0,0.0,0.0,0.0,0.0,0.0,0.0,0.0,0.0,0.0,0.0,0.0,0.0,0.0,0.0,0.0,0.0,0.0,0.0,0.0,0.0,0.0,0.0,0.0,0.0,0.0,0.0,0.0,0.0,0.0,0.0,0.0,0.0,0.0,0.0,0.0,0.0,0.0,0.0,0.0,0.0,0.0,0.0,0.0,0.0,0.0,0.0,0.0,0.0,0.0,0.0,0.0,0.0,0.0,0.0,0.0,0.0,0.0,0.0,0.0,0.0,0.0,0.0,0.0,0.0,0.0,0.0,0.0,0.0,0.0,0.0,0.0,0.0,0.0,0.0,0.0,0.0,0.0,0.0,0.0,0.0,0.0,0.0,0.0,0.0,0.0,0.0,0.0,0.0,0.0,0.0,0.0,0.0,0.0,0.0,0.0,0.0,0.0,0.0,0.0,0.0,0.0,0.0,0.0,0.0,0.0,0.0,0.0,0.0,0.0,0.0,0.0,0.0,0.0,0.0,0.0,0.0,0.0,0.0,0.0,0.0,0.0,0.0,0.0,0.0,0.0,0.0,0.0,0.0,0.0,0.0,0.0,0.0,0.0,0.0,0.0,0.0,0.0,0.0,0.0,0.0,0.0,0.0,0.0,0.0,0.0,0.0,0.0,0.0,0.0,0.0,0.0,0.0,0.0,0.0,0.0,0.0,0.0,0.0,0.0,0.0,0.0,0.0,0.0,0.0,0.0,0.0,0.0,0.0,0.0,0.0,0.0,0.0,0.0,0.0,0.0,0.0,0.0,0.0,0.0,0.0,0.0,0.0,0.0,0.0,0.0,0.0,0.0,0.0,0.0,0.0,0.0,0.0,0.0,0.0,0.0,0.0,0.0,0.0,0.0,0.0,0.0,0.0,0.0,0.0,0.0,0.0,0.0,0.0,0.0,0.0,0.0,0.0,0.0,0.0,0.0,0.0,0.0,0.0,0.0,0.0,0.0,0.0,0.0,0.0,0.0,0.0,0.0,0.0,0.0,0.0,0.0,0.0,0.0,0.0,0.0,0.0,0.0,0.0,0.0,0.0,0.0,0.0,0.0,0.0,0.0,0.0,0.0,0.0,0.0,0.0,0.0,0.0,0.0,0.0,0.0,0.0,0.0,0.0,0.0,0.0,0.0,0.0,0.0,0.0,0.0,0.0,0.0,0.0,0.0,0.0,0.0,0.0,0.0,0.0,0.0,0.0,0.0,0.0,0.0,0.0,0.0,0.0,0.0,0.0,0.0,0.0,0.0,0.0,0.0,0.0,0.0,0.0,0.0,0.0,0.0,0.0,0.0,0.0,0.0,0.0,0.0,0.0,0.0,0.0,0.0,0.0,0.0,0.0,0.0,0.0,0.0,0.0,0.0,0.0,0.0,0.0,0.0,0.0,0.0,0.0,0.0,0.0,0.0,0.0,0.0,0.0,0.0,0.0,0.0,0.0,0.0,0.0,0.0,0.0,0.0,0.0,0.0,0.0,0.0,0.0,0.0,0.0,0.0,0.0,0.0,0.0,0.0,0.0,0.0,0.0,0.0,0.0,0.0,0.0,0.0,0.0,0.0,0.0,0.0,0.0,0.0,0.0,0.0,0.0,0.0,0.0,0.0,0.0,0.0,0.0,0.0,0.0,0.0,0.0,0.0,0.0,0.0,0.0,0.0,0.0,0.0,0.0,0.0,0.0,0.0,0.0,0.0,0.0,0.0,0.0,0.0,0.0,0.0,0.0,0.0,0.0,0.0,0.0,0.0,0.0,0.0,0.0,0.0,0.0,0.0,0.0,0.0,0.0,0.0,0.0,0.0,0.0,0.0,0.0,0.0,0.0,0.0,0.0,0.0,0.0,0.0,0.0,0.0,0.0,0.0,0.0,0.0,0.0,0.0,0.0,0.0,0.0,0.0,0.0,0.0,0.0,0.0,0.0,0.0,0.0,0.0,0.0,0.0,0.0,0.0,0.0,0.0,0.0,0.0,0.0,0.0,0.0,0.0,0.0,0.0,0.0,0.0,0.0,0.0,0.0,0.0,0.0,0.0,0.0,0.0,0.0,0.0,0.0,0.0,0.0,0.0,0.0,0.0,0.0,0.0,0.0,0.0,0.0,0.0,0.0,0.0,0.0,0.0,0.0,0.0,0.0,0.0,0.0,0.0,0.0,0.0,0.0,0.0,0.0,0.0,0.0,0.0,0.0,0.0,0.0,0.0,0.0,0.0,0.0,0.0,0.0,0.0,0.0,0.0,0.0,0.0,0.0,0.0,0.0,0.0,0.0,0.0,0.0,0.0,0.0,0.0,0.0,0.0,0.0,0.0,0.0,0.0,0.0,0.0,0.0,0.0,0.0,0.0,0.0,0.0,0.0,0.0,0.0,0.0,0.0,0.0,0.0,0.0,0.0,0.0,0.0,0.0,0.0,0.0,0.0,0.0,0.0,0.0,0.0,0.0,0.0,0.0,0.0,0.0,0.0,0.0,0.0,0.0,0.0,0.0,0.0,0.0,0.0,0.0,0.0,0.0,0.0,0.0,0.0,0.0,0.0,0.0,0.0,0.0,0.0,0.0,0.0,0.0,0.0,0.0,0.0,0.0,0.0,0.0,0.0,0.0,0.0,0.0,0.0,0.0,0.0,0.0,0.0,0.0,0.0,0.0,0.0,0.0,0.0,0.0,0.0,0.0,0.0,0.0,0.0,0.0,0.0,0.0,0.0,0.0,0.0,0.0,0.0,0.0,0.0,0.0,0.0,0.0,0.0,0.0,0.0,0.0,0.0,0.0,0.0,0.0,0.0,0.0,0.0,0.0,0.0,0.0,0.0,0.0,0.0,0.0,0.0,0.0,0.0,0.0,0.0,0.0,0.0,0.0,0.0,0.0,0.0,0.0,0.0,0.0,0.0,0.0,0.0,0.0,0.0,0.0,0.0,0.0,0.0,0.0,0.0,0.0,0.0,0.0,0.0,0.0,0.0,0.0,0.0,0.0,0.0,0.0,0.0,0.0,0.0,0.0,0.0,0.0,0.0,0.0,0.0,0.0,0.0,0.0,0.0,0.0,0.0,0.0,0.0,0.0,0.0,0.0,0.0,0.0,0.0,0.0,0.0,0.0,0.0,0.0,0.0,0.0,0.0,0.0,0.0,0.0,0.0,0.0,0.0,0.0,0.0,0.0,0.0,0.0,0.0,0.0,0.0,0.0,0.0,0.0,0.0,0.0,0.0,0.0,0.0,0.0,0.0,0.0,0.0,0.0,0.0,0.0,0.0,0.0,0.0,0.0,0.0,0.0,0.0,0.0,0.0,0.0,0.0,0.0,0.0,0.0,0.0,0.0,0.0,0.0,0.0,0.0,0.0,0.0,0.0,0.0,0.0,0.0,0.0,0.0,0.0,0.0,0.0,0.0,0.0,0.0,0.0,0.0,0.0,0.0,0.0,0.0,0.0,0.0,0.0,0.0,0.0,0.0,0.0,0.0,0.0,0.0,0.0,0.0,0.0,0.0,0.0,0.0,0.0,0.0,0.0,0.0,0.0,0.0,0.0,0.0,0.0,0.0,0.0,0.0,0.0,0.0,0.0,0.0,0.0,0.0,0.0,0.0,0.0,0.0,0.0,0.0,0.0,0.0,0.0,0.0,0.0,0.0,0.0,0.0,0.0,0.0,0.0,0.0,0.0,0.0,0.0,0.0,0.0,0.0,0.0,0.0,0.0,0.0,0.0,0.0,0.0,0.0,0.0,0.0,0.0,0.0,0.0,0.0,0.0,0.0,0.0,0.0,0.0,0.0,0.0,0.0,0.0,0.0,0.0,0.0,0.0,0.0,0.0,0.0,0.0,0.0,0.0,0.0,0.0,0.0,0.0,0.0,0.0,0.0,0.0,0.0,0.0,0.0,0.0,0.0,0.0,0.0,0.0,0.0,0.0,0.0,0.0,0.0,0.0,0.0,0.0,0.0,0.0,0.0,0.0,0.0,0.0,0.0,0.0,0.0,0.0,0.0,0.0,0.0,0.0,0.0,0.0,0.0,0.0,0.0,0.0,0.0,0.0,0.0,0.0,0.0,0.0,0.0,0.0,0.0,0.0,0.0,0.0,0.0,0.0,0.0,0.0,0.0,0.0,0.0,0.0,0.0,0.0,0.0,0.0,0.0,0.0,0.0,0.0,0.0,0.0,0.0,0.0,0.0,0.0,0.0,0.0,0.0,0.0,0.0,0.0,0.0,0.0,0.0,0.0,0.0,0.0,0.0,0.0,0.0,0.0,0.0,0.0,0.0,0.0,0.0,0.0,0.0,0.0,0.0,0.0,0.0,0.0,0.0,0.0,-2.5831,0.0,0.0,0.0,0.0,0.0,0.0,0.0,0.0,0.0,0.0,0.0,0.0,0.0,0.0,0.0,0.0,0.0,0.0,0.0,0.0,0.0,0.0,0.0,0.0,-1.4414,-1.4848,-1.5903,-1.6319,-1.6297,-1.5787,0.0,0.0,0.0,0.0,0.0,-1.4975,-1.4329,-1.4292,-1.491,-1.5106,-1.5669,-1.6539,-1.5696,-1.5114,-1.479,0.0,0.0,0.0,0.0,0.0,0.0,0.0,0.0,0.0,0.0,0.0,0.0,0.0,0.0,0.0,0.0,0.0,0.0,0.0,0.0,0.0,0.0,0.0,0.0,0.0,0.0,0.0,0.0,0.0,0.0,0.0,0.0,0.0,0.0,0.0,0.0,0.0,0.0,0.0,0.0,0.0,0.0,0.0,0.0,0.0,0.0,0.0,0.0,0.0,0.0,0.0,0.0,0.0,0.0,0.0,0.0,0.0,0.0,0.0,0.0,0.0,0.0,0.0,0.0,0.0,0.0,0.0,0.0,0.0,0.0,0.0,-2.8051,0.0,0.0,0.0,0.0,0.0,0.0,0.0,0.0,0.0,0.0,0.0,0.0,0.0,0.0,0.0,0.0,0.0,0.0,0.0,0.0,0.0,-1.2145,-1.5133,-1.5585,-1.6205,-1.7543,-1.762,-1.7429,-1.7068,-1.6749,0.0,0.0,0.0,-1.536,-1.58,-1.5112,-1.527,-1.6326,-1.6761,-1.7467,-1.8403,-1.8662,-1.8264,-1.7313,-1.6797,0.0,0.0,0.0,0.0,0.0,0.0,0.0,0.0,0.0,0.0,0.0,0.0,0.0,0.0,0.0,0.0,0.0,0.0,0.0,0.0,0.0,0.0,0.0,0.0,0.0,0.0,0.0,0.0,0.0,0.0,0.0,0.0,0.0,0.0,0.0,0.0,0.0,0.0,0.0,0.0,0.0,0.0,0.0,0.0,0.0,0.0,0.0,0.0,0.0,0.0,0.0,0.0,0.0,0.0,0.0,0.0,0.0,0.0,0.0,0.0,0.0,0.0,0.0,-3.77,-3.6365,-3.6365,-3.6151,-3.5534,-3.4504,-3.183,-3.0363,-2.9592,0.0,0.0,0.0,0.0,0.0,0.0,0.0,0.0,0.0,0.0,0.0,0.0,0.0,0.0,0.0,0.0,0.0,0.0,0.0,0.0,-1.3901,-1.6258,-1.7074,-1.7913,-1.9032,-1.8868,-1.8525,-1.814,-1.7797,0.0,0.0,-1.677,-1.6441,-1.6229,-1.6709,-1.7061,-1.7225,-1.9093,-2.0267,-2.0784,-2.207,-2.2262,-2.1393,-1.8778,-1.7575,-1.7462,0.0,0.0,0.0,0.0,0.0,0.0,0.0,0.0,0.0,0.0,0.0,0.0,0.0,0.0,0.0,0.0,0.0,0.0,0.0,0.0,0.0,0.0,0.0,0.0,0.0,0.0,0.0,0.0,0.0,0.0,0.0,0.0,0.0,0.0,0.0,0.0,0.0,0.0,0.0,0.0,0.0,-2.5195,-2.5644,0.0,0.0,0.0,0.0,0.0,0.0,0.0,0.0,0.0,0.0,0.0,0.0,0.0,-3.5545,-3.8476,-3.8938,-3.9631,-4.0496,-4.0054,-3.9842,-3.9811,-3.8764,-3.8206,-3.8028,-3.7606,0.0,-3.2926,-2.9684,0.0,0.0,0.0,0.0,0.0,0.0,0.0,0.0,0.0,0.0,0.0,0.0,0.0,0.0,0.0,0.0,0.0,0.0,0.0,0.0,0.0,-1.7597,-1.8321,-1.962,-1.9593,-1.9264,-1.8684,-1.8326,-1.7887,-1.7325,-1.6799,-1.6716,-1.7121,-1.7052,-1.782,-1.9478,-2.1023,-2.2215,-2.3069,-2.3712,-2.3848,-2.3477,-2.2158,-2.0873,-1.9655,-1.8877,0.0,0.0,0.0,0.0,0.0,0.0,0.0,0.0,0.0,0.0,0.0,0.0,0.0,0.0,0.0,0.0,0.0,0.0,0.0,0.0,0.0,0.0,0.0,0.0,0.0,0.0,0.0,0.0,0.0,0.0,0.0,0.0,0.0,0.0,0.0,0.0,0.0,0.0,0.0,-2.4766,-2.6426,-2.8398,-2.8459,-2.7543,0.0,0.0,0.0,0.0,0.0,0.0,0.0,0.0,0.0,-3.5968,-3.7526,-3.9931,-4.3324,-4.3363,-4.3363,-4.3363,-4.3363,-4.2947,-4.2188,-4.2465,-4.1153,-3.8707,-3.8707,-3.7881,-3.6303,-3.3036,-2.9794,-2.6895,0.0,0.0,0.0,0.0,0.0,-2.906,0.0,0.0,0.0,0.0,0.0,0.0,0.0,0.0,0.0,0.0,0.0,0.0,-1.78,-1.8437,-1.9133,-2.031,-2.0351,-2.001,0.0,0.0,-1.8127,-1.7482,-1.6712,-1.668,-1.7507,-1.7593,-1.8904,-2.1503,-2.2473,-2.3482,-2.4491,-2.4694,-2.4778,-2.4795,-2.4982,-2.3932,-2.1983,-2.1083,-2.0088,0.0,0.0,0.0,0.0,0.0,0.0,0.0,0.0,0.0,0.0,0.0,0.0,0.0,0.0,0.0,0.0,0.0,0.0,0.0,0.0,0.0,0.0,0.0,0.0,0.0,0.0,0.0,0.0,0.0,0.0,0.0,0.0,0.0,0.0,0.0,0.0,0.0,0.0,-2.5703,-2.7324,-3.1699,-3.0414,-2.8521,0.0,0.0,0.0,0.0,0.0,0.0,-3.2788,-3.5411,-3.8315,-4.1708,-4.1805,-4.3036,-4.5575,-4.5594,-4.5594,-4.5594,-4.5594,-4.5047,-4.4058,-4.512,-4.3521,-3.9882,-3.9056,-3.8707,-3.8505,-3.6064,-3.3642,-3.139,-3.0564,-3.0234,-3.0234,-3.0234,-3.0234,-3.0564,0.0,0.0,0.0,0.0,0.0,0.0,0.0,0.0,0.0,0.0,0.0,-1.7111,-1.8685,0.0,-2.116,-2.1492,-2.1292,-2.0942,0.0,0.0,-1.8238,-1.7886,-1.686,-1.6428,-1.6758,-1.8956,-2.0954,-2.2617,-2.3309,-2.3933,-2.4508,-2.522,-2.5541,-2.5592,-2.6268,-2.576,-2.4267,-2.3058,-2.2235,-2.151,0.0,0.0,0.0,0.0,0.0,0.0,0.0,0.0,0.0,0.0,0.0,0.0,0.0,0.0,0.0,0.0,0.0,0.0,0.0,0.0,0.0,0.0,0.0,0.0,0.0,0.0,0.0,0.0,0.0,0.0,0.0,0.0,0.0,0.0,0.0,0.0,0.0,0.0,0.0,-3.4941,-2.9941,0.0,0.0,0.0,0.0,-3.4731,-3.4981,-3.6449,-3.9804,-4.0169,-4.1805,-4.5248,-4.5344,-4.5441,-4.5594,-4.5594,-4.5594,-4.5594,-4.5594,-4.5568,-4.5504,-4.5568,-4.474,-4.3092,-4.0029,-3.8707,-3.8689,-3.8524,-3.8358,-3.79,-3.478,-3.355,-3.355,-3.355,-3.355,-3.3587,0.0,0.0,0.0,-1.2297,-1.2914,-1.3396,-1.3396,-1.3811,-1.4377,-1.5105,-1.6492,-1.798,0.0,-2.0551,-2.1441,-2.201,-2.1956,-2.1516,-2.0572,0.0,-1.8912,-1.8499,-1.7495,-1.7471,-1.8612,-2.0443,-2.1982,-2.3142,-2.3703,-2.4465,-2.5479,-2.5728,-2.6016,-2.6319,-2.6573,-2.6404,-2.5862,-2.4953,-2.3721,-2.2277,-2.0849,-1.9303,0.0,0.0,0.0,0.0,0.0,0.0,0.0,0.0,0.0,0.0,0.0,0.0,0.0,0.0,0.0,0.0,0.0,0.0,0.0,0.0,0.0,0.0,0.0,0.0,0.0,0.0,0.0,0.0,0.0,0.0,0.0,0.0,0.0,0.0,0.0,0.0,0.0,-3.5449,-3.1692,0.0,-3.3365,-3.5622,-3.7411,-3.8623,-3.8719,-4.02,-4.3594,-4.3786,-4.4344,-4.5556,-4.5594,-4.5594,-4.5594,-4.5594,-4.5594,-4.5594,-4.5594,-4.5594,-4.5594,-4.5594,-4.4834,-4.3441,-4.2286,-4.0616,-3.8707,-3.8707,-3.8707,-3.8579,-3.7422,-3.6945,-3.6945,-3.6945,-3.6945,-3.6945,-1.1029,-1.1519,0.0,-1.2246,-1.2914,-1.3396,-1.3396,-1.4022,-1.4842,-1.5842,-1.7253,-1.8741,-2.0234,-2.1092,-2.1697,-2.2041,-2.2209,-2.1831,-2.0744,0.0,-1.9465,-1.9009,-1.8424,-1.8676,-1.9879,-2.1425,-2.2707,-2.3676,-2.4214,-2.507,-2.6244,-2.6244,-2.6401,-2.6691,-2.6691,-2.6691,-2.6657,-2.6184,-2.5152,-2.3726,-2.2308,-2.0963,-1.9593,0.0,0.0,0.0,0.0,0.0,0.0,0.0,0.0,0.0,0.0,0.0,0.0,0.0,0.0,0.0,0.0,0.0,0.0,0.0,0.0,0.0,0.0,0.0,0.0,0.0,0.0,0.0,0.0,0.0,0.0,0.0,0.0,0.0,0.0,0.0,-3.3906,-3.7344,-3.543,-3.4699,-3.6969,-3.92,-4.0977,-4.2132,-4.2228,-4.3209,-4.5479,-4.5594,-4.5594,-4.5594,-4.5594,-4.5594,-4.5594,-4.5594,-4.5594,-4.5594,-4.5594,-4.5594,-4.5586,-4.511,-4.4382,-4.3515,-4.3515,-4.2286,-4.023,-3.9148,-3.8707,-3.8707,-3.8707,-3.8707,-3.8707,-3.8707,-3.8707,-3.8707,-1.0815,-1.1103,-1.1383,-1.2162,-1.2914,-1.3396,-1.3396,-1.4056,-1.5071,-1.6512,-1.8008,-1.9502,-2.1021,-2.1854,-2.212,-2.1658,-2.2032,-2.193,-2.1071,-2.0381,-1.9844,-1.9465,-1.9661,-1.999,-2.0407,-2.1963,-2.3251,-2.4232,-2.4884,-2.5709,-2.6674,-2.6674,-2.6691,-2.6691,-2.6691,-2.6691,-2.6691,-2.6691,-2.6481,-2.5917,-2.3759,-2.2578,-2.1854,0.0,0.0,0.0,0.0,0.0,0.0,0.0,0.0,0.0,0.0,0.0,0.0,0.0,0.0,0.0,0.0,0.0,0.0,0.0,0.0,0.0,0.0,0.0,0.0,0.0,0.0,0.0,0.0,0.0,0.0,0.0,0.0,0.0,-3.1055,-3.4004,-3.7422,-4.0801,-4.0878,-4.0669,-4.0669,-4.0669,-4.2035,-4.5344,-4.5594,-4.5594,-4.5594,-4.5594,-4.5594,-4.5594,-4.5594,-4.5594,-4.5594,-4.5594,-4.5594,-4.5594,-4.5594,-4.5594,-4.554,-4.4132,-4.3515,-4.3515,-4.3515,-4.3515,-4.3258,-4.0029,-3.8707,-3.8707,-3.8707,-3.8707,-3.8707,-3.8707,-3.8707,-3.8707,-1.0398,-1.1267,-1.2043,-1.2263,-1.2914,-1.3396,-1.3396,-1.4488,-1.5629,-1.658,-1.8454,-2.0082,-2.1089,-2.1854,-2.2254,-2.212,-2.224,-2.2063,-2.146,-2.0805,-2.0493,-2.0623,-2.144,-2.2274,-2.3106,-2.3857,-2.4457,-2.4932,-2.5106,-2.5542,-2.6191,-2.6191,-2.6367,-2.6691,-2.6691,-2.6691,-2.6691,-2.6691,-2.6639,-2.6449,-2.5292,-2.4016,-2.2782,0.0,0.0,0.0,0.0,0.0,0.0,0.0,0.0,0.0,0.0,0.0,0.0,0.0,0.0,0.0,0.0,0.0,0.0,0.0,0.0,0.0,0.0,0.0,0.0,0.0,0.0,0.0,0.0,0.0,0.0,0.0,-3.2344,-3.4609,-3.4609,-3.7578,-4.0137,-4.1094,-4.2976,-4.4209,-4.4209,-4.4209,-4.4594,-4.5537,-4.5594,-4.5594,-4.5594,-4.5594,-4.5594,-4.5594,-4.5594,-4.5594,-4.5594,-4.5594,-4.5594,-4.5594,-4.5594,-4.5594,-4.554,-4.4132,-4.3515,-4.3515,-4.3515,-4.3515,-4.3258,-4.0029,-3.8707,-3.8707,-3.8707,-3.8707,-3.8707,-3.8707,-3.8707,-3.8707,-1.0625,-1.1551,-1.2398,-1.2711,-1.3125,-1.3396,-1.3396,-1.4657,-1.5967,-1.7016,-1.8814,-2.042,-2.1532,-2.204,-2.2223,-2.2017,-2.2003,-2.1825,-2.1368,-2.127,-2.1384,-2.176,-2.2769,-2.3593,-2.4145,-2.447,-2.4713,-2.4855,-2.4855,-2.5259,-2.6013,-2.6013,-2.6244,-2.6691,-2.6691,-2.6691,-2.6691,-2.6691,-2.6691,-2.6657,-2.6234,-2.548,-2.4572,-2.4319,-2.3625,-2.2932,-2.3859,-2.296,-2.1353,-2.1353,0.0,0.0,0.0,0.0,0.0,0.0,0.0,0.0,0.0,0.0,0.0,0.0,0.0,0.0,0.0,0.0,0.0,0.0,0.0,0.0,0.0,0.0,0.0,0.0,-3.5937,-3.8184,-3.8184,-3.9922,-4.1191,-4.1191,-4.3977,-4.5896,-4.5896,-4.5725,-4.5594,-4.5594,-4.5594,-4.5594,-4.5594,-4.5594,-4.5594,-4.5594,-4.5594,-4.5594,-4.5594,-4.5594,-4.5594,-4.5594,-4.5594,-4.5594,-4.5577,-4.4743,-4.4382,0.0,-4.4382,-4.4046,-4.3349,-4.1479,-3.9918,0.0,0.0,0.0,0.0,0.0,-3.8707,-3.8707,-1.136,-1.1996,-1.265,-1.3295,-1.3396,-1.3396,-1.3396,-1.4657,-1.6103,-1.749,-1.9022,-2.0521,-2.189,-2.215,-2.2044,-2.1587,-2.1532,-2.1432,-2.1199,-2.1843,-2.2476,-2.2992,-2.3876,-2.4376,-2.44,-2.4516,-2.4592,-2.4592,-2.4592,-2.5067,-2.6013,-2.605,-2.6297,-2.6691,-2.6691,-2.6691,-2.6691,-2.6691,-2.6691,-2.6708,-2.6758,-2.6745,-2.6596,-2.5713,-2.5001,-2.4447,-2.4263,-2.419,-2.419,-2.419,0.0,0.0,0.0,0.0,0.0,0.0,0.0,0.0,0.0,0.0,0.0,0.0,0.0,0.0,0.0,0.0,0.0,0.0,0.0,0.0,0.0,0.0,0.0,0.0,-3.918,-4.1191,-4.1191,-4.1523,-4.1777,-4.1777,-4.4453,-4.6308,-4.6308,-4.5875,-4.5594,-4.5594,-4.5594,-4.5594,-4.5594,0.0,0.0,0.0,0.0,-4.5594,-4.5594,-4.5594,-4.5594,-4.5594,-4.5594,-4.5594,-4.5594,-4.5594,-4.5594,-4.5594,-4.5594,-4.4893,-4.3726,-4.3582,-4.1589,-3.8707,-3.8707,-3.8707,-3.8707,-3.8707,-3.8707,0.0,-1.2459,-1.2933,-1.3362,-1.3387,-1.3396,-1.3396,-1.3396,-1.4657,-1.5927,-1.679,-1.8713,-2.0103,-2.0407,-2.1225,-2.162,-2.1291,-2.118,-2.1471,0.0,0.0,-2.3718,-2.4974,-2.5228,-2.5598,-2.6184,-2.586,-2.5689,-2.5689,-2.5689,-2.5797,-2.6013,-2.6384,-2.6607,-2.6691,-2.6691,-2.6691,-2.6691,-2.6691,-2.6691,-2.6725,-2.7051,-2.6989,-2.6674,-2.6495,-2.6309,-2.597,-2.4667,-2.419,-2.419,-2.419,-2.419,-2.408,-2.3456,-2.3652,0.0,0.0,0.0,0.0,0.0,0.0,0.0,0.0,0.0,0.0,0.0,0.0,0.0,0.0,0.0,0.0,0.0,0.0,0.0,-4.0098,-4.0762,-4.1191,-4.1191,-4.3574,-4.5312,-4.5312,-4.5898,-4.6308,-4.6308,-4.5875,-4.5594,-4.5594,-4.5594,-4.5594,-4.5594,-4.5594,0.0,-4.5594,-4.5594,-4.5594,-4.5594,-4.5594,-4.5594,-4.5594,0.0,0.0,-4.5594,-4.5594,-4.5594,-4.5594,-4.5594,-4.5448,-4.511,-4.3974,-4.1589,-3.8707,-3.8707,-3.8707,-3.8707,-3.8707,-3.8707,-3.8707,-1.3446,-1.3535,-1.3578,-1.3509,-1.3446,-1.3396,-1.3396,-1.4657,-1.5859,-1.6597,-1.8302,-1.9592,-1.9951,-2.0333,-2.0492,-2.0364,-2.063,0.0,0.0,-2.3376,-2.4441,-2.5542,-2.5947,-2.6219,-2.6349,-2.612,-2.587,-2.5596,-2.5596,-2.5726,-2.6013,-2.6244,-2.647,-2.6691,-2.6691,-2.6691,-2.6691,-2.6691,-2.6691,-2.6741,-2.7147,-2.7305,-2.7317,-2.7491,-2.7645,-2.7592,-2.5988,-2.4887,-2.419,-2.419,-2.419,-2.4257,-2.4625,-2.4993,-2.5308,0.0,0.0,0.0,0.0,0.0,0.0,0.0,0.0,0.0,0.0,0.0,0.0,0.0,0.0,-3.374,-3.5482,0.0,-4.1758,-4.3476,-4.375,-4.375,-4.375,-4.5215,-4.6308,-4.6308,-4.6308,-4.6308,-4.6308,-4.6089,-4.5847,-4.5629,-4.5594,-4.5594,-4.5594,-4.5594,-4.5594,-4.5594,-4.5594,-4.5594,-4.5594,-4.5594,-4.5594,-4.5594,-4.5594,-4.5594,-4.5594,-4.5594,-4.5594,-4.5594,-4.5594,-4.5594,-4.5504,-4.4073,-4.1589,-3.8707,-3.8707,-3.8707,-3.8707,-3.8707,-3.8707,-3.8707,-1.4228,-1.3979,-1.3684,-1.3607,-1.3647,-1.3659,-1.3616,-1.4877,-1.6028,-1.6631,-1.7975,-1.9063,-1.9524,-1.9462,-1.9364,0.0,0.0,0.0,0.0,-2.3618,-2.485,-2.5647,-2.632,-2.6505,-2.6139,-2.6049,-2.5797,-2.5354,-2.5354,-2.5577,-2.6013,-2.6086,-2.6332,-2.6691,-2.6691,-2.6691,-2.6691,-2.6691,-2.6741,-2.6841,-2.7239,-2.7648,-2.8016,-2.8219,-2.8452,-2.8546,-2.7464,-2.5841,-2.419,-2.419,-2.419,-2.433,-2.5066,-2.5308,-2.5308,-2.5308,-2.5308,0.0,0.0,0.0,0.0,0.0,0.0,0.0,0.0,-3.1077,-3.572,-3.6441,-3.6818,-3.7871,-4.0684,-4.1738,-4.3086,-4.5859,-4.6308,-4.6308,-4.6308,-4.6308,-4.6308,-4.6308,-4.6308,-4.6308,-4.6308,-4.6308,-4.6119,-4.5643,-4.5594,-4.5594,-4.5594,-4.5594,-4.5594,-4.5594,-4.5594,-4.5594,-4.5594,-4.5594,-4.5594,-4.5594,-4.5594,-4.5594,-4.5594,-4.5594,-4.5594,-4.5594,-4.5594,-4.5594,-4.5513,-4.4368,-4.1853,-3.8707,-3.8707,-3.8707,-3.8707,-3.8707,-3.8707,-3.8707,-1.465,-1.4374,-1.4017,-1.3653,-1.4183,-1.4573,-1.4395,-1.5639,-1.6614,-1.6699,-1.7975,-1.8674,-1.8104,-1.8601,-1.8913,-1.8792,0.0,0.0,-2.2295,-2.3704,-2.4942,-2.5903,-2.6437,-2.6674,-2.6624,-2.6209,-2.5961,-2.5906,-2.5906,-2.5943,-2.6013,-2.6419,-2.6657,-2.6691,-2.6691,-2.6691,-2.6691,-2.6691,-2.6906,-2.7272,-2.7663,-2.8034,-2.8322,-2.7983,-2.7754,-2.7684,-2.8455,-2.6767,-2.419,-2.419,-2.419,-2.433,-2.5066,-2.5308,-2.5308,-2.5308,-2.5308,-2.5308,-2.5308,-2.7519,-3.0558,-3.3596,-3.2654,-3.0769,0.0,-3.2769,-3.646,-3.9855,-4.0585,-4.0742,-4.1133,-4.3672,-4.5859,-4.623,-4.6308,-4.6308,-4.6308,-4.6308,-4.6308,-4.6308,-4.6308,-4.6308,-4.6308,-4.6308,-4.6119,-4.5643,-4.5594,-4.5594,-4.5594,-4.5594,-4.5594,-4.5594,-4.5594,-4.5594,-4.5594,-4.5594,-4.5594,-4.5594,-4.5594,-4.5594,-4.5594,-4.5594,-4.5594,-4.5594,-4.5594,-4.5594,-4.5586,-4.5438,-4.2721,-3.8707,-3.8707,-3.8707,-3.8707,-3.8707,-3.8707,-3.8707,-1.4728,-1.4955,-1.5074,-1.4706,-1.4724,-1.4926,-1.5312,-1.6138,-1.6699,-1.6699,-1.7608,-1.8138,-1.7834,-1.8078,-1.83,-1.8403,-1.9543,-2.0989,-2.2748,-2.3901,-2.5071,-2.6352,-2.6607,-2.6691,-2.6691,-2.6505,-2.6401,-2.6401,-2.6401,-2.6401,-2.6419,-2.684,-2.6923,-2.6725,-2.7194,-2.7272,-2.7067,-2.7303,-2.7502,-2.7678,-2.8047,-2.8259,-2.8355,-2.7949,-2.764,-2.7427,-2.7556,-2.7336,0.0,0.0,-2.419,-2.433,-2.5066,-2.5308,-2.5308,-2.5308,-2.5308,-2.5731,-2.7731,-2.7865,-2.825,-3.1673,-3.2942,-3.3365,-3.3365,-3.6182,-3.9277,-4.0877,-4.1191,-4.1816,-4.3808,-4.5332,-4.6308,0.0,-4.6308,-4.6308,-4.6308,-4.6308,-4.6308,-4.6308,-4.6308,-4.6308,-4.6308,-4.6308,-4.6119,-4.5643,-4.5594,-4.5594,-4.5594,-4.5594,-4.5594,-4.5594,-4.5594,-4.5594,-4.5594,-4.5594,-4.5594,-4.5594,-4.5594,-4.5594,-4.5594,-4.5594,-4.5594,-4.5594,-4.5594,-4.5594,-4.5594,-4.5594,-4.447,-4.2461,-3.9754,-3.8707,-3.8707,-3.8707,-3.8707,-3.8707,-1.5085,-1.5532,-1.5954,-1.6123,-1.5839,-1.5757,-1.6227,-1.6703,-1.6993,-1.6993,-1.7473,-1.7749,-1.767,-1.7842,-1.8029,-1.8192,-1.9399,-2.0877,-2.2568,-2.3635,-2.4783,-2.6118,-2.632,-2.6488,-2.6691,-2.6691,-2.6691,-2.6691,-2.6691,-2.6691,-2.6708,-2.7115,-2.7147,-2.689,-2.7589,-2.7754,-2.7485,-2.7783,-2.7936,-2.8061,-2.8298,-2.8332,-2.8173,-2.7661,-2.7346,-2.7134,-2.673,-2.706,0.0,0.0,-2.4339,-2.4596,-2.5118,-2.5308,-2.5308,-2.5308,-2.5981,-2.7038,-2.8577,-2.7865,-2.7538,-3.0942,-3.3673,-3.5731,-3.6673,-3.9114,-4.1191,-4.1191,-4.1191,-4.2246,-4.5664,-4.6308,-4.6308,-4.6308,-4.6308,-4.6308,-4.6308,-4.6308,-4.6308,-4.6308,-4.6308,-4.6308,-4.6308,-4.6308,-4.6119,-4.5643,-4.5594,-4.5594,-4.5594,-4.5594,-4.5594,-4.5594,-4.5594,-4.5594,-4.5594,-4.5594,-4.5594,-4.5594,-4.5594,-4.5594,-4.5594,-4.5594,-4.5594,-4.5594,-4.5594,-4.5594,-4.5594,-4.5594,-4.5594,-4.5167,-4.0865,-3.9208,-3.9154,-3.8818,-3.8707,-3.8707,-1.5927,-1.5977,-1.6354,-1.7762,-1.7793,-1.7493,-1.7118,-1.7462,-1.7766,-1.7766,-1.7783,-1.7681,-1.7356,-1.7955,-1.8329,-1.8207,-1.9651,-2.0805,-2.1313,-2.2669,-2.3853,-2.4824,-2.5363,-2.5981,-2.6674,-2.6691,-2.6691,-2.6691,-2.6691,-2.6691,-2.6708,-2.7115,-2.7286,-2.7303,-2.7725,-2.7897,-2.7883,-2.7897,-2.8088,-2.8394,-2.8407,-2.8173,-2.7721,-2.6932,-2.662,-2.662,-2.6602,0.0,0.0,-2.4226,-2.4689,-2.5264,-2.5284,-2.5308,-2.5308,-2.5308,-2.7654,-2.9538,-2.6327,-2.7808,-3.1077,-3.4481,-3.5423,-3.6346,-3.9611,-4.0797,-4.1191,-4.1191,-4.1191,-4.2246,-4.5664,-4.6308,-4.6308,-4.6308,-4.6308,-4.6308,-4.6308,-4.6308,-4.6308,-4.6308,-4.6308,-4.6308,-4.6308,-4.6308,-4.6119,-4.5643,-4.5594,-4.5594,-4.5594,-4.5594,-4.5594,-4.5594,-4.5594,-4.5594,-4.5594,-4.5594,-4.5594,-4.5594,-4.5594,-4.5594,-4.5594,-4.5594,-4.5594,-4.5594,-4.5594,-4.5594,-4.5594,-4.5594,-4.5594,-4.5267,-4.1791,-4.0457,-4.0292,-3.9127,-3.8707,-3.8707,-1.6215,-1.662,-1.7237,-1.8136,-1.8518,-1.861,-1.8396,-1.8186,-1.8003,-1.7822,-1.8234,0.0,0.0,0.0,0.0,0.0,-2.0675,-2.1539,-2.2199,-2.2949,-2.3755,-2.4574,-2.4769,-2.5218,-2.5947,-2.5981,-2.6348,-2.7099,-2.7099,-2.7224,-2.75,-2.7862,-2.7904,-2.7739,-2.8347,-2.8476,-2.825,-2.852,-2.8991,-2.9503,-2.8432,-2.8235,-2.84,-2.6712,-2.63,-2.6455,0.0,0.0,0.0,-2.419,-2.3213,-2.2365,-2.4596,-2.5308,-2.575,-2.8019,-2.7885,-2.6769,-2.5615,-2.9442,-3.4058,-3.5212,-3.55,-3.6465,-4.0124,-4.1097,-4.1191,-4.1191,-4.1191,-4.1543,-4.2695,-4.293,-4.3652,-4.5937,-4.6308,-4.6308,-4.6308,-4.6308,-4.6308,-4.6308,-4.6308,-4.6308,-4.6308,-4.6308,0.0,-4.6081,-4.5783,-4.5594,-4.5594,-4.5594,-4.5594,-4.5594,-4.5594,-4.5594,-4.5594,-4.5594,-4.5594,-4.5594,-4.5594,-4.5594,-4.5594,-4.5594,-4.5594,-4.5594,-4.5594,-4.5594,-4.5594,-4.5594,-4.5594,-4.5498,-4.4325,-4.2497,-4.0446,-4.0043,-3.9389,-3.8707,-1.6791,-1.7403,-1.817,-1.8793,-1.9158,0.0,0.0,0.0,0.0,0.0,0.0,0.0,0.0,0.0,0.0,0.0,0.0,-2.1794,-2.2286,-2.275,-2.3342,-2.4068,-2.4118,-2.4457,-2.5186,-2.5312,-2.5735,-2.6474,-2.6608,-2.6798,-2.7051,-2.7394,-2.7433,-2.725,-2.7944,-2.8121,-2.7896,-2.8223,-2.8653,-2.9042,-2.7997,-2.7687,-2.7677,-2.6408,-2.6219,0.0,0.0,0.0,-2.4548,-2.4294,-2.3257,-2.2462,-2.4615,-2.5308,-2.5731,-2.7923,-2.7885,-2.7422,-2.8763,-3.3239,-3.7538,-3.7538,-3.7538,-3.8174,-4.064,-4.1191,-4.1191,-4.1191,-4.0215,-3.9336,-3.9336,-4.0351,-4.1914,-4.4121,-4.5508,-4.6308,-4.6308,-4.6308,-4.6308,-4.6308,-4.6308,-4.6308,-4.6308,-4.6308,0.0,-4.6308,-4.602,-4.5783,-4.5612,-4.5594,-4.5594,-4.5594,-4.5594,-4.5594,-4.5594,-4.5594,-4.5594,-4.5594,-4.5594,-4.5594,-4.5594,-4.5594,-4.5594,-4.5594,-4.5594,-4.5594,-4.5594,-4.5594,-4.5594,-4.5594,-4.5594,-4.3517,-4.0496,-4.0496,-4.0014,-3.9294,-1.777,-1.8354,-1.9097,0.0,0.0,0.0,0.0,0.0,0.0,0.0,0.0,0.0,0.0,0.0,0.0,0.0,0.0,0.0,-2.1643,-2.2046,0.0,-2.3308,-2.3371,-2.3708,-2.4454,-2.4795,-2.4982,-2.5048,-2.538,-2.5539,-2.5565,-2.5883,-2.6038,-2.6068,-2.6636,-2.6898,-2.6898,-2.7104,-2.7207,-2.7244,-2.7167,-2.6589,-2.5799,-2.6019,0.0,0.0,0.0,0.0,-2.5187,-2.4493,-2.4715,-2.5308,-2.5308,-2.5308,-2.5327,-2.5519,-2.7981,-3.1477,-3.5259,-3.8672,-4.1191,-4.1191,-4.1191,-4.1191,-4.1191,-4.1191,-4.1152,-4.0976,-3.8301,-3.5957,-3.5762,-3.8594,-4.0937,-4.0937,-4.3945,-4.6308,-4.6308,-4.6308,-4.6308,-4.6308,-4.6308,-4.6308,-4.6308,-4.6308,0.0,-4.6308,0.0,-4.6092,-4.5618,-4.5594,-4.5594,-4.5594,-4.5594,-4.5594,-4.5594,-4.5594,-4.5594,-4.5594,-4.5594,-4.5594,-4.5594,-4.5594,-4.5594,-4.5594,-4.5594,-4.5594,-4.5594,-4.5594,-4.5594,-4.5594,-4.5594,-4.3517,-4.0496,-4.0496,-4.0496,-4.0336,0.0,0.0,0.0,0.0,0.0,0.0,0.0,0.0,0.0,0.0,0.0,0.0,0.0,0.0,0.0,0.0,0.0,0.0,-2.212,-2.2223,0.0,0.0,0.0,-2.324,-2.4049,-2.433,0.0,0.0,0.0,-2.6027,-2.6318,-2.6562,-2.6583,-2.6469,-2.6763,-2.6821,-2.668,-2.6888,-2.7317,-2.7783,0.0,-2.6511,-2.6654,0.0,0.0,0.0,0.0,-2.5149,-2.5269,-2.5078,-2.513,-2.5308,-2.5308,-2.5308,-2.5808,-2.8346,-3.1519,-3.5027,-3.8832,-4.0527,-4.1191,-4.1191,-4.1191,-4.1191,-4.1191,-4.1191,-4.0469,-3.7851,-3.6621,-3.5215,-3.2676,-3.5019,-3.7324,-3.7324,-4.2363,-4.6308,-4.6308,-4.6308,-4.6308,-4.6308,-4.6308,-4.6308,-4.6308,-4.6308,0.0,0.0,-4.6308,-4.6092,-4.5618,-4.5594,-4.5594,-4.5594,-4.5594,-4.5594,-4.5594,-4.5594,-4.5594,-4.5594,-4.5594,-4.5594,-4.5594,-4.5594,-4.5594,-4.5594,-4.5594,-4.5594,-4.5594,-4.5594,-4.5594,-4.5594,-4.5594,-4.3517,-4.0496,-4.0496,-4.0496,-4.0465,0.0,0.0,0.0,0.0,0.0,0.0,0.0,0.0,0.0,0.0,0.0,0.0,0.0,0.0,0.0,0.0,0.0,0.0,0.0,-2.2554,0.0,0.0,0.0,-2.3133,-2.3579,-2.424,-2.4694,0.0,0.0,0.0,0.0,-2.5792,-2.5819,-2.5828,-2.5989,-2.6003,-2.5922,-2.6106,0.0,0.0,0.0,0.0,0.0,0.0,0.0,0.0,0.0,-2.5308,-2.5538,-2.7038,-2.7538,-2.7808,-2.9308,-2.9788,-3.0154,-3.2077,-3.5038,-3.8215,-4.0568,-4.1191,-4.1191,-4.1191,-4.1191,-4.1191,-4.1191,-4.0019,-3.8359,-3.6406,-3.4805,-3.3184,-3.125,-3.2461,-3.4746,-3.7793,-4.2793,-4.6308,-4.6308,-4.6308,-4.6308,-4.6308,-4.6308,-4.6308,-4.6308,-4.6308,-4.6308,0.0,-4.6308,-4.6192,-4.593,-4.5718,-4.5594,-4.5594,-4.5594,-4.5594,-4.5594,-4.5594,-4.5594,-4.5594,-4.5594,-4.5594,-4.5594,-4.5594,-4.5594,-4.5594,0.0,-4.5594,-4.5594,-4.5594,-4.5594,-4.546,-4.3959,-4.2189,-4.0496,-4.0496,-4.0496,-4.0496,0.0,0.0,0.0,0.0,0.0,0.0,0.0,0.0,0.0,-2.0684,-2.0945,-2.1384,-2.203,-2.2451,0.0,0.0,0.0,0.0,0.0,0.0,0.0,0.0,0.0,-2.3282,-2.3299,-2.432,-2.4519,0.0,0.0,0.0,0.0,0.0,0.0,0.0,0.0,0.0,0.0,0.0,0.0,0.0,0.0,0.0,0.0,0.0,0.0,0.0,-2.5072,-2.5308,-2.5827,-2.925,-3.0692,-3.1596,-3.4558,-3.5808,-3.6154,-3.6154,-3.8278,-4.0676,-4.1098,-4.1191,-4.1191,-4.1191,-4.1191,-4.1191,-4.1191,-3.8144,-3.5312,-3.5312,-3.2598,-3.0351,-3.0801,-3.0527,-3.2617,-4.0,-4.3691,-4.5781,-4.623,-4.6308,-4.6308,-4.6308,-4.6308,-4.6308,-4.6308,-4.6719,-4.6797,-4.6328,-4.6308,-4.6308,-4.6308,-4.5901,-4.5653,-4.5594,-4.5594,-4.5594,-4.5594,-4.5594,-4.5594,-4.5594,-4.5594,-4.5594,-4.5594,-4.5594,-4.5594,-4.5594,0.0,0.0,-4.5594,-4.5594,-4.5594,-4.5267,-4.1843,-4.0496,-4.0496,-4.0496,-4.0496,-4.0496,0.0,0.0,0.0,0.0,0.0,0.0,0.0,0.0,0.0,0.0,0.0,0.0,0.0,0.0,0.0,0.0,0.0,0.0,0.0,0.0,0.0,0.0,0.0,-2.3681,-2.3862,-2.4331,-2.4581,-2.4609,0.0,0.0,0.0,0.0,0.0,0.0,0.0,0.0,0.0,0.0,0.0,0.0,0.0,0.0,0.0,0.0,0.0,0.0,-2.5253,-2.5308,-2.5827,-2.925,-3.2288,-3.4712,-3.5308,-3.7411,-3.9631,-3.9631,-4.0325,-4.11,-4.1171,-4.1191,-4.1191,-4.1191,-4.1191,-4.1191,-4.1191,-3.6328,-3.1777,-3.1777,-2.9023,-2.748,-3.0371,-2.8535,-2.9805,-3.9609,-4.1699,-4.3066,-4.5898,-4.6308,-4.6308,-4.6308,-4.6308,-4.6308,-4.6308,-4.8867,0.0,0.0,0.0,-4.6308,-4.6308,-4.6222,-4.6006,-4.562,-4.5594,-4.5594,-4.5594,-4.5594,-4.5594,-4.5594,-4.5594,-4.5594,-4.5594,-4.5594,-4.5594,-4.5594,0.0,0.0,-4.5594,-4.5594,-4.5594,-4.5267,-4.1843,-4.0496,-4.0496,-4.0496,-4.0496,-4.0496,0.0,0.0,0.0,0.0,0.0,0.0,0.0,0.0,0.0,0.0,0.0,0.0,0.0,0.0,0.0,0.0,0.0,0.0,0.0,0.0,0.0,0.0,0.0,-2.4316,-2.4408,-2.4984,-2.5117,-2.4804,0.0,-2.5248,0.0,-2.4968,-2.503,-2.5068,0.0,0.0,0.0,0.0,0.0,0.0,0.0,0.0,0.0,0.0,0.0,0.0,0.0,-2.5308,-2.5558,-2.7192,-3.0019,-3.3154,-3.4942,-3.6596,-3.7892,-3.7892,-3.9474,-4.1191,-4.1191,-4.1191,-4.1191,-4.1191,-4.1191,-4.0723,-3.8906,-3.4551,-3.0391,-2.8574,-2.6855,-2.6211,-2.7891,-2.8301,-3.0039,-3.5039,-3.8867,-4.2383,-4.582,-4.6308,-4.6308,-4.6308,-4.6308,-4.6308,-4.6308,-4.7773,-4.8066,-4.6426,0.0,-4.6308,-4.6308,-4.6308,-4.6086,-4.5601,-4.5594,-4.5594,-4.5594,-4.5594,-4.5594,-4.5594,-4.5594,-4.5594,-4.5594,-4.5594,-4.5594,-4.5594,-4.5594,0.0,-4.5594,-4.5594,-4.5594,-4.5267,-4.1843,-4.0496,-4.0496,-4.0496,-4.0496,-4.0496,0.0,0.0,0.0,0.0,0.0,0.0,0.0,0.0,-2.3126,-2.4012,-2.4622,-2.4904,-2.4643,-2.4444,0.0,0.0,0.0,0.0,0.0,0.0,0.0,0.0,0.0,-2.4799,-2.4842,0.0,0.0,-2.4915,-2.5532,0.0,0.0,0.0,0.0,0.0,-2.5317,-2.5313,0.0,0.0,0.0,0.0,0.0,0.0,0.0,0.0,0.0,0.0,0.0,-2.5308,-2.5308,-2.5308,-2.7096,-2.9904,-3.3327,-3.4904,-3.55,-3.55,-3.7688,-4.0254,-4.0996,-4.1191,-4.1191,-4.1191,-4.1191,-4.0293,-3.6797,-3.3359,-2.9902,-2.6426,-2.5703,-2.5703,-2.5703,-2.7949,-3.0039,-3.0781,-3.5449,-4.0195,-4.3613,-4.5371,-4.6308,-4.6308,-4.6308,-4.6308,-4.6308,-4.6953,0.0,-4.6367,0.0,0.0,-4.6308,-4.6308,-4.6132,-4.5757,-4.5657,-4.5594,-4.5594,-4.5594,-4.5594,-4.5594,-4.5594,-4.5594,-4.5594,-4.5594,-4.5594,-4.5594,-4.5594,0.0,0.0,-4.5594,-4.5171,-4.4248,-4.1554,-4.0496,-4.0496,-4.0496,-4.0496,-4.0496,0.0,0.0,0.0,0.0,0.0,0.0,0.0,0.0,-2.3365,-2.4947,-2.5072,-2.4998,-2.4968,-2.4823,0.0,0.0,0.0,0.0,0.0,0.0,0.0,0.0,0.0,0.0,0.0,0.0,0.0,-2.5253,-2.5325,0.0,0.0,0.0,0.0,0.0,0.0,-2.535,-2.5317,0.0,0.0,0.0,0.0,0.0,0.0,0.0,0.0,0.0,0.0,-2.5308,-2.5308,-2.5308,-2.5519,-2.6365,-2.9788,-3.3,-3.55,-3.55,-3.5962,-3.7168,-4.0332,-4.1191,-4.1191,-4.1191,-4.1191,-4.0293,-3.6797,-3.3359,-2.9902,-2.6426,-2.5703,-2.5703,-2.5703,-2.5957,-2.7207,-3.0391,-3.1426,-3.3047,-3.6465,-4.2344,-4.6308,-4.6308,-4.6308,-4.6308,-4.6308,-4.9101,-4.9648,0.0,0.0,0.0,-4.6308,-4.6308,-4.6289,-4.6245,-4.5826,-4.5594,-4.5594,-4.5594,-4.5594,-4.5594,-4.5594,-4.5594,-4.5594,-4.5594,-4.5594,-4.5594,0.0,0.0,0.0,-4.5594,-4.3767,-4.0939,-4.0612,-4.0496,-4.0496,-4.0496,-4.0496,-4.0496,0.0,0.0,0.0,0.0,0.0,0.0,0.0,0.0,-2.4009,-2.5154,-2.5224,-2.5173,-2.5173,-2.5118,0.0,0.0,0.0,0.0,0.0,0.0,0.0,0.0,0.0,0.0,0.0,0.0,-2.5537,-2.6144,-2.5661,0.0,0.0,0.0,0.0,0.0,0.0,-2.5447,-2.543,0.0,0.0,0.0,0.0,0.0,0.0,0.0,0.0,0.0,0.0,0.0,-2.5308,-2.5308,-2.5308,-2.5538,-2.6904,-2.8269,-3.0173,-3.4288,-3.559,-3.6498,-4.0209,-4.1191,-4.1191,-4.1191,-3.9629,-3.7168,-3.3711,-3.0254,-2.7383,-2.5996,-2.5703,-2.5703,-2.5703,-2.5703,-2.6836,-3.0332,-3.2637,-3.4453,-3.5801,-4.1953,-4.6308,-4.6308,-4.6308,-4.6308,0.0,0.0,-4.7773,0.0,0.0,0.0,-4.6308,-4.6308,-4.6308,-4.6308,-4.6126,-4.589,-4.5594,-4.5594,-4.5594,-4.5594,-4.5594,-4.5594,-4.5594,-4.5594,-4.5594,-4.5594,0.0,0.0,0.0,-4.5594,-4.3594,-4.0496,-4.0496,-4.0496,-4.0496,-4.0496,-4.0496,-4.0496,0.0,0.0,0.0,0.0,0.0,0.0,-2.2782,-2.3427,-2.4153,-2.5195,-2.5326,-2.5312,-2.5293,-2.5322,-2.524,-2.4998,0.0,0.0,0.0,0.0,0.0,0.0,0.0,0.0,0.0,0.0,-2.5874,-2.6883,-2.6641,-2.6598,0.0,0.0,-2.5718,-2.5428,0.0,0.0,0.0,0.0,0.0,0.0,0.0,0.0,0.0,0.0,0.0,0.0,0.0,0.0,0.0,0.0,0.0,-2.5308,-2.5308,-2.5308,-2.6442,-3.2288,-3.4778,-3.625,-3.8937,-4.041,-4.1191,-4.1191,-3.8574,-3.5098,-3.168,-2.9004,-2.6953,-2.5918,-2.5703,-2.6016,-2.7051,-2.7246,-2.8047,-3.0508,-3.293,-3.4492,-3.4492,-3.9551,-4.3633,-4.4668,-4.5683,-4.6308,0.0,-4.6308,-4.6308,0.0,0.0,0.0,0.0,-4.6308,-4.6308,-4.6308,-4.6308,-4.6136,-4.5814,-4.5669,-4.5594,-4.5594,-4.5594,-4.5594,-4.5594,-4.5594,-4.5594,-4.5594,0.0,0.0,0.0,-4.5594,-4.3594,-4.0496,-4.0496,-4.0496,-4.0496,-4.0496,-4.0496,-4.0496,0.0,0.0,0.0,0.0,0.0,0.0,0.0,0.0,-2.3597,-2.5188,-2.539,-2.5368,-2.5303,-2.5363,-2.5409,0.0,0.0,0.0,0.0,0.0,0.0,0.0,0.0,0.0,0.0,0.0,-2.5956,-2.7282,-2.8416,-2.8227,-2.6805,-2.6785,-2.6333,-2.5493,0.0,0.0,0.0,0.0,0.0,0.0,0.0,0.0,0.0,0.0,0.0,0.0,0.0,0.0,0.0,0.0,0.0,0.0,0.0,-2.5308,-2.5981,-2.9442,-3.308,-3.5996,-3.6035,-3.8574,-4.1191,-4.1191,-3.8574,-3.5098,-3.168,-3.0879,-2.9863,-2.6406,-2.5703,-2.6758,-3.0215,-3.0859,-3.0859,-3.0898,-3.0937,-3.0957,-3.0957,-3.3926,-3.7383,-4.084,-4.4238,-4.6308,-4.6308,-4.6308,0.0,0.0,0.0,0.0,0.0,-4.6308,-4.6308,-4.6308,-4.6308,-4.6308,-4.6289,-4.5825,-4.5594,-4.5594,-4.5594,-4.5594,-4.5594,-4.5594,-4.5594,0.0,0.0,0.0,0.0,-4.5594,-4.3594,-4.0496,-4.0496,-4.0496,-4.0496,-4.0496,-4.0496,-4.0496,0.0,0.0,0.0,0.0,0.0,0.0,0.0,0.0,-2.4,-2.446,-2.5038,-2.5372,-2.5303,0.0,0.0,0.0,0.0,0.0,0.0,0.0,0.0,0.0,0.0,0.0,0.0,0.0,-2.6057,-2.7303,-2.8524,-2.8973,-2.8616,-2.766,-2.7049,-2.6704,-2.5985,-2.566,0.0,0.0,0.0,0.0,0.0,0.0,0.0,0.0,0.0,0.0,0.0,0.0,0.0,0.0,0.0,0.0,0.0,0.0,0.0,-2.6596,-2.9419,-3.2739,-3.5306,-3.6816,-3.7656,-3.7656,-3.6816,-3.5033,-3.1388,-3.0749,-2.9902,-2.6426,-2.7598,-2.959,-3.0703,-3.0898,-3.0898,-3.0898,-3.0898,-3.1719,-3.4062,-3.7363,-3.9961,-4.1074,-4.4219,-4.6308,0.0,0.0,0.0,0.0,0.0,0.0,0.0,-4.6308,-4.6308,-4.6308,-4.6308,-4.6308,-4.6308,-4.6142,-4.6084,-4.6061,-4.575,-4.5594,-4.5594,-4.5594,0.0,0.0,0.0,0.0,0.0,-4.3074,-4.1477,-4.0496,-4.0496,-4.0496,-4.0496,-4.0496,-4.0496,-4.0496,0.0,0.0,0.0,0.0,0.0,0.0,0.0,0.0,-2.3536,-2.4102,-2.4635,-2.5066,0.0,0.0,0.0,0.0,0.0,0.0,0.0,0.0,0.0,0.0,0.0,0.0,0.0,-2.5579,-2.5948,-2.6702,-2.8807,-2.9901,-3.0012,-2.912,-2.8006,-2.6664,-2.5994,-2.5703,0.0,0.0,0.0,0.0,0.0,0.0,-2.5308,0.0,0.0,0.0,0.0,0.0,0.0,0.0,0.0,0.0,0.0,0.0,0.0,0.0,-2.6808,-2.9269,-3.2906,-3.2955,-3.1966,-3.1966,-3.1966,-3.169,-3.0639,-2.9563,-2.8172,-2.5999,-2.8297,-3.0758,-3.0878,-3.0898,-3.0898,-3.0898,-3.3086,-3.5527,-3.7656,-3.9824,-4.168,-4.2969,-4.5,0.0,0.0,0.0,0.0,0.0,0.0,0.0,0.0,-4.6308,-4.6308,-4.6308,-4.6308,-4.6308,-4.6308,-4.6308,-4.6308,-4.6308,-4.601,-4.5777,-4.5594,-4.5594,0.0,0.0,0.0,0.0,0.0,-4.192,-4.0496,-4.0496,-4.0496,-4.0496,-4.0496,-4.0496,-4.0496,-4.0496,0.0,0.0,0.0,0.0,0.0,0.0,0.0,0.0,0.0,0.0,0.0,-2.4535,0.0,0.0,0.0,0.0,0.0,0.0,0.0,0.0,0.0,0.0,0.0,0.0,0.0,-2.5703,-2.5703,-2.5703,-2.9199,-3.0898,-3.0898,-3.0898,-2.918,-2.6055,-2.5801,0.0,0.0,0.0,0.0,0.0,-2.5308,-2.5308,0.0,0.0,0.0,0.0,0.0,0.0,0.0,0.0,0.0,0.0,0.0,0.0,0.0,0.0,0.0,0.0,0.0,-2.7731,-2.5308,-2.5308,-2.5308,-2.6135,-2.9308,-2.7577,0.0,-2.5308,-2.7827,-3.0221,-3.0765,-3.0878,-3.0898,-3.0898,-3.6289,-4.0547,-4.0801,-4.125,-4.2734,0.0,-4.6308,0.0,0.0,0.0,0.0,0.0,0.0,0.0,0.0,-4.6308,-4.6308,-4.6308,-4.6308,-4.6308,-4.6308,-4.6308,-4.6308,-4.6308,-4.6308,-4.6078,-4.5648,-4.562,0.0,0.0,0.0,0.0,0.0,-4.1805,-4.0496,-4.0496,-4.0496,-4.0496,-4.0496,-4.0496,-4.0496,-4.0496,0.0,0.0,0.0,0.0,0.0,0.0,0.0,0.0,0.0,0.0,0.0,0.0,0.0,0.0,0.0,0.0,0.0,0.0,0.0,0.0,0.0,0.0,0.0,0.0,0.0,-2.5703,-2.5703,-2.5703,-2.9199,-3.0898,-3.0898,-3.0898,-3.0469,-2.9551,-2.6894,0.0,0.0,0.0,0.0,0.0,-2.5308,-2.5308,0.0,0.0,0.0,0.0,-2.5308,-2.5308,0.0,0.0,0.0,0.0,0.0,0.0,0.0,0.0,-2.5308,-2.5481,-2.6288,0.0,-2.5308,-2.5308,-2.5308,-2.5519,0.0,-2.5885,-2.5308,-2.5308,-2.5942,-2.731,-3.0017,-3.0724,-3.0898,-3.0898,-3.2266,-3.4238,-3.6855,-4.1777,-4.5391,-4.6191,-4.6308,-4.6308,0.0,0.0,0.0,0.0,0.0,0.0,0.0,0.0,-4.6308,-4.6308,-4.6308,-4.6308,-4.6308,-4.6308,-4.6308,-4.6308,-4.6308,-4.6245,-4.6128,-4.5764,0.0,0.0,0.0,0.0,-4.1631,-4.0823,-4.0496,-4.0496,-4.0496,-4.0496,-4.0496,-4.0496,-4.0496,-4.0496,0.0,0.0,0.0,0.0,0.0,0.0,0.0,0.0,0.0,0.0,0.0,0.0,0.0,0.0,0.0,0.0,0.0,0.0,0.0,0.0,0.0,0.0,0.0,0.0,0.0,-2.5703,-2.5703,-2.5703,-2.9199,-3.0898,-3.0898,-3.0898,-3.0898,-3.0742,-2.7266,0.0,0.0,0.0,0.0,0.0,-2.5308,0.0,0.0,0.0,0.0,0.0,-2.5308,-2.5308,0.0,-2.5308,-2.5308,-2.5308,0.0,0.0,0.0,0.0,-2.5308,-2.5308,-2.5308,-2.5308,-2.5308,-2.5308,-2.5308,-2.5308,-2.5308,-2.5308,-2.5308,-2.5308,-2.5308,-2.6346,-2.9769,-3.1838,-3.2496,-3.0931,-3.1996,-3.4265,-3.7889,-4.2949,-4.6308,-4.6308,-4.6308,0.0,0.0,0.0,0.0,0.0,0.0,0.0,0.0,0.0,-4.6308,-4.6308,-4.6308,-4.6308,-4.6308,-4.6308,-4.6308,-4.6308,-4.6308,-4.6308,-4.6289,-4.6034,0.0,0.0,0.0,0.0,-4.0496,-4.0496,-4.0496,-4.0496,-4.0496,-4.0496,-4.0496,-4.0496,-4.0496,-4.0496,0.0,0.0,0.0,0.0,0.0,0.0,0.0,0.0,0.0,0.0,0.0,0.0,0.0,0.0,0.0,0.0,0.0,0.0,0.0,0.0,0.0,0.0,0.0,-2.5703,-2.5703,-2.5703,-2.5957,-2.6484,-2.9453,-3.0898,-3.0898,-3.0898,-3.0625,-2.998,-2.7012,0.0,0.0,0.0,0.0,0.0,-2.5308,0.0,0.0,0.0,0.0,0.0,0.0,0.0,0.0,-2.5308,-2.5308,-2.5308,-2.5308,0.0,0.0,0.0,0.0,0.0,-2.5308,-2.5308,-2.5558,-2.6596,-2.6865,-2.6577,-2.5538,-2.5308,-2.5308,-2.5308,-2.5308,-2.6192,-2.9096,-3.2463,-3.4025,-3.1632,-3.413,0.0,-4.1355,-4.4378,-4.6195,-4.6195,-4.6267,0.0,0.0,0.0,0.0,0.0,0.0,0.0,0.0,0.0,0.0,-4.6308,-4.6308,-4.6308,-4.6308,-4.6308,-4.6308,-4.6308,-4.6308,-4.6308,-4.6308,-4.6308,-4.5791,0.0,0.0,0.0,-4.0496,-4.0496,-4.0496,-4.0496,-4.0496,-4.0496,-4.0496,-4.0496,-4.0496,-4.0496,0.0,0.0,0.0,0.0,0.0,0.0,0.0,0.0,0.0,0.0,0.0,0.0,0.0,0.0,0.0,0.0,0.0,0.0,0.0,0.0,0.0,0.0,0.0,-2.5703,-2.5703,-2.5703,-2.7148,-3.0098,-3.0644,-3.0898,-3.0898,-3.0898,-2.9336,-2.6465,-2.5937,-2.5703,-2.5703,0.0,0.0,-2.5308,-2.5308,0.0,0.0,0.0,0.0,0.0,0.0,0.0,0.0,-2.5308,-2.5308,-2.5308,-2.5308,0.0,0.0,0.0,0.0,0.0,-2.5308,-2.5308,-2.6692,-3.25,-3.3923,-3.2423,-2.6615,-2.5308,-2.5308,-2.5308,-2.5308,-2.5462,-2.6,-2.9099,-3.2388,-3.4756,-3.8055,-4.1401,0.0,0.0,-4.5711,-4.5711,0.0,0.0,0.0,0.0,0.0,0.0,0.0,0.0,0.0,0.0,0.0,-4.6308,-4.6308,-4.6308,-4.6308,-4.6308,-4.6308,-4.6308,-4.6308,-4.6308,-4.6308,-4.6308,-4.4685,0.0,0.0,-4.0496,-4.0496,-4.0496,-4.0496,-4.0496,-4.0496,-4.0496,-4.0496,-4.0496,-4.0496,-4.0496,0.0,0.0,0.0,0.0,0.0,0.0,0.0,0.0,0.0,0.0,0.0,0.0,0.0,0.0,0.0,0.0,0.0,0.0,0.0,0.0,0.0,0.0,-2.5703,-2.5703,-2.5703,-2.5703,-2.6484,-2.8086,-2.998,-3.1855,-3.3613,-3.1758,-3.0039,-2.8437,-2.6543,-2.5703,-2.5703,-2.5703,-2.5632,-2.5491,0.0,0.0,0.0,0.0,0.0,0.0,0.0,0.0,0.0,0.0,-2.5522,-2.5522,-2.5522,0.0,0.0,0.0,0.0,0.0,-2.5308,-2.6654,-2.925,-3.425,-3.4115,-3.1923,-2.8769,-2.8058,-2.8058,-2.8058,-2.8058,-2.8058,-2.8058,-3.113,-3.4697,-3.7914,-4.1548,-4.4425,-4.5795,-4.5987,-4.5987,0.0,0.0,0.0,0.0,0.0,0.0,0.0,0.0,0.0,0.0,0.0,0.0,0.0,-4.6308,-4.6308,-4.6308,-4.6308,-4.6308,-4.6308,-4.6308,-4.6308,-4.623,-4.4394,-4.2695,-4.1191,0.0,-4.0722,-4.0496,-4.0496,-4.0496,-4.0496,-4.0496,-4.0496,-4.0496,-4.0496,-4.0496,-4.0496,0.0,0.0,0.0,0.0,0.0,0.0,0.0,0.0,0.0,0.0,0.0,0.0,0.0,0.0,0.0,0.0,0.0,0.0,0.0,0.0,-2.5703,-2.5703,-2.5703,-2.5703,-2.5703,-2.5703,-2.6094,-2.6914,-2.959,-3.2246,-3.4746,-3.2129,-3.0469,-2.957,-2.6894,-2.5703,-2.5703,-2.5703,-2.5703,-2.5683,0.0,0.0,0.0,0.0,0.0,0.0,0.0,0.0,0.0,0.0,0.0,0.0,0.0,0.0,0.0,-2.5703,-2.5552,-2.5372,-2.5322,-2.7212,-2.9827,-3.2462,-3.2346,-3.1596,-3.1596,-3.1596,-3.1596,-3.1596,-3.1596,-3.1596,-3.1596,-3.4673,-3.7969,-4.0294,-4.3821,-4.6308,-4.6308,-4.6308,0.0,0.0,0.0,0.0,0.0,0.0,0.0,0.0,0.0,0.0,0.0,0.0,0.0,0.0,-4.6308,-4.6308,-4.6308,-4.6308,-4.6308,-4.6308,-4.6308,-4.5879,-4.5019,-4.2383,-4.1191,-4.1191,-4.1191,-4.1003,-4.066,-4.0552,-4.0496,-4.0496,-4.0496,-4.0496,-4.0496,-4.0496,-4.0496,-4.0496,0.0,0.0,0.0,0.0,0.0,0.0,0.0,0.0,0.0,0.0,0.0,0.0,0.0,0.0,0.0,0.0,0.0,0.0,0.0,0.0,-2.5703,-2.5703,-2.5703,-2.5703,-2.5703,-2.5703,-2.7285,-3.0527,-3.0781,-3.1035,-3.1269,-3.1016,-2.918,-2.6055,-2.5801,-2.5703,-2.5703,-2.5703,-2.5703,-2.5703,-2.5683,0.0,0.0,0.0,0.0,0.0,0.0,0.0,0.0,0.0,0.0,0.0,0.0,0.0,-2.5703,-2.5703,-2.5683,-2.5628,-2.5371,-2.5481,-2.5731,-2.5981,-3.0615,-3.5135,-3.5135,-3.5135,-3.5135,-3.5135,-3.5135,-3.5135,-3.5135,-3.8257,-4.0898,-4.1111,-4.4042,-4.6308,-4.6308,0.0,0.0,0.0,0.0,0.0,0.0,0.0,0.0,0.0,0.0,0.0,0.0,0.0,0.0,0.0,0.0,-4.6308,-4.6308,-4.6308,-4.6308,-4.6308,-4.6308,-4.4648,-4.1562,-4.1308,-4.1191,-4.1191,-4.1191,-4.1171,-4.1124,-4.0676,-4.0496,-4.0496,-4.0496,-4.0496,-4.0496,-4.0496,-4.0496,-4.0496,0.0,0.0,0.0,0.0,0.0,0.0,0.0,0.0,0.0,0.0,0.0,0.0,0.0,0.0,0.0,0.0,0.0,0.0,0.0,0.0,-2.5703,-2.5703,-2.5703,-2.5703,-2.5703,-2.7812,-2.957,-3.0898,-3.0898,-3.0898,-3.0859,-2.8672,-2.6953,-2.5703,-2.5703,-2.5703,-2.5703,-2.5703,-2.5703,-2.5703,-2.5703,-2.5703,0.0,0.0,0.0,0.0,0.0,0.0,0.0,0.0,-2.5703,-2.5703,-2.5703,-2.5703,-2.5703,-2.5703,-2.5703,-2.5682,-2.5587,-2.5421,-2.5308,-2.5308,-2.725,-2.9154,-2.9154,-3.4064,-3.8604,-3.8604,-3.8604,-3.7969,-3.5885,-3.6674,-3.8432,-4.0818,-4.4062,-4.6308,0.0,0.0,0.0,0.0,0.0,0.0,0.0,0.0,0.0,0.0,0.0,0.0,0.0,0.0,0.0,0.0,0.0,-4.6308,-4.6308,-4.4199,-4.3125,-4.3125,-4.3125,-4.2441,-4.1191,-4.1191,-4.1191,-4.1191,-4.1191,-4.1191,-4.1191,-4.1009,-4.0757,-4.0496,-4.0496,-4.0496,-4.0496,-4.0496,-4.0496,-4.0496,0.0,0.0,0.0,0.0,0.0,0.0,0.0,0.0,0.0,0.0,0.0,0.0,0.0,0.0,0.0,0.0,0.0,0.0,0.0,0.0,-2.5703,-2.5703,-2.5703,-2.5703,-2.5703,-2.8047,-2.9805,-3.0898,-3.0898,-3.0332,-2.9238,-2.7949,-2.7344,-2.7285,-2.6191,-2.5703,-2.5703,-2.5703,-2.5703,-2.5703,-2.5703,-2.5703,0.0,0.0,0.0,0.0,0.0,0.0,0.0,0.0,-2.5703,-2.5703,-2.5703,-2.5703,-2.5703,-2.5703,-2.5703,-2.5703,-2.5703,-2.5561,-2.5952,-2.8133,-2.7789,-2.7192,-2.8269,-3.4737,-4.0496,-4.0496,-4.0496,-3.9804,-3.7507,-3.6212,-3.6694,0.0,-4.3075,0.0,0.0,0.0,0.0,0.0,0.0,0.0,0.0,0.0,0.0,0.0,0.0,0.0,0.0,0.0,0.0,0.0,0.0,-4.4687,-4.4687,-4.2363,-4.1191,-4.1191,-4.1191,-4.1191,-4.1191,-4.1191,-4.1191,-4.1191,-4.1191,-4.1191,-4.1191,-4.1191,-4.0919,-4.0496,-4.0496,-4.0496,-4.0496,-4.0496,-4.0496,-4.0496,0.0,0.0,0.0,0.0,0.0,0.0,0.0,0.0,0.0,0.0,0.0,0.0,0.0,0.0,0.0,0.0,0.0,0.0,0.0,-2.5703,-2.5703,-2.5703,-2.5703,-2.5703,-2.5703,-2.5703,-2.7383,-3.0859,-3.0859,-2.9082,-2.5781,-2.9238,-3.0879,-3.0742,-2.7285,-2.5723,-2.5703,-2.5703,-2.5703,-2.5703,-2.5703,-2.5703,-2.5703,0.0,0.0,0.0,0.0,0.0,0.0,0.0,-2.5703,-2.5703,-2.5703,-2.5703,-2.5703,-2.5703,-2.5703,-2.5703,-2.5742,-2.5742,-2.7383,-3.4199,-3.3153,-3.1358,-3.4763,-3.813,-4.0496,-4.0496,-4.0496,-4.0496,-4.0458,-3.7757,0.0,-3.9958,-4.0896,0.0,0.0,0.0,0.0,0.0,0.0,0.0,0.0,0.0,0.0,0.0,0.0,0.0,0.0,0.0,0.0,0.0,0.0,0.0,-4.1191,-4.1191,-4.1191,-4.1191,-4.1191,-4.1191,-4.1191,-4.1191,-4.1191,-4.1191,-4.1191,-4.1191,-4.1191,-4.1191,-4.0922,-4.0504,-4.0496,-4.0477,-4.0458,-4.0458,-4.0477,-4.0496,0.0,0.0,0.0,0.0,0.0,0.0,0.0,0.0,0.0,0.0,0.0,0.0,0.0,0.0,0.0,0.0,0.0,0.0,0.0,-2.5703,-2.5703,-2.5703,-2.5703,-2.5703,-2.5703,-2.552,-2.6026,-2.7246,-2.7246,-2.6719,-2.5723,-2.6758,-2.8555,-3.0859,-2.9824,-2.8008,-2.5703,-2.5703,-2.5703,-2.5703,-2.5703,-2.5703,-2.5703,0.0,0.0,0.0,0.0,0.0,0.0,0.0,0.0,0.0,-2.5703,0.0,-2.5703,-2.5703,-2.5703,-2.623,-2.8691,-2.9355,-2.9258,-2.8867,-3.1572,-3.5254,-3.8727,-4.0009,-4.0496,-4.0496,-4.0496,-3.9785,-3.743,-3.8104,0.0,-4.0342,0.0,0.0,0.0,0.0,0.0,0.0,0.0,0.0,0.0,0.0,0.0,0.0,0.0,0.0,0.0,0.0,0.0,0.0,0.0,0.0,-4.1191,-4.1191,-4.1191,-4.1191,-4.1191,-4.1191,-4.1191,-4.1191,-4.1191,-4.1191,-4.1191,-4.1191,-4.1191,-4.1191,-4.1124,-4.0961,-4.0623,-3.9065,-3.6988,-3.6988,-3.8469,-4.0496,0.0,0.0,0.0,0.0,0.0,0.0,0.0,0.0,0.0,0.0,0.0,-2.5703,0.0,0.0,0.0,0.0,0.0,0.0,0.0,0.0,0.0,0.0,0.0,-2.5658,-2.5545,-2.5376,-2.5391,-2.5543,-2.5543,-2.5598,-2.5703,-2.5703,-2.7559,-3.084,-2.9453,-2.7676,-2.5703,-2.5703,-2.5703,-2.5703,-2.5703,-2.5703,-2.5703,0.0,0.0,0.0,0.0,0.0,0.0,0.0,0.0,0.0,-2.5703,-2.5703,-2.5977,-2.7363,-2.6777,-2.6152,-2.8262,-2.8828,-2.8652,-2.7949,-3.1914,-3.6914,-4.041,-4.0974,-4.0771,-4.0771,-4.0771,-4.0154,-3.8147,-3.9421,0.0,0.0,0.0,0.0,0.0,0.0,0.0,0.0,0.0,0.0,0.0,0.0,0.0,0.0,0.0,0.0,0.0,0.0,0.0,0.0,0.0,0.0,-4.1191,-4.1191,-4.1191,-4.1191,-4.1191,-4.1191,-4.1191,-4.1191,-4.1191,-4.1191,-4.1191,-4.041,-3.9121,-3.9121,-3.9121,-3.91,-3.8818,-3.7409,-3.55,-3.55,-3.6776,-3.8507,0.0,0.0,-2.2031,-2.5156,0.0,0.0,0.0,0.0,0.0,-2.5703,-2.5703,-2.5703,0.0,0.0,0.0,-2.5703,0.0,0.0,0.0,0.0,0.0,0.0,0.0,0.0,0.0,0.0,0.0,0.0,-2.5308,-2.5418,-2.5661,-2.5661,-2.7362,-3.0293,-2.7109,-2.5703,-2.5703,-2.5703,-2.5703,-2.5703,-2.5703,-2.5703,-2.5703,-2.5703,0.0,0.0,0.0,0.0,0.0,0.0,0.0,0.0,-2.5703,-2.5703,-2.6328,-2.9492,-2.8418,-2.6172,-2.6172,-2.6406,-2.7402,-3.0566,-3.3945,-3.7305,-4.0488,-4.1191,-4.1191,-4.1191,-4.1191,-4.1191,-4.1191,-4.1191,-4.1191,0.0,0.0,0.0,0.0,0.0,0.0,0.0,0.0,0.0,0.0,0.0,0.0,0.0,0.0,0.0,0.0,0.0,0.0,0.0,0.0,0.0,-4.1191,-4.1191,-4.1191,0.0,-4.1191,-4.1191,-4.1191,-4.1191,-4.1035,-4.0723,-4.0723,-3.8926,-3.5996,-3.5996,-3.5996,-3.5996,-3.5974,-3.5778,-3.55,-3.55,-3.55,-3.55,0.0,0.0,-2.4844,-2.5566,0.0,0.0,0.0,0.0,-2.5703,-2.5703,-2.5703,-2.5703,-2.5703,-2.5703,0.0,-2.5703,-2.5703,0.0,0.0,0.0,0.0,0.0,0.0,0.0,0.0,0.0,0.0,0.0,0.0,-2.5321,-2.5379,-2.5379,-2.5897,-2.6797,-2.6035,-2.5703,-2.5703,-2.5703,-2.5703,-2.5703,-2.5703,-2.5703,-2.5703,-2.5703,-2.5703,0.0,0.0,0.0,0.0,0.0,0.0,0.0,-2.5703,-2.5703,-2.5859,-2.6602,-2.8223,-2.9785,-2.9785,-3.1738,-3.3965,-3.4726,-3.7519,-4.0273,-4.1035,-4.1191,-4.1191,-4.1191,-4.1191,-4.1191,-4.1191,-4.1191,0.0,0.0,0.0,0.0,0.0,0.0,0.0,0.0,0.0,0.0,0.0,0.0,0.0,0.0,0.0,0.0,0.0,0.0,0.0,0.0,0.0,-4.1191,-4.1191,-4.1191,-4.1191,0.0,-4.1191,-4.1191,-4.1191,-4.1191,-3.9707,-3.7129,-3.7129,-3.6699,-3.5996,-3.5996,-3.5996,-3.5975,-3.5714,-3.5552,-3.55,-3.55,-3.55,-3.55,0.0,0.0,0.0,0.0,0.0,0.0,0.0,0.0,-2.5703,-2.5703,-2.5703,-2.5703,-2.5703,-2.5703,0.0,0.0,-2.5703,-2.5703,0.0,0.0,0.0,0.0,0.0,0.0,0.0,0.0,0.0,0.0,-2.5308,-2.5308,-2.5308,-2.5308,-2.5441,-2.5703,-2.5703,-2.5703,-2.5703,-2.5703,-2.5703,-2.5703,-2.5703,-2.5703,-2.5703,-2.5703,-2.5703,-2.5703,-2.5703,0.0,0.0,0.0,0.0,0.0,0.0,0.0,-2.5703,-2.5703,-2.6992,-2.8769,-3.0449,-3.3398,-3.5996,-3.5996,-3.8613,-4.0762,-3.9082,-3.8711,-3.8711,-3.8711,-4.0039,-4.1191,-4.1191,0.0,0.0,0.0,0.0,0.0,0.0,0.0,0.0,0.0,0.0,0.0,0.0,0.0,0.0,0.0,0.0,0.0,0.0,0.0,0.0,0.0,-4.0855,-4.0855,-4.0855,-4.1098,-4.1191,-4.1191,-4.1191,-4.0332,-3.8711,-3.8711,-3.7715,-3.5996,-3.5996,-3.5996,-3.5996,-3.5996,-3.5996,-3.5974,-3.5635,-3.55,-3.55,-3.55,-3.55,-3.55,0.0,0.0,0.0,0.0,0.0,0.0,0.0,0.0,0.0,-2.5703,-2.5703,-2.5703,-2.5703,-2.5176,-2.4824,0.0,0.0,0.0,-2.5664,0.0,0.0,0.0,0.0,0.0,0.0,0.0,0.0,0.0,-2.5308,-2.5308,-2.5308,-2.5308,-2.5758,-2.6602,-2.6602,-2.6269,-2.5703,-2.5703,-2.5703,-2.5703,-2.5703,-2.5703,-2.5644,-2.5039,-2.4824,-2.4902,-2.5488,-2.5703,-2.5703,-2.5703,0.0,0.0,0.0,0.0,-2.5703,-2.5703,-2.5703,-2.6328,-2.9219,-3.2949,-3.5996,-3.5996,-3.8164,-3.9551,-3.666,-3.5996,-3.5996,-3.5996,-3.8769,-4.1191,0.0,0.0,0.0,0.0,0.0,0.0,0.0,0.0,0.0,0.0,0.0,0.0,0.0,0.0,0.0,0.0,0.0,0.0,-4.1191,0.0,-4.0976,-4.05,-4.0496,-4.0496,-4.0496,-4.0312,-4.0511,-4.1076,-4.0545,-3.8789,-3.5996,-3.5996,-3.5996,-3.5996,-3.5996,-3.5996,-3.5996,-3.5996,-3.5996,-3.5975,-3.5693,-3.5599,-3.5581,-3.5528,-3.55,-3.55,0.0,0.0,0.0,0.0,0.0,0.0,0.0,0.0,0.0,0.0,-2.5703,-2.5703,-2.5703,-2.3066,-2.1289,-2.1289,-2.1289,-2.2539,0.0,0.0,0.0,0.0,0.0,0.0,0.0,0.0,0.0,-2.5308,-2.5308,-2.5308,-2.5308,-2.5308,-2.7052,-3.0215,-3.0215,-2.8535,-2.5703,-2.5703,-2.5703,-2.5703,-2.5703,-2.5703,-2.5371,-2.2402,-2.1289,-2.168,-2.4648,-2.5703,-2.5703,-2.5703,-2.5703,0.0,0.0,0.0,-2.5703,-2.5703,-2.5703,-2.5801,-2.6269,-3.1094,-3.5996,-3.5996,-3.6348,-3.6562,-3.6113,-3.5996,-3.5996,0.0,-3.8769,-4.1191,0.0,0.0,0.0,0.0,0.0,0.0,0.0,0.0,0.0,0.0,0.0,0.0,0.0,0.0,0.0,0.0,0.0,0.0,0.0,-4.1191,-4.0976,-4.05,-4.0496,-4.0496,-4.0496,-3.7688,-3.7719,-4.0558,-3.7936,-3.6445,-3.5996,-3.5996,-3.5996,-3.5996,-3.5996,-3.5996,-3.5996,-3.5996,-3.5996,-3.5996,-3.5951,-3.5928,-3.5895,-3.5612,-3.55,-3.55,0.0,0.0,0.0,0.0,0.0,0.0,0.0,0.0,0.0,0.0,0.0,-2.5703,-2.5703,-2.2656,-2.0605,-2.0605,-2.0605,0.0,0.0,0.0,0.0,0.0,0.0,0.0,0.0,0.0,0.0,-2.25,-2.4385,-2.5308,-2.5385,-2.9212,-2.9928,-2.7988,-2.7988,-2.7148,-2.5703,-2.5703,-2.459,-2.2832,-2.2832,-2.2832,-2.2676,-2.1172,-2.0605,-2.0801,-2.2305,-2.2832,-2.3144,-2.5059,-2.5703,-2.5703,-2.5703,0.0,0.0,0.0,-2.5703,-2.5703,-2.5703,-2.9336,-3.3594,-3.5527,-3.5996,-3.5996,-3.5996,-3.5996,-3.5996,-3.5996,-3.7226,0.0,0.0,0.0,0.0,0.0,0.0,0.0,0.0,0.0,0.0,0.0,0.0,0.0,0.0,0.0,0.0,0.0,0.0,-3.8281,-3.8281,-3.8281,-3.8109,-3.7702,-3.77,-3.77,-3.77,-3.6231,-3.6325,-3.7958,-3.6627,-3.5996,-3.5996,-3.5996,-3.5996,-3.5996,-3.5996,-3.5996,-3.5996,-3.5996,-3.5996,-3.5996,-3.5996,-3.5996,-3.5953,-3.5625,-3.55,-3.55,0.0,0.0,0.0,0.0,0.0,0.0,0.0,0.0,0.0,0.0,0.0,-2.5703,-2.5703,0.0,0.0,0.0,-2.0605,0.0,0.0,0.0,0.0,0.0,0.0,0.0,0.0,0.0,-2.0308,-2.0308,-2.3654,-2.4865,-2.4173,-3.1091,-3.2182,-2.8281,-2.7402,-2.6523,-2.5703,-2.5703,-2.373,-2.0605,-2.0605,-2.0605,-2.0898,-2.3516,-2.2871,-2.0605,-2.0605,-2.0605,-2.0996,-2.3535,-2.498,-2.5703,-2.5703,-2.5703,0.0,0.0,0.0,-2.459,-2.5469,-2.8242,-3.1504,-3.4062,-3.5351,-3.5996,-3.5996,-3.5996,-3.5996,0.0,0.0,0.0,0.0,0.0,0.0,0.0,0.0,0.0,0.0,0.0,0.0,0.0,0.0,0.0,0.0,0.0,0.0,0.0,0.0,-3.5996,-3.5996,-3.5996,-3.5889,-3.5621,-3.5534,-3.55,-3.55,-3.55,-3.5625,-3.5862,-3.5953,-3.5996,-3.5996,-3.5996,-3.5996,-3.5996,-3.5996,-3.5996,-3.5996,-3.5996,-3.5996,-3.5996,-3.5996,-3.5996,-3.5974,-3.5725,-3.557,-3.55,0.0,0.0,0.0,0.0,0.0,0.0,0.0,0.0,0.0,0.0,0.0,-2.5703,-2.5703,-2.5547,-2.4121,-2.0879,-2.0605,0.0,0.0,0.0,0.0,0.0,0.0,0.0,0.0,-2.2019,-2.0308,-2.0308,-2.3654,-2.3673,-2.0723,-2.7818,-3.2695,-3.5312,-3.207,-2.8789,-2.5703,-2.5703,-2.373,-2.0605,-2.0605,-2.0605,-2.168,-3.1465,-2.9121,-2.0605,-2.0605,-2.0605,-2.0625,-2.0801,-2.3027,-2.5703,-2.5703,-2.5703,-2.5703,0.0,0.0,0.0,-2.4824,-2.8242,-3.0937,-3.1113,-3.3594,-3.5996,-3.5996,0.0,-3.5996,0.0,0.0,0.0,0.0,0.0,0.0,0.0,0.0,0.0,0.0,0.0,0.0,0.0,0.0,0.0,0.0,0.0,0.0,0.0,0.0,-3.5996,-3.5996,-3.5996,-3.5996,-3.5975,-3.5669,-3.55,-3.55,-3.55,-3.552,-3.5528,-3.5847,-3.5996,-3.5996,-3.5996,-3.5996,-3.5996,-3.5996,-3.5996,-3.5996,-3.5996,-3.5996,-3.5996,-3.5996,-3.5996,-3.5996,-3.5976,-3.5765,-3.55,0.0,0.0,0.0,0.0,0.0,0.0,0.0,0.0,0.0,0.0,0.0,0.0,0.0,-2.5703,-2.4316,-2.0898,-2.0605,0.0,0.0,0.0,0.0,0.0,0.0,0.0,0.0,-2.2019,-2.0308,-2.0308,-2.15,-2.2672,-2.3872,-2.8669,-3.1543,-3.2578,-2.9101,-2.8105,-2.9043,-2.9043,-2.7031,-2.3867,-2.3867,-2.5215,-2.7617,-3.1328,-3.1797,-3.0195,-2.8008,-2.5762,-2.3867,-2.3867,-2.4687,-2.5703,-2.5703,-2.4199,-2.2422,-2.2422,-2.1562,-2.1348,-2.4766,-2.6602,-2.7559,-2.7559,-3.0176,-3.2734,-3.2734,-3.4414,-3.5996,-3.5996,0.0,0.0,0.0,0.0,0.0,0.0,0.0,0.0,0.0,0.0,0.0,0.0,0.0,0.0,0.0,0.0,0.0,0.0,0.0,0.0,-3.5996,-3.5996,-3.5996,-3.5996,-3.5889,-3.5722,-3.5507,-3.55,-3.5618,-3.5829,-3.595,-3.5996,-3.5996,-3.5996,-3.5996,-3.5996,-3.5996,-3.5996,-3.5996,-3.5996,-3.5996,-3.5996,-3.5996,-3.5996,-3.5996,-3.5996,-3.58,-3.55,0.0,0.0,0.0,-2.557,0.0,-2.5598,-2.5683,-2.2793,-2.0605,-2.0605,0.0,0.0,0.0,0.0,-2.3066,-2.0801,-2.0605,-2.0605,-2.0605,0.0,0.0,0.0,0.0,0.0,0.0,-2.3161,-2.1423,-2.0308,-2.0308,-2.152,-2.3954,-2.7497,-2.9141,-2.9043,-2.6738,-2.6992,-2.9141,-2.9141,-2.7812,-2.5703,-2.5703,-2.7793,-3.1035,-3.2168,-3.3301,-3.4141,-3.3027,-3.1113,-2.8809,-2.6484,-2.5703,-2.5703,-2.5703,-2.3359,-2.0605,-2.0605,-2.0605,-2.1348,-2.4766,-2.4863,-2.4258,-2.541,-2.7441,-2.9453,-3.0625,-3.2656,-3.4609,0.0,0.0,0.0,0.0,0.0,0.0,0.0,0.0,0.0,0.0,0.0,0.0,0.0,0.0,0.0,0.0,0.0,0.0,0.0,0.0,0.0,-3.5996,-3.5996,-3.5996,-3.5996,-3.5996,-3.5841,-3.5507,-3.55,-3.5674,-3.5996,-3.5996,-3.5996,-3.5996,-3.5996,-3.5996,-3.5996,-3.5996,-3.5996,-3.5996,-3.5996,-3.5996,-3.5996,-3.5996,-3.5996,-3.5996,-3.5996,-3.5855,-3.565,-2.5703,-2.5683,-2.5603,-2.5352,-2.5308,-2.5383,-2.5657,-2.2871,-2.0742,-2.0742,0.0,0.0,0.0,0.0,0.0,-2.0605,-2.0605,-2.0605,-2.0605,-2.0605,0.0,0.0,0.0,0.0,-2.5625,-2.5444,-2.3676,-2.0308,-2.0308,-2.0308,-2.0396,-2.3901,-2.5547,-2.5547,-2.5644,-2.5644,-2.5566,-2.5664,-2.5703,-2.5703,-2.5703,-2.7793,-3.1269,-3.459,-3.3848,-3.1465,-3.4687,-3.5918,-3.498,-2.8262,-2.5937,-2.582,-2.5605,-2.3262,-2.0605,-2.0605,-2.0605,-2.1348,0.0,0.0,0.0,-2.4727,-2.5703,0.0,-3.0,0.0,-3.1719,0.0,0.0,0.0,0.0,0.0,0.0,0.0,0.0,0.0,0.0,0.0,0.0,0.0,0.0,0.0,0.0,0.0,0.0,0.0,0.0,-3.5996,-3.5996,-3.5996,-3.5996,-3.5996,-3.5996,-3.5845,-3.5521,-3.5515,-3.5687,-3.5996,-3.5996,-3.5957,-3.5859,-3.5859,-3.5859,-3.5859,-3.5859,-3.5918,-3.5996,-3.5996,-3.5996,-3.5996,-3.5996,-3.5996,-3.5996,-3.5996,-3.5996,-3.5952,-2.5703,-2.5545,-2.5383,-2.5313,-2.5308,-2.5336,-2.5402,-2.4765,-2.4297,0.0,0.0,0.0,-2.5703,-2.4863,-2.3281,-2.082,-2.0605,-2.0605,-2.0605,-2.0605,-2.0605,-2.0605,-2.0605,-2.2207,-2.5625,-2.5632,-2.3916,-2.0523,-2.0523,-2.0523,-2.0543,-2.1541,-2.2012,-2.2129,-2.4609,-2.4336,-2.2168,-2.4648,-2.5703,-2.5703,-2.5703,-2.7793,-3.0996,-3.1953,-3.3262,-3.4394,-3.2851,-3.3906,-3.5703,-3.3789,-3.1504,-2.8594,-2.3594,-2.1367,-2.0605,-2.0605,-2.0605,-2.1348,-2.4766,0.0,0.0,0.0,0.0,0.0,0.0,0.0,0.0,0.0,0.0,0.0,0.0,0.0,0.0,0.0,0.0,0.0,0.0,0.0,0.0,0.0,0.0,0.0,0.0,0.0,0.0,0.0,-3.5996,-3.5996,-3.5996,-3.5996,-3.5996,-3.5996,-3.5996,-3.5953,-3.5857,-3.5855,-3.5918,-3.5996,-3.5996,-3.4707,-3.2305,-3.2305,-3.2305,-3.2305,-3.2305,-3.3711,-3.5996,-3.5996,-3.5996,-3.5996,-3.5996,-3.5996,-3.5996,-3.5996,-3.5996,-3.5996,-2.5537,-2.5413,-2.5308,-2.5308,-2.5308,-2.5308,-2.5308,-2.5428,-2.5566,0.0,0.0,0.0,-2.5703,-2.5703,-2.4902,-2.2891,-2.2734,-2.2129,-2.0684,-2.0605,-2.0605,-2.0605,-2.0605,-2.2207,-2.5625,-2.5703,-2.4727,-2.2734,-2.1309,-2.0605,-2.0605,-2.0605,-2.0605,-2.0684,-2.2676,-2.2461,-2.082,-2.4258,-2.5703,-2.582,-2.7285,-2.8223,-2.9043,-3.1934,-3.4258,-3.5742,-3.373,-3.4316,-3.5996,-3.5996,-3.2754,-2.8027,-2.4004,-2.2734,-2.2734,-2.2734,-2.2734,-2.3164,-2.5156,-2.4258,-2.2734,-2.2734,0.0,0.0,0.0,-2.5703,0.0,0.0,0.0,0.0,0.0,0.0,0.0,0.0,0.0,0.0,0.0,0.0,0.0,0.0,0.0,0.0,0.0,0.0,0.0,0.0,-3.5996,-3.5371,-3.3945,-3.3867,-3.3867,-3.3867,-3.3867,-3.3867,-3.3867,-3.3867,-3.3867,-3.3867,-3.3867,-3.2832,-3.0898,-3.0898,-3.0898,-3.0898,-3.0898,-3.2031,-3.3867,-3.3867,-3.4707,-3.5996,-3.5996,-3.5996,-3.5996,-3.5996,-3.5996,-3.5996,0.0,-2.5308,-2.5308,-2.5308,-2.5308,-2.5308,-2.5308,-2.5308,-2.5399,0.0,-2.5683,-2.5859,-2.623,-2.5937,-2.5703,-2.5703,-2.5703,-2.4414,-2.1367,-2.0801,-2.0605,-2.0605,-2.0605,-2.2012,-2.5078,-2.5508,-2.5703,-2.5703,-2.2285,-2.0605,-2.0605,-2.0605,-2.0605,-2.0605,-2.0605,-2.0605,-2.082,-2.4258,-2.5488,-2.5449,-2.8926,-2.8926,-2.7519,-3.3652,-3.5996,-3.5996,-3.5996,-3.5996,-3.5996,-3.5996,-3.168,-2.6211,-2.582,-2.5703,-2.5703,-2.5703,-2.5703,-2.5703,-2.5703,-2.5703,-2.5703,-2.5703,-2.5703,0.0,-2.5703,-2.5703,-2.5703,0.0,0.0,0.0,0.0,0.0,0.0,0.0,0.0,0.0,0.0,0.0,0.0,0.0,0.0,0.0,0.0,-3.5548,-3.5953,-3.5996,-3.5644,-3.4101,-3.1055,-3.0898,-3.0898,-3.0898,-3.0898,-3.0898,-3.0898,-3.0898,-3.0898,-3.0898,-3.0898,-3.0898,-3.0898,-3.0898,-3.0898,-3.0898,-3.0898,-3.0898,-3.0898,-3.0898,-3.2695,-3.5469,-3.5859,-3.5996,-3.5996,-3.5996,-3.5996,-3.5996,-2.5308,-2.5308,-2.5308,-2.5308,-2.5308,-2.5308,-2.5308,-2.5308,-2.5322,-2.5375,-2.5561,-2.6777,-2.957,-2.7383,-2.5703,-2.5703,-2.5703,-2.543,-2.4746,-2.2129,-2.0605,-2.0605,-2.0605,-2.0918,-2.1582,-2.4297,-2.5703,-2.5703,-2.2285,-2.0605,-2.0605,-2.0605,-2.0605,-2.0605,-2.0605,-2.0605,-2.082,-2.4258,-2.4102,-2.1894,-2.5332,-2.9648,-3.4141,-3.5488,-3.5996,-3.5996,-3.5996,-3.5996,-3.5996,-3.5996,-3.3281,-2.9394,-2.6582,-2.5703,-2.5703,-2.5703,-2.5703,-2.5703,-2.5703,-2.5703,-2.5703,-2.5703,-2.5703,0.0,-2.5703,-2.5703,-2.5703,0.0,0.0,0.0,0.0,0.0,0.0,0.0,0.0,0.0,0.0,0.0,0.0,0.0,0.0,0.0,0.0,-3.395,-3.571,-3.5975,-3.3457,-3.1601,-3.0937,-3.0898,-3.0898,-3.0898,-3.0898,-3.0898,-3.0898,-3.0898,-3.0898,-3.0898,-3.0898,-3.0898,-3.0898,-3.0898,-3.0898,-3.0898,-3.0898,-3.0898,-3.0898,-3.0898,-3.1289,-3.2168,-3.4922,-3.5996,-3.5996,-3.5996,-3.5996,-3.5996,-2.5308,-2.5308,-2.5308,-2.5308,-2.5308,-2.5865,-2.7577,-2.7846,-2.7231,-2.5519,-2.7045,-2.8965,-3.0703,-2.9336,-2.7598,-2.5859,-2.5703,-2.5703,-2.5703,-2.25,-2.0605,-2.0605,-2.0605,-2.0605,-2.0605,-2.2285,-2.3984,-2.5703,-2.3984,-2.2266,-2.0605,-2.0605,-2.0605,-2.0605,-2.0605,-2.0605,-2.0703,-2.2422,-2.3144,-2.3281,-2.5019,0.0,-3.5996,-3.5996,-3.5996,-3.5996,-3.5996,-3.5996,-3.5996,-3.5996,-3.4863,0.0,-3.1387,-2.8476,-2.6035,0.0,-2.7051,-2.5703,-2.5703,-2.5703,-2.6113,-2.7851,0.0,0.0,0.0,-2.6953,-2.5703,-2.5703,0.0,0.0,0.0,0.0,0.0,0.0,0.0,0.0,0.0,0.0,0.0,0.0,0.0,0.0,0.0,0.0,-3.3093,-3.3436,-3.1875,-3.0898,-3.0898,-3.0898,-3.0898,-3.0898,-3.0898,-3.0898,-3.0898,-3.0898,-3.0898,-3.0898,-3.0898,-3.0898,-3.0898,-3.0898,-3.0898,-3.0898,-3.0898,-3.0898,-3.0898,-3.0898,-3.0898,-3.1074,-3.2793,-3.3457,-3.3652,-3.5371,-3.5996,-3.5762,-2.5308,-2.5308,-2.5308,-2.5308,-2.5846,-2.7,-2.9096,-2.9981,-2.9654,-2.7538,-2.9335,-3.083,-3.0898,-3.0293,-2.8769,-2.5957,-2.5703,-2.5703,-2.5703,-2.3125,-2.1582,-2.1582,-2.0957,-2.0605,-2.0605,-2.125,-2.293,-2.5703,-2.5703,-2.3945,-2.0605,-2.0605,-2.0605,-2.0625,-2.1289,-2.1582,-2.1582,-2.1582,-2.3184,-2.5703,0.0,-2.9844,-3.5996,-3.5996,-3.5996,-3.5996,-3.5996,-3.5996,-3.5996,-3.5996,-3.5117,-3.4121,-3.4805,-3.1641,0.0,0.0,-2.8437,-2.5703,-2.5703,-2.5703,-2.6387,-2.9199,0.0,-2.7266,0.0,0.0,0.0,-2.5703,0.0,0.0,0.0,0.0,0.0,0.0,0.0,0.0,0.0,0.0,0.0,0.0,0.0,0.0,0.0,0.0,-3.0535,-3.0878,-3.0898,-3.0898,-3.0898,-3.0898,-3.0898,-3.0898,-3.0898,-3.0898,-3.0898,-3.0898,-3.0898,-3.0898,-3.0898,-3.0898,-3.0898,-3.0898,-3.0898,-3.0898,-3.0898,-3.0898,-3.0898,-3.0898,-3.0898,-3.0898,-3.0898,-3.0898,-3.123,-3.4004,-3.5019,-3.4629,-2.5308,-2.5308,-2.5308,-2.5308,-2.7808,-2.8923,-2.6288,-2.8442,-3.1346,-3.4,-3.2079,-3.0576,-3.0877,-2.8144,-2.6133,-2.5723,-2.5703,-2.5703,-2.5703,-2.5332,-2.5117,-2.5117,-2.2227,-2.0605,-2.0605,-2.3574,-2.5312,-2.5703,-2.5703,-2.3945,-2.0605,-2.0605,-2.0605,-2.0723,-2.3769,-2.5117,-2.5117,-2.5117,-2.5332,0.0,-2.5703,-2.9844,0.0,-3.5996,-3.5996,-3.5996,-3.5996,-3.5996,-3.5996,0.0,-3.1934,-2.7402,0.0,-3.3027,-3.4316,-3.168,0.0,0.0,0.0,0.0,0.0,0.0,-2.832,0.0,0.0,0.0,-2.5703,-2.5703,0.0,0.0,0.0,0.0,0.0,0.0,0.0,0.0,0.0,0.0,0.0,0.0,0.0,0.0,0.0,0.0,0.0,-3.0878,-3.0898,-3.0898,-3.0898,-3.0898,-3.0898,-3.0898,-3.0898,-3.0898,-3.0898,-3.0898,-3.0898,-3.0898,-3.0898,-3.0898,-3.0898,-3.0898,-3.0898,-3.0898,-3.0898,-3.0898,-3.0898,-3.0898,-3.0898,-3.0898,-3.0898,-3.0898,-3.0957,-3.1348,-3.1484,-3.1426,-2.5308,-2.5308,-2.5308,-2.5308,-2.65,-2.6962,-2.5519,-2.6519,-2.8673,-3.2096,-3.1288,-3.1212,-3.3339,-3.2448,-3.0809,-2.8618,-3.2027,-3.2701,-2.8964,-2.6816,-2.5703,-2.5703,-2.4336,-2.3555,-2.3555,-2.3027,-2.3711,-2.5703,-2.5703,0.0,0.0,-2.0605,-2.0605,-2.0742,-2.418,-2.5703,-2.5703,-2.5703,-2.5703,0.0,0.0,0.0,0.0,-3.1543,-3.2519,-3.5996,-3.5996,-3.5996,-3.5996,0.0,-3.1406,0.0,0.0,0.0,0.0,-3.0723,0.0,0.0,0.0,0.0,0.0,0.0,0.0,0.0,-2.6035,0.0,-2.5703,0.0,0.0,0.0,0.0,0.0,0.0,0.0,0.0,0.0,0.0,0.0,0.0,0.0,0.0,0.0,0.0,0.0,0.0,0.0,0.0,-3.0898,-3.0898,-3.0898,-3.0898,-3.0898,-3.0898,-3.0898,-3.0898,-3.0898,-3.0898,-3.0898,-3.0898,-3.0898,-3.0898,-3.0898,-3.0898,-3.0898,-3.0898,-3.0898,-3.0898,-3.0898,-3.0898,-3.0898,-3.0898,-3.0898,-3.0898,-3.0898,-3.0898,-3.0898,-2.5308,-2.5308,-2.5308,-2.5308,-2.5308,-2.5308,-2.5308,-2.6096,-2.8269,-3.2596,-3.2365,-3.2385,-3.3923,-3.5974,-3.6184,-3.3595,-3.6903,-3.7145,-3.2461,-2.8118,-2.5703,-2.5703,-2.5703,-2.5703,-2.5703,-2.3262,-2.2754,-2.4297,-2.5234,-2.3945,0.0,-2.0605,-2.1094,-2.2109,-2.459,-2.623,-2.7129,-2.7129,-2.6562,-2.5918,-2.8457,-3.1523,-3.416,-3.0078,-3.1055,-3.4726,-3.5664,-3.5996,-3.5859,-3.4922,-3.1269,0.0,-2.5996,0.0,-2.7617,0.0,0.0,0.0,-3.0898,0.0,0.0,0.0,0.0,0.0,0.0,0.0,0.0,0.0,0.0,0.0,0.0,0.0,-2.5703,-2.5703,0.0,0.0,0.0,0.0,0.0,0.0,0.0,0.0,0.0,0.0,0.0,0.0,0.0,0.0,-2.9473,-3.0371,-3.0898,-3.0898,-3.0898,-3.0898,-3.0898,-3.0898,-3.0898,-3.0898,-3.0898,-3.0898,-3.0898,-3.0898,-3.0898,-3.0898,-3.0898,-3.0898,-3.0898,-3.0898,-3.0898,-3.0898,-3.0898,-3.0898,-3.0898,-3.0898,-3.0898,-3.0898,-2.5308,-2.5308,-2.5308,-2.5308,-2.5308,-2.5308,-2.5308,-2.8115,-3.2635,-3.9304,-3.7353,-3.4115,-3.0904,-3.6412,-4.0486,-4.0816,-3.7664,-3.5565,-3.5373,-2.9287,-2.5703,-2.5703,-2.5703,-2.5703,-2.5703,-2.5586,-2.3965,-2.0762,-2.4082,-2.3945,-2.0605,-2.0605,-2.2363,-2.5547,-2.5644,-2.7578,-3.0723,-3.0723,-2.8789,-2.5703,-2.582,-2.7949,-3.1406,0.0,-3.375,-3.1504,-3.4805,0.0,0.0,-3.2187,-3.0918,0.0,0.0,0.0,0.0,0.0,0.0,0.0,0.0,0.0,0.0,-3.0898,0.0,0.0,0.0,0.0,-2.5703,0.0,0.0,0.0,0.0,-2.5703,-2.5703,-2.5703,-2.5703,0.0,0.0,0.0,0.0,0.0,0.0,0.0,0.0,0.0,0.0,0.0,0.0,0.0,-2.5879,-2.9062,-3.0898,-3.0898,-3.0898,-3.0898,-3.0898,-3.0898,-3.0898,-3.0898,-3.0898,-3.0898,-3.0898,-3.0898,-3.0898,-3.0898,-3.0898,-3.0898,-3.0898,-3.0898,-3.0898,-3.0898,-3.0898,-3.0898,-3.0898,-3.0898,-3.0898,-3.0898,-2.5308,-2.5308,-2.5308,-2.5308,-2.5308,-2.6058,-2.8327,-3.1577,-3.4596,-3.6892,-3.6192,-3.5058,-3.3904,-3.7796,-4.0561,-4.0731,-3.9548,-3.7873,-3.5654,-3.3423,-3.0231,-2.5898,-2.7697,-2.7821,-2.5742,-2.5703,-2.5137,-2.3984,-2.5137,-2.5117,-2.3984,-2.3984,-2.459,-2.5605,-2.332,-2.5527,-3.0898,-3.0898,0.0,0.0,0.0,-2.9844,-3.1035,0.0,0.0,-3.1055,-3.2207,-3.2617,0.0,-3.1289,-3.0898,-3.0684,-2.9512,-2.9941,-3.0898,-3.0898,-3.0898,0.0,0.0,0.0,-3.0898,-3.0898,0.0,0.0,0.0,0.0,0.0,0.0,0.0,0.0,0.0,-2.5703,-2.5703,-2.5703,-2.5703,-2.5703,0.0,0.0,0.0,0.0,0.0,0.0,0.0,0.0,0.0,0.0,0.0,0.0,0.0,-2.6816,-2.8516,-3.082,-3.0898,-3.0898,-3.0898,-3.0898,-3.0898,-3.0898,-3.0898,-3.0898,-3.0898,-3.0898,-3.0898,-3.0898,-3.0898,-3.0898,-3.0898,-3.0898,-3.0898,-3.0898,-3.0898,-3.0898,-3.0898,-3.0898,-3.0898,-3.0898,-2.5308,-2.5308,-2.5308,-2.5308,-2.5308,-2.6442,-2.9885,-3.3308,-3.55,0.0,-3.6538,0.0,-3.7276,0.0,-4.0496,0.0,-4.0496,-3.9592,-3.743,-3.6154,-3.3127,-2.7773,-3.054,-3.0748,-2.7617,-2.6328,-2.5703,-2.5703,-2.5703,-2.5703,-2.5703,-2.5703,-2.5703,-2.5605,-2.3398,-2.4883,-2.9121,-3.0371,-3.0831,0.0,0.0,-3.0799,0.0,0.0,-3.0898,-3.0898,0.0,-3.0898,-3.0898,-3.0898,-3.0898,-3.0898,-3.0898,-3.0898,-3.0898,-3.0898,-3.0898,-3.0898,-3.0898,-3.0898,0.0,-3.0898,-2.9219,0.0,-2.5977,0.0,0.0,0.0,0.0,0.0,0.0,-2.5703,-2.5703,-2.5703,-2.5703,-2.5703,0.0,-2.5703,0.0,0.0,0.0,0.0,0.0,0.0,-2.5703,-2.5703,0.0,0.0,0.0,0.0,-2.7305,-3.0781,-3.0898,-3.0898,-3.0898,-3.0898,-3.0898,-3.0898,-3.0898,-3.0898,-3.0898,-3.0898,-3.0898,-3.0898,-3.0898,-3.0898,-3.0898,-3.0898,-3.0898,-3.0898,-3.0898,-3.0898,-3.0898,-3.0898,-3.0898,-3.0898,-2.5327,-2.5308,-2.5346,-2.5519,-2.5558,-2.6712,0.0,0.0,-3.5558,0.0,-3.8527,-4.0496,-4.0496,-4.0496,-4.0496,-4.0496,-4.0496,-4.0496,-4.0496,-3.7199,0.0,0.0,-3.4022,-3.4129,-3.1189,-2.7889,-2.6092,-2.5936,-2.5761,-2.5683,-2.5683,-2.5683,-2.5683,-2.5683,-2.5683,0.0,-2.5937,-2.9394,-3.0699,-3.0404,-3.0577,-3.0734,-3.0878,-3.0878,0.0,-3.0878,-3.0898,-3.0898,-3.0898,-3.0898,-3.0898,-3.0878,-3.0878,-3.0878,-3.0878,-3.0878,-3.0878,-3.0878,-3.0878,-3.0878,-3.0878,-3.0878,0.0,0.0,0.0,0.0,-2.6641,0.0,0.0,0.0,0.0,0.0,-2.5898,-2.5723,-2.5703,-2.5703,-2.5703,0.0,0.0,0.0,0.0,0.0,0.0,-2.5703,-2.5703,-2.5703,-2.5703,-2.5703,0.0,0.0,0.0,-3.0547,-3.0644,-3.0644,-3.0644,-3.0801,-3.0898,-3.0898,-3.0898,-3.0898,-3.0898,-3.0898,-3.0898,-3.0898,-3.0898,-3.0898,-3.0898,-3.0898,-3.0898,-3.0898,-3.0898,-3.0898,-3.0898,-3.0898,-3.0898,-3.0898,-2.5808,-2.5308,-2.6096,-2.8654,-2.9096,-3.025,0.0,0.0,0.0,0.0,-3.9977,-4.0496,-4.0496,-4.0496,-4.0496,-4.0496,-4.0496,0.0,0.0,0.0,0.0,-3.7856,-3.6415,-3.513,-3.4346,-3.3441,-3.1739,-2.9199,-2.6657,-2.5406,-2.5406,-2.5406,-2.5406,-2.5417,-2.5605,-2.5703,-2.5917,-2.9156,-3.0482,-3.0615,-3.3173,-3.2725,0.0,0.0,-3.0537,-3.0564,-3.0805,-3.0898,-3.0898,-3.0898,-3.073,-3.0537,-3.0537,-3.0537,-3.0537,-3.0537,-3.0537,-3.0537,-3.0537,-3.0537,-3.0537,-3.0537,-3.0717,-3.0664,0.0,0.0,0.0,0.0,0.0,0.0,0.0,0.0,0.0,-2.6113,-2.5703,-2.5703,-2.5703,-2.5703,0.0,-2.5703,0.0,0.0,-2.5703,-2.5703,-2.5703,-2.5703,-2.5703,0.0,0.0,0.0,0.0,-2.7012,-2.7031,-2.7031,-2.7031,-2.9609,-3.0898,-3.0898,-3.0898,-3.0898,-3.0898,-3.0898,-3.0898,-3.0898,-3.0898,-3.0898,-3.0898,-3.0898,-3.0898,-3.0898,-3.0898,-3.0898,-3.0898,-3.0898,-3.0898,-3.0898,-2.7615,-2.7538,-2.8615,-3.2038,0.0,0.0,-3.3192,-3.4538,0.0,-4.0054,-4.0496,0.0,-4.0496,-4.0496,-4.0496,-4.0496,-4.0496,0.0,-4.0496,0.0,0.0,-4.0323,-3.7296,-3.55,-3.55,-3.55,0.0,-2.8173,-2.625,-2.5308,-2.5308,-2.5308,-2.5308,-2.5317,-2.5459,-2.5531,-2.5734,-2.8999,-3.0404,-3.0692,-3.4115,0.0,0.0,-3.0962,-3.0404,-3.0431,-3.0607,-3.0672,-3.0672,-3.0672,-3.0556,-3.0404,-3.0404,-3.0404,-3.0404,-3.0404,-3.0404,-3.0404,-3.0404,-3.0404,-3.0404,-3.0404,-3.0539,-3.0672,-3.0672,-2.9162,-2.7805,0.0,0.0,0.0,0.0,0.0,0.0,-2.6016,-2.5703,-2.5703,-2.5703,-2.5703,0.0,0.0,-2.5703,0.0,-2.5703,-2.5703,-2.5703,-2.5703,-2.5703,0.0,0.0,0.0,0.0,-2.5703,-2.5703,-2.5703,-2.5703,-2.7656,-2.9394,-3.0898,-3.0898,-3.0098,-2.8672,-3.0215,-3.0898,-3.0898,-3.0898,-3.0898,-3.0898,-3.0898,-3.0898,-3.0898,-3.0898,-3.0898,-3.0898,-3.0898,-3.0898,-3.0898,-3.0404,-3.1077,-3.2135,0.0,0.0,0.0,0.0,-3.425,0.0,-3.9515,0.0,-4.0015,-4.0458,-4.0496,-4.0496,-4.0496,0.0,-4.0496,-4.0496,-4.0496,-4.0496,-4.0496,-3.7296,-3.55,-3.55,-3.55,-3.2365,-2.5981,-2.5519,-2.5308,-2.5308,-2.5308,-2.5308,-2.5308,-2.5308,0.0,0.0,-2.8942,-3.0404,-3.0654,-3.3635,-3.5096,-3.5135,-3.1692,-3.0404,-3.0404,-3.0404,-3.0404,-3.0404,-3.0404,-3.0404,-3.0404,-3.0404,-3.0404,-3.0404,-3.0404,-3.0404,-3.0404,-3.0404,-3.0404,-3.0404,-3.0404,-3.0404,-3.0404,-3.0404,-3.0404,-3.0487,-3.0771,-3.0832,0.0,0.0,0.0,0.0,-2.5703,-2.5703,0.0,0.0,-2.5703,-2.5703,-2.5703,0.0,0.0,0.0,-2.5703,-2.5703,-2.5703,-2.5703,0.0,0.0,0.0,0.0,0.0,-2.5703,0.0,-2.5703,0.0,-2.7226,-3.0215,-3.0215,-2.8633,-2.5801,-2.8848,-3.0469,-3.0898,-3.0898,-3.0898,-3.0898,-3.0898,-3.0898,-3.0898,-3.0898,-3.0898,-3.0898,-3.0898,-3.0898,-3.0898,-3.3942,-3.4615,-3.5673,0.0,0.0,-3.6231,-3.8392,-3.9246,-3.8834,-3.6654,-3.6385,-3.743,-4.0208,-4.0496,-4.0496,-4.0496,-4.0496,0.0,0.0,0.0,0.0,-4.0496,-3.7296,-3.55,-3.55,-3.55,-3.3538,-2.9519,-2.6673,-2.5308,-2.5308,-2.5308,-2.5308,-2.5308,-2.5308,0.0,-2.5519,-2.8942,0.0,-3.0442,-3.1058,-3.2981,-3.5135,-3.1692,-3.0404,-3.0404,-3.0404,-3.0404,-3.0404,-3.0404,-3.0404,-3.0404,-3.0404,-3.0404,-3.0404,-3.0404,-3.0404,-3.0404,-3.0404,-3.0404,-3.0404,-3.0404,-3.0404,-3.0404,-3.0404,-3.0404,-3.0414,-3.0477,-3.0496,-3.0576,-3.0855,0.0,0.0,0.0,0.0,0.0,0.0,0.0,-2.5703,-2.5703,0.0,0.0,0.0,0.0,-2.5703,-2.5703,0.0,0.0,0.0,0.0,0.0,0.0,0.0,0.0,0.0,0.0,0.0,-2.6602,-2.6602,-2.6289,-2.5723,-2.6328,-2.8184,-3.0898,-3.0898,-3.0898,-3.0898,-3.0898,-3.0898,-3.0898,-3.0898,-3.0898,-3.0898,-3.0898,-3.0898,-3.0898,-3.743,-3.6692,-3.6,-3.7623,0.0,0.0,0.0,-4.0496,0.0,-3.8296,-3.8084,-3.87,-4.0323,-4.0496,-4.0496,-4.0496,-4.0496,-4.0496,-4.0496,-4.0496,-4.0496,-4.0496,-3.895,-3.7276,-3.5538,-3.55,-3.3827,-3.0404,-2.6981,-2.5308,-2.5308,-2.5308,-2.5308,-2.5308,-2.5308,-2.5308,0.0,0.0,0.0,-3.0558,-3.2327,-3.4038,-3.5327,-3.3673,-3.3058,-3.2808,-3.1038,-3.0404,-3.0404,-3.0404,-3.0404,-3.0404,-3.0404,-3.0404,-3.0404,-3.0404,-3.0404,-3.0404,-3.0404,-3.0404,-3.0404,-3.0404,-3.0404,-3.0404,-3.0404,-3.0404,-3.0404,-3.0404,-3.0404,-3.0455,-3.0603,-2.792,0.0,0.0,0.0,0.0,0.0,0.0,-2.7734,-2.5918,-2.5703,-2.5703,0.0,0.0,0.0,0.0,0.0,0.0,0.0,0.0,0.0,0.0,0.0,0.0,0.0,0.0,0.0,-2.5703,-2.5703,-2.5632,-2.5498,-2.5498,-2.6482,-2.8301,-3.0117,-3.0898,-3.0898,-3.0898,-3.0898,-3.0898,-3.0898,-3.0898,-3.0898,-3.0898,-3.0898,-3.0898,-3.9977,-3.8373,0.0,0.0,-3.6096,0.0,-4.0092,-4.0496,-4.0496,-4.0496,-4.0496,-4.0496,-4.0496,-4.0496,-4.0496,-4.0496,-4.0496,-4.0496,-4.0496,-4.0496,-4.0496,-4.0496,-4.0496,-3.8931,-3.5577,-3.55,-3.4173,0.0,-2.7327,-2.5308,-2.5308,-2.5308,-2.5308,-2.5308,0.0,0.0,0.0,0.0,-3.0827,-3.1712,-3.4423,-3.55,-3.55,-3.55,-3.55,-3.5058,-3.1635,-3.0404,-3.0404,-3.0404,-3.0404,-3.0404,-3.0404,-3.0404,-3.0404,-3.0404,-3.0404,-3.0404,-3.0404,-3.0404,-3.0404,-3.0404,-3.0404,-3.0404,-3.0404,-3.0404,-3.0404,-3.0404,-3.0404,-3.0404,-3.0404,-2.8369,0.0,0.0,0.0,0.0,0.0,0.0,-2.8789,-2.6035,-2.5703,0.0,-2.5703,0.0,0.0,0.0,0.0,0.0,0.0,0.0,0.0,0.0,0.0,0.0,-2.5703,0.0,-2.5662,0.0,-2.5607,-2.5491,-2.5327,-2.6058,-2.6501,-2.6851,-2.9606,-3.0832,-3.0898,-3.0898,-3.0898,-3.0898,-3.0898,-3.0898,-3.0898,-3.0898,-3.0898,-3.0898,0.0,0.0,0.0,0.0,0.0,0.0,-4.0458,-4.0496,-4.0496,-4.0496,-4.0496,-4.0496,-4.0496,-4.0496,-4.0496,-4.0496,-4.0496,-4.0496,-4.0496,-4.0496,-4.0496,-4.0496,-4.0496,-3.8931,-3.5577,-3.55,-3.5346,0.0,0.0,-2.5308,-2.5308,-2.5308,-2.5308,-2.5308,0.0,0.0,0.0,-3.0269,-3.2192,-3.5058,-3.5365,-3.55,-3.55,-3.55,-3.55,-3.5058,-3.1635,-3.0404,-3.0404,-3.0404,-3.0404,-3.0404,-3.0404,-3.0404,-3.0404,-3.0404,-3.0404,-3.0404,-3.0404,-3.0404,-3.0404,-3.0404,-3.0404,-3.0404,-3.0404,-3.0404,-3.0404,-3.0404,-3.0404,-3.0404,-3.0404,-3.0155,-2.9124,0.0,0.0,0.0,0.0,0.0,-2.6074,-2.5742,0.0,0.0,0.0,0.0,0.0,0.0,0.0,0.0,0.0,0.0,0.0,-2.5703,0.0,-2.5703,-2.5703,-2.5703,0.0,-2.5339,-2.5339,-2.5312,-2.5404,-2.8519,-2.9946,-2.9976,-3.0309,-3.0614,-3.0898,-3.0898,-3.0898,-3.0898,-3.0898,-3.0898,-3.0898,-3.0898,-3.0898,-3.0898,0.0,0.0,0.0,0.0,0.0,0.0,0.0,-4.0496,-4.0496,-4.0496,-4.0496,-4.0496,-4.0496,-4.0496,-4.0496,-4.0496,-4.0496,-4.0496,-4.0496,-4.0496,-4.0496,-4.0496,-4.0496,-3.8931,-3.5577,-3.55,-3.55,0.0,0.0,0.0,0.0,-2.5308,0.0,0.0,0.0,-2.9115,-3.0538,-3.2596,-3.425,-3.55,-3.55,-3.55,-3.55,-3.55,-3.55,-3.5058,-3.1635,-3.0404,-3.0404,-3.0404,-3.0404,-3.0404,-3.0404,-3.0404,-3.0404,-3.0404,-3.0404,-3.0404,-3.0404,-3.0404,-3.0404,-3.0404,-3.0404,-3.0404,-3.0404,-3.0404,-3.0404,-3.0404,-3.0404,-3.0404,-3.0404,-3.0404,-2.999,0.0,0.0,0.0,0.0,0.0,0.0,-2.5703,0.0,-2.5703,0.0,0.0,0.0,0.0,0.0,-2.5703,-2.5703,0.0,0.0,-2.5703,0.0,-2.5703,-2.5703,-2.5543,-2.5409,-2.5308,-2.5308,-2.5308,-2.5423,-2.8846,-3.0404,-3.0402,-3.0603,-3.0771,-3.0898,-3.0898,-3.0898,-3.0898,-3.0898,-3.0898,-3.0898,-3.0898,-3.0898,-3.0898,-4.139,0.0,-4.4973,0.0,-4.2212,-3.9965,-3.9965,-3.9965,-3.9965,-3.9965,-3.9965,-4.012,-4.0465,-4.0496,-4.0496,-4.0496,-4.0496,-4.0496,-4.0496,-4.0496,-4.0496,-4.0496,-4.0496,0.0,-3.7026,-3.6,-3.55,-3.55,-3.3077,0.0,0.0,-2.6808,0.0,0.0,-3.0827,-3.1904,-3.2058,-3.4481,-3.55,-3.55,-3.55,-3.55,-3.55,-3.55,-3.55,-3.5173,-3.2769,-3.1904,-3.1904,-3.1904,-3.1231,-3.0404,-3.0404,-3.0404,-3.0404,-3.0404,-3.0404,-3.0404,-3.0404,-3.0404,-3.0404,-3.0404,-3.0404,-3.0404,-3.0404,-3.0404,-3.0404,-3.0404,-3.0404,-3.0404,-3.0404,-2.9577,-2.8904,-2.8904,0.0,0.0,0.0,-2.5465,0.0,-2.5572,-2.5572,-2.5572,-2.5572,0.0,0.0,0.0,0.0,-2.5703,-2.5703,0.0,0.0,0.0,0.0,0.0,0.0,-2.5395,-2.5308,-2.5308,-2.5308,-2.5308,-2.5385,-2.7808,-2.9442,-3.035,-2.958,-2.9829,-3.0741,-3.0741,-3.0805,-3.0898,-3.0898,-3.0898,-3.0898,-3.0796,-3.0826,-3.0898,-4.3458,-4.3495,-4.3513,-4.3513,-4.0868,-3.8719,-3.8719,-3.8719,-3.8719,-3.8719,-3.8719,-3.9181,-4.0362,-4.0496,-4.0496,-4.0496,-4.0496,-4.0496,-4.0496,-4.0496,-4.0496,0.0,0.0,-4.0477,-4.0439,-3.7199,-3.55,-3.55,0.0,0.0,-3.0346,-3.0346,-3.2135,-3.5385,-3.5423,-3.5442,-3.5442,-3.5481,-3.55,-3.55,-3.55,-3.55,-3.55,-3.55,-3.55,-3.5481,-3.5442,-3.5442,-3.5442,-3.5442,-3.3192,-3.0404,-3.0404,-3.0404,-3.0404,-3.0404,-3.0404,-3.0404,-3.0404,-3.0404,-3.0404,-3.0404,-3.0404,-3.0404,-3.0404,-3.0404,-3.0404,-3.0404,-3.0404,-3.0404,-3.0404,-2.7635,-2.5365,-2.5365,0.0,0.0,0.0,0.0,0.0,-2.5298,-2.5298,-2.5298,-2.5298,0.0,0.0,0.0,0.0,0.0,0.0,0.0,0.0,-2.5313,-2.5558,0.0,-2.5303,-2.5308,-2.5308,-2.5308,-2.5308,-2.5308,-2.5308,-2.5346,-2.7192,-3.0212,-2.6832,-2.728,-3.0416,-3.0416,-3.0593,-3.0898,-3.0898,-3.0898,-3.0856,-3.0537,-3.0626,-3.0898,-4.3515,-4.3515,-4.3515,-4.3515,-4.0836,-3.8707,-3.8707,-3.8707,-3.8707,-3.8707,-3.8707,-3.8848,-3.9229,-4.0014,-4.0496,0.0,-4.0496,-4.0496,0.0,-4.0496,-4.0496,-4.0496,-4.0496,-4.0496,-4.0496,-3.7219,-3.55,-3.55,0.0,0.0,0.0,-3.3885,-3.4462,-3.55,-3.55,-3.55,-3.55,-3.55,-3.55,-3.55,-3.55,-3.55,-3.55,-3.55,-3.55,-3.55,-3.55,-3.55,-3.55,-3.55,-3.4788,-3.3885,-3.3885,-3.2288,-3.0404,-3.0404,-3.0404,-3.0404,-3.0404,-3.0404,-3.0404,-3.0404,-3.0404,-3.0404,-3.0404,-3.0404,-3.0404,-3.0404,-3.0404,-2.9692,-2.7346,-2.6038,-2.5308,-2.5308,-2.5308,0.0,0.0,0.0,-2.5308,-2.5308,-2.5308,-2.5379,0.0,-2.5413,0.0,0.0,0.0,0.0,0.0,0.0,0.0,0.0,-2.5376,0.0,-2.5308,-2.5308,-2.5308,-2.5308,-2.5308,-2.5308,-2.5308,-2.5308,-2.5885,-2.7,-2.825,-2.9385,-3.0404,-3.0404,-3.0456,-3.056,-3.056,-3.056,-3.0543,-3.0433,-3.0467,-3.056,-4.3515,-4.3515,-4.3515,-4.3515,-4.1827,-4.0102,-3.8891,-3.8707,-3.8707,-3.8707,-3.8707,-3.8707,-3.8707,-3.9377,0.0,-3.9821,-3.9821,-3.9821,-3.9821,-3.9821,-3.9821,-3.9821,-3.9821,-3.9821,-3.9821,0.0,0.0,-3.7373,-3.6115,-3.55,-3.55,-3.55,-3.55,-3.55,-3.55,-3.55,-3.55,-3.55,-3.55,-3.55,-3.55,-3.55,-3.55,-3.55,-3.55,-3.55,-3.55,-3.55,-3.55,-3.55,-3.55,-3.55,-3.55,-3.4038,-3.2327,-3.2327,-3.1404,-3.0404,-3.0404,-3.0404,-3.0404,-3.0404,-3.0404,-3.0404,-3.0404,-3.0404,-3.0404,-3.0404,-3.0404,-2.975,-2.7615,-2.7231,-2.7231,-2.7231,-2.7231,-2.6769,-2.5481,0.0,0.0,0.0,0.0,0.0,0.0,-2.5398,0.0,0.0,0.0,0.0,0.0,0.0,0.0,-2.5308,-2.5308,0.0,-2.5308,-2.5308,-2.5308,-2.5308,-2.5308,-2.5308,-2.5346,-2.6635,-2.7231,-2.7327,-2.9462,-3.0404,-3.0404,-3.0404,-3.0404,-3.0404,-3.0404,-3.0404,-3.0404,-3.0404,-3.0404,-3.0404,-4.3515,-4.3515,0.0,0.0,-4.3515,0.0,-3.9184,-3.8707,-3.8707,-3.8707,-3.8707,-3.8707,-3.8707,-3.8707,-3.8707,-3.8707,0.0,0.0,0.0,-3.8707,-3.8707,-3.8707,-3.8707,0.0,-3.8707,-3.8707,-3.9255,-4.037,-3.7022,-3.5383,-3.5383,-3.5383,-3.5383,-3.5383,-3.5383,-3.5383,-3.5383,-3.5383,-3.5383,-3.5391,-3.546,-3.55,-3.55,-3.55,-3.55,-3.55,-3.55,-3.55,-3.55,-3.55,-3.55,-3.55,-3.55,-3.55,-3.55,-3.55,-3.3077,-3.0404,-3.0404,-3.0404,-3.0404,-3.0404,-3.0404,-3.0404,-3.0404,-3.0404,-3.0404,-3.0404,-3.0404,-3.0404,-3.0404,-3.0404,-3.0404,-3.0404,-3.0404,-2.9212,-2.5788,0.0,0.0,0.0,0.0,0.0,0.0,-2.5654,-2.5654,0.0,0.0,0.0,0.0,0.0,-2.5308,-2.5308,-2.5308,-2.5308,-2.5308,-2.5308,-2.5308,-2.5308,-2.5538,-2.5538,-2.5423,-2.8846,-3.0404,-3.0404,-3.0404,-3.0404,-3.0404,-3.0404,-3.0404,-3.0404,-3.0404,-3.0404,-3.0404,-3.0404,-3.0404,-3.0404,0.0,0.0,-4.3515,-4.3515,-4.3515,-4.2396,-3.9184,-3.8707,-3.8707,-3.8707,-3.8707,-3.8707,-3.8707,-3.8707,-3.8707,-3.8707,-3.8707,-3.8707,-3.8707,-3.8707,-3.8707,-3.8707,-3.8707,-3.8707,-3.8707,-3.8707,-3.8833,-3.9127,-3.5814,-3.4213,-3.4213,-3.4213,-3.4213,-3.4213,-3.4213,-3.4213,-3.4213,-3.4213,-3.4213,-3.4277,-3.5155,-3.55,-3.55,-3.55,-3.55,-3.55,-3.55,-3.55,-3.55,-3.55,-3.55,-3.55,-3.55,-3.55,-3.55,-3.55,-3.3077,-3.0404,-3.0404,-3.0404,-3.0404,-3.0404,-3.0404,-3.0404,-3.0404,-3.0404,-3.0404,-3.0404,-3.0404,-3.0404,-3.0404,-3.0404,-3.0404,-3.0404,-3.0404,-2.9212,-2.5788,-2.5308,0.0,0.0,-2.5308,-2.6327,-2.8942,-2.9192,-2.9192,0.0,0.0,0.0,0.0,0.0,-2.5308,-2.5308,-2.5308,-2.5308,-2.5308,-2.5308,-2.5308,-2.5327,-2.7942,-2.7827,-2.5423,-2.8846,-3.0404,-3.0404,-3.0404,-3.0404,-3.0404,-3.0404,-3.0404,-3.0404,-3.0404,-3.0404,-3.0404,-3.0404,-3.0404,-3.0404,-4.3515,-4.3515,-4.3515,-4.3515,-4.3515,-4.2396,-3.9184,-3.8707,-3.8707,-3.8707,-3.8707,-3.8707,-3.8707,-4.001,-4.0304,-3.8836,-3.8707,-3.8707,-3.8707,-3.8707,-3.8707,-3.8707,-3.8707,-3.8707,-3.8707,-3.8707,-3.8707,-3.8707,-3.6909,-3.5275,-3.3807,-3.3807,-3.3807,-3.3807,-3.3807,-3.3807,-3.3807,-3.3807,-3.3807,-3.3855,-3.4478,-3.4716,-3.4716,-3.4716,-3.4716,-3.4784,-3.532,-3.55,-3.55,-3.55,-3.55,-3.55,-3.55,-3.55,-3.55,-3.55,-3.4192,-3.2731,-3.2731,-3.1596,-3.0404,-3.0404,-3.0404,-3.0404,-3.0404,-3.0404,-3.0404,-3.0404,-3.0404,-3.0404,-3.0404,-3.0404,-3.0404,-3.0404,-2.9096,-2.7423,-2.5558,-2.5308,0.0,-2.5308,-2.6673,-2.8365,-3.0212,-3.0404,-2.975,-2.8192,0.0,0.0,-2.5385,-2.5308,-2.5308,-2.5308,-2.5308,-2.5308,-2.5308,-2.5308,-2.6077,-2.7654,-2.9519,-2.9423,-2.7692,-2.9558,-3.0404,-3.0404,-3.0404,-3.0404,-3.0404,-3.0404,-3.0404,-3.0404,-3.0404,-3.0404,-3.0404,-3.0404,-3.0404,-3.0404,-4.3515,-4.3515,-4.3515,-4.3515,-4.3515,-4.2597,-3.9845,-3.9423,-3.9423,-3.9423,-3.9423,-3.9423,-3.9423,-4.1864,-4.2396,-3.9662,-3.8982,-3.8707,-3.8707,-3.8707,-3.8707,-3.8707,-3.8707,-3.8707,-3.8707,-3.8707,-3.8707,-3.8707,-3.8707,-3.7276,-3.4541,-3.4541,-3.4541,-3.4541,-3.4541,-3.4541,-3.4541,-3.4541,-3.4541,-3.4504,-3.399,-3.41,-3.4541,-3.4541,-3.4541,-3.461,-3.5078,-3.5246,-3.527,-3.5446,-3.55,-3.55,-3.55,-3.55,-3.5479,-3.5285,-3.5246,-3.5278,-3.5453,-3.3385,-3.1058,-3.0538,-3.0404,-3.0404,-3.0404,-3.0404,-3.0404,-3.0404,-3.0404,-3.0404,-3.0404,-3.0404,-3.0404,-3.0404,-2.7538,-2.5308,-2.5308,0.0,-2.5308,-2.5308,-2.8327,-3.0404,-3.0404,-3.0404,-2.9192,-2.6288,-2.8769,0.0,0.0,-2.5308,-2.5538,-2.6058,-2.6077,-2.6077,-2.6077,-2.6077,-2.7538,-3.0404,-3.0404,-3.0404,-3.0404,-3.0404,-3.0404,-3.0404,-3.0404,-3.0404,-3.0404,-3.0404,-3.0404,-3.0404,-3.0404,-3.0404,-3.0404,-3.0404,-3.0404,-3.0404,-4.3515,-4.3515,-4.3515,-4.3515,-4.3515,-4.3331,-4.2835,-4.2745,-4.2745,-4.2745,-4.2745,-4.2745,-4.2745,-4.3203,-4.3313,-4.2817,-4.0267,-3.8707,-3.8707,-3.8707,-3.8707,-3.8707,-3.8707,-3.8707,-3.8707,-3.8707,-3.8707,-3.8707,-3.8707,-3.845,-3.7936,-3.7936,-3.7936,-3.7936,-3.7936,-3.7936,-3.7936,-3.7936,-3.7936,-3.7698,-3.4926,-3.5459,-3.7936,-3.7936,-3.7936,-3.7599,-3.5003,-3.4056,-3.4213,-3.5179,-3.55,-3.55,-3.55,-3.55,-3.5312,-3.4345,-3.4056,-3.4265,-3.5246,-3.5115,-3.4019,-3.1115,-3.0404,-3.0404,-3.0404,-3.0404,-3.0404,-3.0404,-3.0404,-3.0404,-3.0404,-3.0404,-3.0404,-3.0404,-2.7538,-2.5308,-2.5308,0.0,-2.5308,-2.5308,-2.8327,-3.0404,-3.0404,-3.0404,-3.0173,-2.9654,-3.0096,-2.8904,-2.5481,-2.5308,-2.6615,-2.9519,-2.9615,-2.9615,-2.9615,-2.9615,-2.9865,-3.0404,-3.0404,-3.0404,-3.0404,-3.0404,-3.0404,-3.0404,-3.0404,-3.0404,-3.0404,-3.0404,-3.0404,-3.0404,-3.0404,-3.0404,-3.0404,-3.0404,-3.0404,-3.0404,-4.3515,-4.3515,-4.3515,-4.3515,-4.3515,-4.3515,-4.3515,-4.3515,-4.3515,-4.3515,-4.3515,-4.3515,-4.3515,-4.3515,-4.3515,-4.3515,-4.0561,-3.8707,-3.8707,-3.8707,-3.8707,-3.8707,-3.8707,-3.8707,-3.8707,-3.8707,-3.8707,-3.8707,-3.8707,-3.8707,-3.8707,-3.8707,-3.8707,-3.8707,-3.8707,-3.8707,-3.8707,-3.8707,-3.8707,-3.8579,-3.7055,-3.7349,-3.8707,-3.8707,-3.8707,-3.8505,-3.6982,-3.645,-3.6255,-3.5001,-3.4584,-3.4584,-3.4584,-3.4584,-3.4489,-3.3954,-3.3807,-3.3915,-3.4445,-3.5024,-3.5115,-3.3538,-3.1769,-3.0404,-3.0404,-3.0404,-3.0404,-3.0404,-3.0404,-3.0404,-3.0404,-3.0404,-3.0404,-3.0404,-2.7538,0.0,0.0,-2.6462,-2.5981,-2.7827,-2.9442,-3.0404,-3.0404,-3.0404,-3.0404,-3.0404,-3.0404,-2.9712,-2.8135,-2.8058,-2.8769,-3.0346,-2.8615,-2.8538,-3.0385,-3.0404,-3.0404,-3.0404,-3.0404,-3.0404,-3.0404,-3.0404,-3.0404,-3.0404,-3.0404,-3.0404,-3.0404,-3.0404,-3.0404,-3.0404,-3.0404,-3.0404,-3.0404,-3.0404,-3.0404,-3.0404,-4.3515,-4.3515,-4.3515,-4.3515,-4.3515,-4.3515,-4.3515,-4.3515,-4.3515,-4.3515,-4.3515,-4.3515,-4.3515,-4.3515,-4.3515,-4.3515,-4.124,-3.9827,-3.9827,-3.9129,-3.8707,-3.8707,-3.8707,-3.8707,-3.8707,-3.8707,-3.8707,-3.8707,-3.8707,-3.8707,-3.8707,-3.8707,-3.8707,-3.8707,-3.8707,-3.8707,-3.8707,-3.8707,-3.8707,-3.8707,-3.8707,-3.8707,-3.8707,-3.8707,-3.8707,-3.8707,-3.8707,-3.8707,-3.8322,-3.5789,-3.4431,-3.3807,-3.3807,-3.3807,-3.3807,-3.3807,-3.3807,-3.3807,-3.3807,-3.4445,-3.5102,-3.5102,-3.3122,-3.1061,-3.0515,-3.0404,-3.0404,-3.0404,-3.0404,-3.0404,-3.0404,-3.0404,-3.0404,-3.0404,0.0,0.0,0.0,-2.8135,-2.7462,-3.0096,-3.0404,-3.0404,-3.0404,-3.0404,-3.0404,-3.0404,-3.0404,-3.0404,-3.0404,-3.0404,-3.0404,-3.0404,-2.7846,-2.775,-3.0365,-3.0404,-3.0404,-3.0404,-3.0404,-3.0404,-3.0404,-3.0404,-3.0404,-3.0404,-3.0404,-3.0404,-3.0404,-3.0404,-3.0404,-3.0404,-3.0404,-3.0404,-3.0367,-3.0148,-3.0066,-3.0066,-4.3515,-4.3515,-4.3515,-4.3515,-4.3515,-4.3515,-4.3515,-4.3515,-4.3515,-4.3515,-4.3515,-4.3515,-4.3515,-4.3515,-4.3515,-4.3515,-4.3294,-4.3147,-4.3147,-4.0359,-3.8707,-3.8707,-3.8707,-3.8707,-3.8707,-3.8707,-3.8707,-3.8707,-3.8707,-3.8707,-3.8707,-3.8707,-3.8707,-3.8707,-3.8707,-3.8707,-3.8707,-3.8707,-3.8707,-3.8707,-3.8707,-3.8707,-3.8707,-3.8707,-3.8707,-3.8707,-3.8707,-3.8707,-3.867,-3.8432,-3.6321,-3.3807,-3.3807,-3.3807,-3.3807,-3.3807,-3.3807,-3.3807,-3.3807,-3.3868,-3.3928,-3.3928,-3.3731,-3.3001,-3.087,-3.0404,-3.0404,-3.0404,-3.0404,-3.0404,-3.0404,-3.0404,-3.0404,-3.0404,0.0,0.0,-3.0365,-3.0173,-3.0115,-3.0365,-3.0404,-3.0404,-3.0404,-3.0404,-3.0404,-3.0404,-3.0404,-3.0404,-3.0404,-3.0404,-3.0404,-3.0404,-3.0154,-3.0154,-3.0404,-3.0404,-3.0404,-3.0404,-3.0404,-3.0404,-3.0404,-3.0404,-3.0404,-3.0404,-3.0404,-3.0404,-3.0404,-3.0404,-3.0404,-3.0404,-3.0404,-3.0404,-3.0292,-2.9426,-2.9093,-2.9093,-4.3515,-4.3515,-4.3515,-4.3515,-4.3515,-4.3515,-4.3515,-4.3515,-4.3515,-4.3515,-4.3515,-4.3515,-4.3515,-4.3515,-4.3515,-4.3515,-4.3515,-4.3515,-4.3515,-4.2376,-4.0781,-3.8799,-3.8707,-3.8707,-3.8707,-3.8707,-3.8707,-3.8707,-3.8707,-3.8707,-3.8707,-3.8707,-3.8707,-3.8707,-3.8707,-3.8707,-3.8707,-3.8707,-3.8707,-3.8707,-3.8707,-3.8707,-3.8707,-3.8707,-3.8707,-3.8707,-3.8707,-3.8707,-3.8707,-3.8707,-3.7881,-3.6486,-3.4449,-3.3807,-3.3807,-3.3807,-3.3807,-3.3807,-3.3807,-3.3807,-3.3807,-3.3807,-3.3807,-3.3042,-3.0175,-2.9523,-2.9523,-2.9523,-2.9523,-2.9713,-3.0292,-2.9912,-2.9722,-3.0318,0.0,-3.0404,-3.0404,-3.0404,-3.0404,-3.0404,-2.988,-2.9765,-3.0343,-3.0404,-3.0404,-3.0404,-3.0404,-3.0404,-3.0404,-3.0404,-3.0404,-3.0404,-3.0404,-3.0404,-3.0404,-3.0404,-3.0404,-3.0404,-3.0404,-3.0404,-3.0404,-3.0404,-3.0404,-3.0404,-3.0404,-3.0404,-3.0404,-3.0404,-3.0404,-3.0343,-2.9765,-2.9523,-2.9485,-2.9138,-2.9005,-2.9005,-4.3515,-4.3515,-4.3515,-4.3515,-4.3515,-4.3515,-4.3515,-4.3515,-4.3515,-4.3515,-4.3515,-4.3515,-4.3515,-4.3515,-4.3515,-4.3515,-4.3515,-4.3515,-4.3515,-4.3515,-4.2506,-4.0304,-3.9239,-3.8707,-3.8707,-3.8707,-3.8707,-3.8707,-3.8707,-3.8707,-3.8707,-3.8707,-3.8707,-3.8707,-3.8707,-3.8707,-3.8707,-3.8707,-3.8707,-3.8707,-3.8707,-3.8707,-3.8707,-3.8707,-3.8707,-3.8707,-3.8707,-3.8707,-3.8707,-3.8707,-3.8707,-3.8322,-3.6046,-3.5349,-3.5147,-3.41,-3.3807,-3.3807,-3.3807,-3.3807,-3.3807,-3.3807,-3.3807,-3.2963,-2.9739,-2.9005,-2.9005,-2.9005,-2.9005,-2.9195,-2.984,-2.9436,-2.9217,-2.9856,-2.9969,-3.0052,-3.0355,-3.0404,-3.0286,-3.0,-2.9387,-2.9251,-2.9888,-2.9969,-2.9969,-2.9969,-3.0228,-3.0404,-3.0404,-3.0404,-3.0404,-3.0404,-3.0404,-3.0404,-3.0404,-3.0404,-3.0404,-3.0404,-3.0404,-3.0404,-3.0404,-3.0404,-3.0404,-3.0373,-3.0092,-2.9969,-2.9969,-2.9969,-2.9969,-2.9888,-2.9241,-2.9005,-2.9005,-2.9005,-2.9005,-2.9005,-4.3515,-4.3515,-4.3515,-4.3515,-4.3515,-4.3515,-4.3515,-4.3515,-4.3515,-4.3515,-4.3515,-4.3515,-4.3515,-4.3515,-4.3479,-4.3462,-4.3462,-4.3462,-4.3462,-4.3479,-4.3515,-4.3515,-4.0432,-3.8744,-3.8744,-3.8707,-3.8707,-3.8707,-3.8707,-3.8707,-3.8707,-3.8707,-3.8707,-3.8707,-3.8707,-3.8707,-3.8707,-3.8707,-3.8707,-3.8707,-3.8707,-3.8707,-3.8707,-3.8707,-3.8707,-3.8707,-3.8707,-3.8707,-3.8707,-3.8707,-3.8707,-3.8707,-3.8707,-3.8707,-3.8065,-3.4798,-3.3825,-3.3807,-3.3807,-3.3807,-3.3807,-3.3807,-3.3807,-3.2963,-2.9776,-2.9042,-2.9023,-2.9005,-2.9005,-2.9005,-2.9005,-2.9005,-2.9005,-2.9005,-2.9005,-2.9334,-3.0267,-3.0398,-3.0037,-2.9104,-2.9005,-2.9005,-2.9005,-2.9005,-2.9005,-2.9005,-2.9856,-3.0398,-3.0404,-3.0398,-3.0398,-3.0404,-3.0404,-3.0404,-3.0404,-3.0404,-3.0404,-3.0404,-3.0404,-3.0404,-3.0404,-3.0404,-3.0398,-3.0343,-2.9407,-2.9005,-2.9005,-2.9005,-2.9005,-2.9005,-2.9005,-2.9005,-2.9005,-2.9005,-2.9005,-2.9005,-4.3515,-4.3515,-4.3515,-4.3515,-4.3515,-4.3515,-4.3515,-4.3515,-4.3515,-4.3515,-4.3515,-4.3515,-4.3515,-4.3515,-4.2866,-4.1246,-4.1105,-4.1105,-4.1105,-4.262,-4.3515,-4.3515,-4.2597,-4.2066,-4.2066,-3.9863,-3.8707,-3.8707,-3.8707,-3.8707,-3.8707,-3.8707,-3.8707,-3.8707,-3.8707,-3.8707,-3.8707,-3.8707,-3.8707,-3.8707,-3.8707,-3.8707,-3.8707,-3.8707,-3.8707,-3.8707,-3.8707,-3.8707,-3.8707,-3.8707,-3.8707,-3.8707,-3.8707,-3.8707,-3.8505,-3.7533,-3.5605,-3.3807,-3.3807,-3.3807,-3.3807,-3.3807,-3.3807,-3.355,-3.2596,-3.2375,-3.172,-2.9464,-2.9005,-2.9005,-2.9005,-2.9005,-2.9005,-2.9005,-2.9005,-2.9093,-2.9377,-2.9416,-2.9324,-2.9021,-2.9005,-2.9005,-2.9005,-2.9005,-2.9005,-2.9005,-2.9251,-2.9705,-3.0361,-2.9773,-2.9722,-3.0386,-3.0404,-3.0404,-3.0404,-3.0404,-3.0404,-3.0404,-3.0404,-3.0404,-3.0404,-3.0404,-3.0037,-2.9407,-2.9127,-2.9005,-2.9005,-2.9005,-2.9005,-2.9005,-2.9005,-2.9005,-2.9005,-2.9005,-2.9005,-2.9005,-4.3515,-4.3515,-4.3515,-4.3515,-4.3515,-4.3515,-4.3515,-4.3515,-4.3515,-4.3515,-4.3515,-4.3178,-4.2248,-4.2147,-4.1599,-4.0229,-4.0096,-4.0096,-4.0096,-4.138,-4.2147,-4.2147,-4.2147,-4.2581,-4.3479,-4.1589,-3.9974,-3.8707,-3.8707,-3.8707,-3.8707,-3.8707,-3.8707,-3.8707,-3.8707,-3.8707,-3.8707,-3.8707,-3.8707,-3.8707,-3.8707,-3.8707,-3.8707,-3.8707,-3.8707,-3.8707,-3.8707,-3.8707,-3.8707,-3.8707,-3.8707,-3.8707,-3.8707,-3.8707,-3.8707,-3.8707,-3.7294,-3.5459,-3.4156,-3.3807,-3.3807,-3.3807,-3.3807,-3.3807,-3.3807,-3.3807,-3.2889,-2.9666,-2.9005,-2.9005,-2.9005,-2.9005,-2.9005,-2.9005,-2.9005,-2.9005,-2.9005,-2.9005,-2.9005,-2.9005,-2.9005,-2.9005,-2.9005,-2.9005,-2.9005,-2.9005,-2.9005,-2.9241,-2.9815,-2.9314,-2.9251,-2.9832,-3.0208,-3.0221,-2.9848,-2.9848,-3.003,-3.0404,-3.0404,-3.0208,-2.9848,-2.9848,-2.9533,-2.9005,-2.9005,-2.9005,-2.9005,-2.9005,-2.9005,-2.9005,-2.9005,-2.9005,-2.9005,-2.9005,-2.9005,-2.9005,-4.3515,-4.3515,-4.3515,-4.3515,-4.3515,-4.3515,-4.3515,-4.3515,-4.3515,-4.3515,-4.3321,-4.2406,-4.0336,-4.0096,-4.0096,-4.0096,-4.0096,-4.0096,-4.0096,-4.0096,-4.0096,-4.0096,-4.0096,-4.1082,-4.3142,-4.3196,-4.1772,-3.882,-3.8563,-3.8417,-3.8417,-3.8417,-3.853,-3.8692,-3.8515,-3.853,-3.8707,-3.8707,-3.8707,-3.8707,-3.8707,-3.8707,-3.8707,-3.8707,-3.8707,-3.8707,-3.8707,-3.8707,-3.8707,-3.8707,-3.8707,-3.8707,-3.8707,-3.8707,-3.8707,-3.8707,-3.8707,-3.8046,-3.5055,-3.4027,-3.3807,-3.3807,-3.3807,-3.3807,-3.3807,-3.3807,-3.2981,-3.0032,-2.9207,-2.9005,-2.9005,-2.9005,-2.9005,-2.9005,-2.9005,-2.9005,-2.9005,-2.9005,-2.9005,-2.9005,-2.9005,-2.9005,-2.9005,-2.9005,-2.9005,-2.9005,-2.9005,-2.9005,-2.9005,-2.9005,-2.9005,-2.9005,-2.9832,-2.9864,-2.9017,-2.9005,-2.9436,-3.028,-3.028,-2.9823,-2.9005,-2.9005,-2.9005,-2.9005,-2.9005,-2.9005,-2.9005,-2.9005,-2.9005,-2.9005,-2.9005,-2.9005,-2.9005,-2.9005,-2.9005,-2.9005,-4.3515,-4.3515,-4.3515,-4.3515,-4.3515,-4.3515,-4.3515,-4.3515,-4.3515,-4.3515,-4.1961,-4.0666,-4.0146,-4.0096,-4.0096,-4.0096,-4.0096,-4.0096,-4.0096,-4.0096,-4.0096,-4.0096,-4.0096,-4.0336,-4.0838,-4.0838,-4.0486,-3.9802,-3.7426,-3.6274,-3.6274,-3.6274,-3.7136,-3.8627,-3.7002,-3.7192,-3.8707,-3.8707,-3.8707,-3.8707,-3.8707,-3.8707,-3.8707,-3.8707,-3.8707,-3.8707,-3.8707,-3.8707,-3.8707,-3.8707,-3.8707,-3.8707,-3.8707,-3.8707,-3.8707,-3.8707,-3.8707,-3.8542,-3.7826,-3.5752,-3.3807,-3.3807,-3.3807,-3.3807,-3.3807,-3.3807,-3.3605,-3.2908,-3.0748,-2.9005,-2.9005,-2.9005,-2.9005,-2.9005,-2.9005,-2.9005,-2.9005,-2.9005,-2.9005,-2.9005,-2.9005,-2.9005,-2.9005,-2.9005,-2.9005,-2.9005,-2.9005,-2.9005,-2.9005,-2.9005,-2.9005,-2.9005,-2.9195,-2.9206,-2.9005,-2.9005,-2.9093,-2.9304,-2.9304,-2.9195,-2.9005,-2.9005,-2.9005,-2.9005,-2.9005,-2.9005,-2.9005,-2.9005,-2.9005,-2.9005,-2.9005,-2.9005,-2.9005,-2.9005,-2.9005,-2.9005,-4.3515,-4.3515,-4.3515,-4.3515,-4.3515,-4.3515,-4.3515,-4.3515,-4.3515,-4.3515,-4.2465,-4.1313,-4.0204,-4.0096,-4.0096,-4.0096,-4.0096,-4.0096,-4.0096,-4.0096,-4.0096,-4.0096,-4.0096,-4.0096,-4.0096,-4.0096,-4.0096,-4.0096,-3.8514,-3.7753,-3.7719,-3.6259,-3.6169,-3.7174,-3.6079,-3.619,-3.7211,-3.7211,-3.7211,-3.7211,-3.7211,-3.7211,-3.7211,-3.7211,-3.7843,-3.8707,-3.8707,-3.8707,-3.8707,-3.8707,-3.8707,-3.8707,-3.8707,-3.8707,-3.8707,-3.8707,-3.8707,-3.8707,-3.8707,-3.6303,-3.3807,-3.3807,-3.3807,-3.3807,-3.3807,-3.3807,-3.3807,-3.3807,-3.2467,-3.128,-3.128,-3.0032,-2.9005,-2.9005,-2.9005,-2.9005,-2.9005,-2.9005,-2.9005,-2.9005,-2.9005,-2.9005,-2.9005,-2.9005,-2.9005,-2.9005,-2.9005,-2.9005,-2.9005,-2.9005,-2.9005,-2.9005,-2.9005,-2.9005,-2.9005,-2.9005,-2.9005,-2.9005,-2.9005,-2.9005,-2.9005,-2.9005,-2.9005,-2.9005,-2.9005,-2.9005,-2.9005,-2.9005,-2.9005,-2.9005,-2.9005,-2.9005,-2.9005,-2.9005,-2.9005,-2.9005,-4.3427,-4.3196,-4.2922,-4.2922,-4.3232,-4.3515,-4.3515,-4.316,-4.2922,-4.2922,-4.2922,-4.2208,-4.0328,-4.0096,-4.0096,-4.0096,-4.0096,-4.0096,-4.0096,-4.0096,-4.0096,-4.0096,-4.0096,-4.0096,-4.0096,-4.0096,-4.0096,-4.0096,-4.0096,-3.9842,-3.9283,-3.6772,-3.56,-3.56,-3.56,-3.56,-3.56,-3.56,-3.56,-3.56,-3.56,-3.56,-3.56,-3.56,-3.6666,-3.8168,-3.8168,-3.8401,-3.8643,-3.8302,-3.8168,-3.8168,-3.8168,-3.8168,-3.8168,-3.8168,-3.8417,-3.8707,-3.8707,-3.6707,-3.4504,-3.3935,-3.3807,-3.3807,-3.3807,-3.3807,-3.3807,-3.3807,-3.3807,-3.3807,-3.3807,-3.161,-2.9647,-2.9097,-2.9005,-2.9005,-2.9005,-2.9005,-2.9005,-2.9005,-2.9005,-2.9005,-2.9005,-2.9005,-2.9005,-2.9005,-2.9005,-2.9005,-2.9005,-2.9005,-2.9005,-2.9005,-2.9005,-2.9005,-2.9005,-2.9005,-2.9005,-2.9005,-2.9005,-2.9005,-2.9005,-2.9005,-2.9005,-2.9005,-2.9005,-2.9005,-2.9005,-2.9005,-2.9005,-2.9005,-2.9005,-2.9005,-2.9005,-2.9005,-2.9005,-2.9005,-4.3105,-4.1902,-4.0546,-4.0546,-4.2188,-4.3515,-4.3515,-4.1835,-4.0546,-4.0546,-4.0546,-4.0441,-4.0121,-4.0096,-4.0096,-4.0096,-4.0096,-4.0096,-4.0096,-4.0096,-4.0096,-4.0096,-4.0096,-4.0096,-4.0096,-4.0096,-4.0096,-4.0096,-4.0096,-3.8751,-3.6191,-3.5785,-3.56,-3.56,-3.56,-3.56,-3.56,-3.56,-3.56,-3.56,-3.56,-3.56,-3.56,-3.56,-3.5766,-3.6032,-3.6032,-3.7174,-3.8417,-3.6626,-3.6032,-3.6032,-3.6032,-3.6032,-3.6032,-3.6032,-3.7286,-3.8707,-3.8707,-3.8377,-3.7367,-3.4504,-3.3807,-3.3807,-3.3807,-3.3807,-3.3807,-3.3807,-3.3807,-3.3807,-3.3807,-3.344,-3.2247,-2.9445,-2.9005,-2.9005,-2.9005,-2.9005,-2.9005,-2.9005,-2.9005,-2.9005,-2.9005,-2.9005,-2.9005,-2.9005,-2.9005,-2.9005,-2.9005,-2.9005,-2.9005,-2.9005,-2.9005,-2.9005,-2.9005,-2.9005,-2.9005,-2.9005,-2.9005,-2.9005,-2.9005,-2.9005,-2.9005,-2.9005,-2.9005,-2.9005,-2.9005,-2.9005,-2.9005,-2.9005,-2.9005,-2.9005,-2.9005,-2.9005,-2.9005,-2.9005,-4.1402,-4.0791,-4.0096,-4.0096,-4.0938,-4.1599,-4.1599,-4.0744,-4.0096,-4.0096,-4.0096,-4.0096,-4.0096,-4.0096,-4.0096,-4.0096,-4.0096,-4.0096,-4.0096,-4.0096,-4.0096,-4.0096,-4.0096,-4.0096,-4.0096,-4.0096,-4.0096,-4.0096,-3.8396,-3.777,-3.8108,-3.8108,-3.7212,-3.56,-3.56,-3.56,-3.56,-3.56,-3.56,-3.56,-3.56,-3.56,-3.56,-3.56,-3.56,-3.56,-3.56,-3.619,-3.6827,-3.5902,-3.56,-3.56,-3.56,-3.56,-3.56,-3.56,-3.6253,-3.6964,-3.6964,-3.6964,-3.6224,-3.3124,-3.3087,-3.3807,-3.3807,-3.3057,-3.2349,-3.2349,-3.3118,-3.3807,-3.3807,-3.3807,-3.333,-3.1916,-3.1678,-3.1678,-3.1678,-3.0124,-2.9005,-2.9005,-2.9005,-2.9005,-2.9005,-2.9005,-2.9005,-2.9005,-2.9005,-2.9005,-2.9005,-2.9005,-2.9005,-2.9005,-2.9005,-2.9005,-2.9005,-2.9005,-2.9005,-2.9005,-2.9005,-2.9005,-2.9005,-2.9005,-2.9005,-2.9005,-2.9005,-2.9005,-2.9005,-2.9005,-2.9005,-2.9005,-2.9005,-2.9005,-2.9005,-2.9005,-2.9005,-2.9005]},{"header":{"parameterUnit":"m.s-1","parameterCategory":1,"la1":30.6,"la2":28.766,"lo1":-90.7593,"lo2":-88.6598,"dy":0.0162,"dx":0.0183,"nx":116,"ny":114,"refTime":"2024-07-03T18:00:00:Z","depth":0,"parameterNumber":3,"parameterNumberName":"V-component_of_WINDS"},"data":[0.0,0.0,0.0,0.0,0.0,0.0,0.0,0.0,0.0,0.0,0.0,0.0,0.0,0.0,0.0,0.0,0.0,0.0,0.0,0.0,0.0,0.0,0.0,0.0,0.0,0.0,0.0,0.0,0.0,0.0,0.0,0.0,0.0,0.0,0.0,0.0,0.0,0.0,0.0,0.0,0.0,0.0,0.0,0.0,0.0,0.0,0.0,0.0,0.0,0.0,0.0,0.0,0.0,0.0,0.0,0.0,0.0,0.0,0.0,0.0,0.0,0.0,0.0,0.0,0.0,0.0,0.0,0.0,0.0,0.0,0.0,0.0,0.0,0.0,0.0,0.0,0.0,0.0,0.0,0.0,0.0,0.0,0.0,0.0,0.0,0.0,0.0,0.0,0.0,0.0,0.0,0.0,0.0,0.0,0.0,0.0,0.0,0.0,0.0,0.0,0.0,0.0,0.0,0.0,0.0,0.0,0.0,0.0,0.0,0.0,0.0,0.0,0.0,0.0,0.0,0.0,0.0,0.0,0.0,0.0,0.0,0.0,0.0,0.0,0.0,0.0,0.0,0.0,0.0,0.0,0.0,0.0,0.0,0.0,0.0,0.0,0.0,0.0,0.0,0.0,0.0,0.0,0.0,0.0,0.0,0.0,0.0,0.0,0.0,0.0,0.0,0.0,0.0,0.0,0.0,0.0,0.0,0.0,0.0,0.0,0.0,0.0,0.0,0.0,0.0,0.0,0.0,0.0,0.0,0.0,0.0,0.0,0.0,0.0,0.0,0.0,0.0,0.0,0.0,0.0,0.0,0.0,0.0,0.0,0.0,0.0,0.0,0.0,0.0,0.0,0.0,0.0,0.0,0.0,0.0,0.0,0.0,0.0,0.0,0.0,0.0,0.0,0.0,0.0,0.0,0.0,0.0,0.0,0.0,0.0,0.0,0.0,0.0,0.0,0.0,0.0,0.0,0.0,0.0,0.0,0.0,0.0,0.0,0.0,0.0,0.0,0.0,0.0,0.0,0.0,0.0,0.0,0.0,0.0,0.0,0.0,0.0,0.0,0.0,0.0,0.0,0.0,0.0,0.0,0.0,0.0,0.0,0.0,0.0,0.0,0.0,0.0,0.0,0.0,0.0,0.0,0.0,0.0,0.0,0.0,0.0,0.0,0.0,0.0,0.0,0.0,0.0,0.0,0.0,0.0,0.0,0.0,0.0,0.0,0.0,0.0,0.0,0.0,0.0,0.0,0.0,0.0,0.0,0.0,0.0,0.0,0.0,0.0,0.0,0.0,0.0,0.0,0.0,0.0,0.0,0.0,0.0,0.0,0.0,0.0,0.0,0.0,0.0,0.0,0.0,0.0,0.0,0.0,0.0,0.0,0.0,0.0,0.0,0.0,0.0,0.0,0.0,0.0,0.0,0.0,0.0,0.0,0.0,0.0,0.0,0.0,0.0,0.0,0.0,0.0,0.0,0.0,0.0,0.0,0.0,0.0,0.0,0.0,0.0,0.0,0.0,0.0,0.0,0.0,0.0,0.0,0.0,0.0,0.0,0.0,0.0,0.0,0.0,0.0,0.0,0.0,0.0,0.0,0.0,0.0,0.0,0.0,0.0,0.0,0.0,0.0,0.0,0.0,0.0,0.0,0.0,0.0,0.0,0.0,0.0,0.0,0.0,0.0,0.0,0.0,0.0,0.0,0.0,0.0,0.0,0.0,0.0,0.0,0.0,0.0,0.0,0.0,0.0,0.0,0.0,0.0,0.0,0.0,0.0,0.0,0.0,0.0,0.0,0.0,0.0,0.0,0.0,0.0,0.0,0.0,0.0,0.0,0.0,0.0,0.0,0.0,0.0,0.0,0.0,0.0,0.0,0.0,0.0,0.0,0.0,0.0,0.0,0.0,0.0,0.0,0.0,0.0,0.0,0.0,0.0,0.0,0.0,0.0,0.0,0.0,0.0,0.0,0.0,0.0,0.0,0.0,0.0,0.0,0.0,0.0,0.0,0.0,0.0,0.0,0.0,0.0,0.0,0.0,0.0,0.0,0.0,0.0,0.0,0.0,0.0,0.0,0.0,0.0,0.0,0.0,0.0,0.0,0.0,0.0,0.0,0.0,0.0,0.0,0.0,0.0,0.0,0.0,0.0,0.0,0.0,0.0,0.0,0.0,0.0,0.0,0.0,0.0,0.0,0.0,0.0,0.0,0.0,0.0,0.0,0.0,0.0,0.0,0.0,0.0,0.0,0.0,0.0,0.0,0.0,0.0,0.0,0.0,0.0,0.0,0.0,0.0,0.0,0.0,0.0,0.0,0.0,0.0,0.0,0.0,0.0,0.0,0.0,0.0,0.0,0.0,0.0,0.0,0.0,0.0,0.0,0.0,0.0,0.0,0.0,0.0,0.0,0.0,0.0,0.0,0.0,0.0,0.0,0.0,0.0,0.0,0.0,0.0,0.0,0.0,0.0,0.0,0.0,0.0,0.0,0.0,0.0,0.0,0.0,0.0,0.0,0.0,0.0,0.0,0.0,0.0,0.0,0.0,0.0,0.0,0.0,0.0,0.0,0.0,0.0,0.0,0.0,0.0,0.0,0.0,0.0,0.0,0.0,0.0,0.0,0.0,0.0,0.0,0.0,0.0,0.0,0.0,0.0,0.0,0.0,0.0,0.0,0.0,0.0,0.0,0.0,0.0,0.0,0.0,0.0,0.0,0.0,0.0,0.0,0.0,0.0,0.0,0.0,0.0,0.0,0.0,0.0,0.0,0.0,0.0,0.0,0.0,0.0,0.0,0.0,0.0,0.0,0.0,0.0,0.0,0.0,0.0,0.0,0.0,0.0,0.0,0.0,0.0,0.0,0.0,0.0,0.0,0.0,0.0,0.0,0.0,0.0,0.0,0.0,0.0,0.0,0.0,0.0,0.0,0.0,0.0,0.0,0.0,0.0,0.0,0.0,0.0,0.0,0.0,0.0,0.0,0.0,0.0,0.0,0.0,0.0,0.0,0.0,0.0,0.0,0.0,0.0,0.0,0.0,0.0,0.0,0.0,0.0,0.0,0.0,0.0,0.0,0.0,0.0,0.0,0.0,0.0,0.0,0.0,0.0,0.0,0.0,0.0,0.0,0.0,0.0,0.0,0.0,0.0,0.0,0.0,0.0,0.0,0.0,0.0,0.0,0.0,0.0,0.0,0.0,0.0,0.0,0.0,0.0,0.0,0.0,0.0,0.0,0.0,0.0,0.0,0.0,0.0,0.0,0.0,0.0,0.0,0.0,0.0,0.0,0.0,0.0,0.0,0.0,0.0,0.0,0.0,0.0,0.0,0.0,0.0,0.0,0.0,0.0,0.0,0.0,0.0,0.0,0.0,0.0,0.0,0.0,0.0,0.0,0.0,0.0,0.0,0.0,0.0,0.0,0.0,0.0,0.0,0.0,0.0,0.0,0.0,0.0,0.0,0.0,0.0,0.0,0.0,0.0,0.0,0.0,0.0,0.0,0.0,0.0,0.0,0.0,0.0,0.0,0.0,0.0,0.0,0.0,0.0,0.0,0.0,0.0,0.0,0.0,0.0,0.0,0.0,0.0,0.0,0.0,0.0,0.0,0.0,0.0,0.0,0.0,0.0,0.0,0.0,0.0,0.0,0.0,0.0,0.0,0.0,0.0,0.0,0.0,0.0,0.0,0.0,0.0,0.0,0.0,0.0,0.0,0.0,0.0,0.0,0.0,0.0,0.0,0.0,0.0,0.0,0.0,0.0,0.0,0.0,0.0,0.0,0.0,0.0,0.0,0.0,0.0,0.0,0.0,0.0,0.0,0.0,0.0,0.0,0.0,0.0,0.0,0.0,0.0,0.0,0.0,0.0,0.0,0.0,0.0,0.0,0.0,0.0,0.0,0.0,0.0,0.0,0.0,0.0,0.0,0.0,0.0,0.0,0.0,0.0,0.0,0.0,0.0,0.0,0.0,0.0,0.0,0.0,0.0,0.0,0.0,0.0,0.0,0.0,0.0,0.0,0.0,0.0,0.0,0.0,0.0,0.0,0.0,0.0,0.0,0.0,0.0,0.0,0.0,0.0,0.0,0.0,0.0,0.0,0.0,0.0,0.0,0.0,0.0,0.0,0.0,0.0,0.0,0.0,0.0,0.0,0.0,0.0,0.0,0.0,0.0,0.0,0.0,0.0,0.0,0.0,0.0,0.0,0.0,0.0,0.0,0.0,0.0,0.0,0.0,0.0,0.0,0.0,0.0,0.0,0.0,0.0,0.0,0.0,0.0,0.0,0.0,0.0,0.0,0.0,0.0,0.0,0.0,0.0,0.0,0.0,0.0,0.0,0.0,0.0,0.0,0.0,0.0,0.0,0.0,0.0,0.0,0.0,0.0,0.0,0.0,0.0,0.0,0.0,0.0,0.0,0.0,0.0,0.0,0.0,0.0,0.0,0.0,0.0,0.0,0.0,0.0,0.0,0.0,0.0,0.0,0.0,0.0,0.0,0.0,0.0,0.0,0.0,0.0,0.0,0.0,0.0,0.0,0.0,0.0,0.0,0.0,0.0,0.0,0.0,0.0,0.0,0.0,0.0,0.0,0.0,0.0,0.0,0.0,0.0,0.0,0.0,0.0,0.0,0.0,0.0,0.0,0.0,0.0,0.0,0.0,0.0,0.0,0.0,0.0,0.0,0.0,0.0,0.0,0.0,0.0,0.0,0.0,0.0,0.0,0.0,0.0,0.0,0.0,0.0,0.0,0.0,0.0,0.0,0.0,0.0,0.0,0.0,0.0,0.0,0.0,0.0,0.0,0.0,0.0,0.0,0.0,0.0,0.0,0.0,0.0,0.0,0.0,0.0,0.0,0.0,0.0,0.0,0.0,0.0,0.0,0.0,0.0,0.0,0.0,0.0,0.0,0.0,0.0,0.0,0.0,0.0,0.0,0.0,0.0,0.0,0.0,0.0,0.0,0.0,0.0,0.0,0.0,0.0,0.0,0.0,0.0,0.0,0.0,0.0,0.0,0.0,0.0,0.0,0.0,0.0,0.0,0.0,0.0,0.0,0.0,0.0,0.0,0.0,0.0,0.0,0.0,0.0,0.0,0.0,0.0,0.0,0.0,0.0,0.0,0.0,0.0,0.0,0.0,0.0,0.0,0.0,0.0,0.0,0.0,0.0,0.0,0.0,0.0,0.0,0.0,0.0,0.0,0.0,0.0,0.0,0.0,0.0,0.0,0.0,0.0,0.0,0.0,0.0,0.0,0.0,0.0,0.0,0.0,0.0,0.0,0.0,0.0,0.0,0.0,0.0,0.0,0.0,0.0,0.0,0.0,0.0,0.0,0.0,0.0,0.0,0.0,0.0,0.0,0.0,0.0,0.0,0.0,0.0,0.0,0.0,0.0,0.0,0.0,0.0,0.0,0.0,0.0,0.0,0.0,0.0,0.0,0.0,0.0,0.0,0.0,0.0,0.0,0.0,0.0,0.0,0.0,0.0,0.0,0.0,0.0,0.0,0.0,0.0,0.0,0.0,0.0,0.0,0.0,0.0,0.0,0.0,0.0,0.0,0.0,0.0,0.0,0.0,0.0,0.0,0.0,0.0,0.0,0.0,0.0,0.0,0.0,0.0,0.0,0.0,0.0,0.0,0.0,0.0,0.0,0.0,0.0,0.0,0.0,0.0,0.0,0.0,0.0,0.0,0.0,0.0,0.0,0.0,0.0,0.0,0.0,0.0,0.0,0.0,0.0,0.0,0.0,0.0,0.0,0.0,0.0,0.0,0.0,0.0,0.0,0.0,0.0,0.0,0.0,0.0,0.0,0.0,0.0,0.0,0.0,0.0,0.0,0.0,0.0,0.0,0.0,0.0,0.0,0.0,0.0,0.0,0.0,0.0,0.0,0.0,0.0,0.0,0.0,0.0,0.0,0.0,0.0,0.0,0.0,0.0,0.0,0.0,0.0,0.0,0.0,0.0,0.0,0.0,0.0,0.0,0.0,0.0,0.0,0.0,0.0,0.0,0.0,0.0,0.0,0.0,0.0,0.0,0.0,0.0,0.0,0.0,0.0,0.0,0.0,0.0,0.0,0.0,0.0,0.0,0.0,0.0,0.0,0.0,0.0,0.0,0.0,0.0,-0.9434,0.0,0.0,0.0,0.0,0.0,0.0,0.0,0.0,0.0,0.0,0.0,0.0,0.0,0.0,0.0,0.0,0.0,0.0,0.0,0.0,0.0,0.0,0.0,0.0,0.954,0.9804,1.0476,1.0802,1.0941,1.0926,0.0,0.0,0.0,0.0,0.0,1.0955,1.1195,1.1242,1.1109,1.0775,1.0719,1.0895,0.9784,0.9127,0.8909,0.0,0.0,0.0,0.0,0.0,0.0,0.0,0.0,0.0,0.0,0.0,0.0,0.0,0.0,0.0,0.0,0.0,0.0,0.0,0.0,0.0,0.0,0.0,0.0,0.0,0.0,0.0,0.0,0.0,0.0,0.0,0.0,0.0,0.0,0.0,0.0,0.0,0.0,0.0,0.0,0.0,0.0,0.0,0.0,0.0,0.0,0.0,0.0,0.0,0.0,0.0,0.0,0.0,0.0,0.0,0.0,0.0,0.0,0.0,0.0,0.0,0.0,0.0,0.0,0.0,0.0,0.0,0.0,0.0,0.0,0.0,-1.0244,0.0,0.0,0.0,0.0,0.0,0.0,0.0,0.0,0.0,0.0,0.0,0.0,0.0,0.0,0.0,0.0,0.0,0.0,0.0,0.0,0.0,0.7943,0.9433,0.9668,1.015,1.1176,1.1091,1.121,1.1786,1.2002,0.0,0.0,0.0,1.2001,1.1348,1.1362,1.1247,1.1038,1.0911,1.0783,1.0625,1.0802,1.0785,1.0661,1.0344,0.0,0.0,0.0,0.0,0.0,0.0,0.0,0.0,0.0,0.0,0.0,0.0,0.0,0.0,0.0,0.0,0.0,0.0,0.0,0.0,0.0,0.0,0.0,0.0,0.0,0.0,0.0,0.0,0.0,0.0,0.0,0.0,0.0,0.0,0.0,0.0,0.0,0.0,0.0,0.0,0.0,0.0,0.0,0.0,0.0,0.0,0.0,0.0,0.0,0.0,0.0,0.0,0.0,0.0,0.0,0.0,0.0,0.0,0.0,0.0,0.0,0.0,0.0,-0.6647,-0.6453,-0.6453,-0.7273,-0.948,-1.2559,-1.1625,-1.1089,-1.0807,0.0,0.0,0.0,0.0,0.0,0.0,0.0,0.0,0.0,0.0,0.0,0.0,0.0,0.0,0.0,0.0,0.0,0.0,0.0,0.0,0.8148,0.9458,0.9957,1.0763,1.2183,1.1449,1.1186,1.1837,1.1067,0.0,0.0,1.1634,1.2028,1.2313,1.2649,1.2798,1.2775,1.2697,1.242,1.1969,1.271,1.2886,1.2476,1.0951,1.0224,1.0107,0.0,0.0,0.0,0.0,0.0,0.0,0.0,0.0,0.0,0.0,0.0,0.0,0.0,0.0,0.0,0.0,0.0,0.0,0.0,0.0,0.0,0.0,0.0,0.0,0.0,0.0,0.0,0.0,0.0,0.0,0.0,0.0,0.0,0.0,0.0,0.0,0.0,0.0,0.0,0.0,0.0,0.0,0.0,0.0,0.0,0.0,0.0,0.0,0.0,0.0,0.0,0.0,0.0,0.0,0.0,0.0,-0.6268,-0.6741,-0.6822,-0.6943,-0.7095,-0.7018,-0.698,-0.7154,-1.1207,-1.3342,-1.3841,-1.3687,0.0,-1.1984,-1.0841,0.0,0.0,0.0,0.0,0.0,0.0,0.0,0.0,0.0,0.0,0.0,0.0,0.0,0.0,0.0,0.0,0.0,0.0,0.0,0.0,0.0,1.0185,1.0765,1.1905,1.157,1.1319,1.1338,1.1175,1.1069,1.101,1.1763,1.2313,1.2554,1.3293,1.3736,1.3894,1.3816,1.3614,1.3285,1.3656,1.3734,1.3555,1.2793,1.2051,1.1348,1.0898,0.0,0.0,0.0,0.0,0.0,0.0,0.0,0.0,0.0,0.0,0.0,0.0,0.0,0.0,0.0,0.0,0.0,0.0,0.0,0.0,0.0,0.0,0.0,0.0,0.0,0.0,0.0,0.0,0.0,0.0,0.0,0.0,0.0,0.0,0.0,0.0,0.0,0.0,0.0,0.0,0.0,0.0,-0.1803,-0.3412,0.0,0.0,0.0,0.0,0.0,0.0,0.0,0.0,0.0,-0.6342,-0.6617,-0.7041,-0.7591,-0.7597,-0.7597,-0.7597,-0.7597,-0.9129,-1.1948,-1.1081,-1.1946,-1.4088,-1.4088,-1.3788,-1.3213,-1.2024,-1.0881,-0.9822,0.0,0.0,0.0,0.0,0.0,-1.0613,0.0,0.0,0.0,0.0,0.0,0.0,0.0,0.0,0.0,0.0,0.0,0.0,1.0303,1.0645,1.1158,1.2083,1.1898,1.1669,0.0,0.0,1.1604,1.138,1.2087,1.2655,1.2984,1.3963,1.4473,1.447,1.4559,1.4425,1.4104,1.4221,1.427,1.428,1.4387,1.3782,1.2628,1.1958,1.0935,0.0,0.0,0.0,0.0,0.0,0.0,0.0,0.0,0.0,0.0,0.0,0.0,0.0,0.0,0.0,0.0,0.0,0.0,0.0,0.0,0.0,0.0,0.0,0.0,0.0,0.0,0.0,0.0,0.0,0.0,0.0,0.0,0.0,0.0,0.0,0.0,0.0,0.0,0.0,0.0,0.0,-0.2394,-0.4199,0.0,0.0,0.0,0.0,0.0,0.0,-0.5818,-0.6244,-0.6756,-0.7307,-0.7324,-0.754,-0.7985,-0.7988,-0.7988,-0.7988,-0.7988,-1.0038,-1.368,-0.9797,-1.0398,-1.4516,-1.4215,-1.4088,-1.4015,-1.3126,-1.2245,-1.1464,-1.1162,-1.1042,-1.1042,-1.1042,-1.1042,-1.1162,0.0,0.0,0.0,0.0,0.0,0.0,0.0,0.0,0.0,0.0,0.0,0.9854,1.0761,0.0,1.2526,1.3593,1.2762,1.2397,0.0,0.0,1.1901,1.2321,1.2447,1.298,1.3999,1.5011,1.5154,1.4408,1.4921,1.481,1.4114,1.4561,1.4746,1.4775,1.5166,1.4835,1.3905,1.2422,1.1299,1.0433,0.0,0.0,0.0,0.0,0.0,0.0,0.0,0.0,0.0,0.0,0.0,0.0,0.0,0.0,0.0,0.0,0.0,0.0,0.0,0.0,0.0,0.0,0.0,0.0,0.0,0.0,0.0,0.0,0.0,0.0,0.0,0.0,0.0,0.0,0.0,0.0,0.0,0.0,0.0,0.0,-0.0163,0.0,0.0,0.0,0.0,-0.6163,-0.6207,-0.6427,-0.6974,-0.7038,-0.7324,-0.7928,-0.7944,-0.7961,-0.7988,-0.7988,-0.7988,-0.7988,-0.7988,-0.8137,-0.8382,-0.8137,-1.0844,-1.5631,-1.4569,-1.4088,-1.4082,-1.4021,-1.3961,-1.3794,-1.2659,-1.2211,-1.2211,-1.2211,-1.2211,-1.2225,0.0,0.0,0.0,0.71,0.7437,0.7695,0.7695,0.7954,0.8301,0.8721,0.9521,1.0381,0.0,1.1865,1.2473,1.316,1.2869,1.2769,1.3074,0.0,1.2369,1.3013,1.3034,1.3835,1.5618,1.558,1.5898,1.666,1.6443,1.6117,1.5652,1.5805,1.5632,1.5195,1.5342,1.5244,1.4894,1.4082,1.288,1.1474,1.1086,0.9783,0.0,0.0,0.0,0.0,0.0,0.0,0.0,0.0,0.0,0.0,0.0,0.0,0.0,0.0,0.0,0.0,0.0,0.0,0.0,0.0,0.0,0.0,0.0,0.0,0.0,0.0,0.0,0.0,0.0,0.0,0.0,0.0,0.0,0.0,0.0,0.0,0.0,0.0,-0.2042,0.0,-0.5808,-0.6281,-0.6597,-0.681,-0.6827,-0.7088,-0.7638,-0.7671,-0.7769,-0.7982,-0.7988,-0.7988,-0.7988,-0.7988,-0.7988,-0.7988,-0.7988,-0.7988,-0.7988,-0.7988,-1.0867,-1.5758,-1.5391,-1.4783,-1.4088,-1.4088,-1.4088,-1.4041,-1.3621,-1.3447,-1.3447,-1.3447,-1.3447,-1.3447,0.6288,0.665,0.0,0.707,0.7437,0.7695,0.7695,0.8096,0.859,0.9123,0.9961,1.082,1.1712,1.2178,1.2653,1.3146,1.3017,1.3117,1.36,0.0,1.316,1.3843,1.4201,1.4955,1.617,1.6514,1.6956,1.7519,1.7311,1.683,1.6122,1.6122,1.5864,1.541,1.541,1.541,1.5391,1.5117,1.4086,1.2582,1.2207,1.0912,0.9188,0.0,0.0,0.0,0.0,0.0,0.0,0.0,0.0,0.0,0.0,0.0,0.0,0.0,0.0,0.0,0.0,0.0,0.0,0.0,0.0,0.0,0.0,0.0,0.0,0.0,0.0,0.0,0.0,0.0,0.0,0.0,0.0,0.0,0.0,0.0,0.0,0.0,-0.3529,-0.6118,-0.6519,-0.6912,-0.7179,-0.7382,-0.7398,-0.757,-0.7968,-0.7988,-0.7988,-0.7988,-0.7988,-0.7988,-0.7988,-0.7988,-0.7988,-0.7988,-0.7988,-0.7988,-0.8038,-0.9846,-1.2517,-1.5784,-1.5784,-1.5391,-1.4643,-1.4249,-1.4088,-1.4088,-1.4088,-1.4088,-1.4088,-1.4088,-1.4088,-1.4088,0.615,0.6394,0.6572,0.7021,0.7437,0.7695,0.7695,0.8115,0.8701,0.9485,1.0371,1.126,1.2106,1.2617,1.3128,1.3732,1.3238,1.3406,1.4583,1.4172,1.4155,1.4768,1.585,1.6188,1.5659,1.7786,1.8207,1.681,1.7343,1.6856,1.5439,1.5439,1.541,1.541,1.541,1.541,1.541,1.541,1.4792,1.3744,1.2434,1.1226,1.0162,0.0,0.0,0.0,0.0,0.0,0.0,0.0,0.0,0.0,0.0,0.0,0.0,0.0,0.0,0.0,0.0,0.0,0.0,0.0,0.0,0.0,0.0,0.0,0.0,0.0,0.0,0.0,0.0,0.0,0.0,0.0,0.0,0.0,0.0,0.0,0.0,0.0,-0.4206,-0.7125,-0.7125,-0.7125,-0.7365,-0.7944,-0.7988,-0.7988,-0.7988,-0.7988,-0.7988,-0.7988,-0.7988,-0.7988,-0.7988,-0.7988,-0.7988,-0.7988,-0.7988,-0.7988,-0.8184,-1.344,-1.5784,-1.5784,-1.5784,-1.5784,-1.5691,-1.4569,-1.4088,-1.4088,-1.4088,-1.4088,-1.4088,-1.4088,-1.4088,-1.4088,0.5572,0.6342,0.6953,0.708,0.7437,0.7695,0.7695,0.8344,0.9023,0.9524,1.0654,1.1623,1.2145,1.2617,1.2978,1.3128,1.3002,1.3224,1.4003,1.3543,1.3661,1.4541,1.4839,1.5452,1.6443,1.6666,1.6966,1.7377,1.7538,1.7107,1.6208,1.6208,1.5921,1.541,1.541,1.541,1.541,1.541,1.5226,1.4888,1.4237,1.2702,1.0714,0.0,0.0,0.0,0.0,0.0,0.0,0.0,0.0,0.0,0.0,0.0,0.0,0.0,0.0,0.0,0.0,0.0,0.0,0.0,0.0,0.0,0.0,0.0,0.0,0.0,0.0,0.0,0.0,0.0,0.0,0.0,0.0,0.0,0.0,0.0,0.0,0.0,-0.4612,-0.7746,-0.7746,-0.7746,-0.7813,-0.7978,-0.7988,-0.7988,-0.7988,-0.7988,-0.7988,-0.7988,-0.7988,-0.7988,-0.7988,-0.7988,-0.7988,-0.7988,-0.7988,-0.7988,-0.8184,-1.344,-1.5784,-1.5784,-1.5784,-1.5784,-1.5691,-1.4569,-1.4088,-1.4088,-1.4088,-1.4088,-1.4088,-1.4088,-1.4088,-1.4088,0.5561,0.6436,0.7158,0.732,0.754,0.7695,0.7695,0.8441,0.9219,0.9824,1.089,1.1819,1.2432,1.2725,1.2992,1.3262,1.3286,1.3539,1.4143,1.4045,1.412,1.4437,1.507,1.5876,1.6867,1.7015,1.7384,1.8058,1.8058,1.7523,1.6492,1.6492,1.6122,1.541,1.541,1.541,1.541,1.541,1.541,1.5391,1.5146,1.3691,1.1589,1.0732,0.9515,0.8318,0.8684,0.8357,0.7746,0.7746,0.0,0.0,0.0,0.0,0.0,0.0,0.0,0.0,0.0,0.0,0.0,0.0,0.0,0.0,0.0,0.0,0.0,0.0,0.0,0.0,0.0,0.0,0.0,0.0,0.0,0.0,0.0,0.0,0.0,0.0,-0.2738,-0.4672,-0.4672,-0.6681,-0.7988,-0.7988,-0.7988,-0.7988,-0.7988,-0.7988,-0.7988,-0.7988,-0.7988,-0.7988,-0.7988,-0.7988,-0.7988,-0.7988,-0.7988,-0.7988,-0.8088,-1.1156,-1.2517,0.0,-1.2517,-1.3782,-1.5724,-1.5097,-1.4529,0.0,0.0,0.0,0.0,0.0,-1.4088,-1.4088,0.5882,0.6598,0.723,0.7637,0.7695,0.7695,0.7695,0.8441,0.9297,1.0098,1.1038,1.1878,1.267,1.2885,1.318,1.3588,1.3784,1.4118,1.4638,1.4942,1.4912,1.4472,1.5803,1.6636,1.6809,1.7894,1.8447,1.8447,1.8447,1.7797,1.6492,1.6397,1.6036,1.541,1.541,1.541,1.541,1.541,1.541,1.5381,1.5294,1.4183,1.2472,1.1347,1.007,0.8898,0.8831,0.8804,0.8804,0.8804,0.0,0.0,0.0,0.0,0.0,0.0,0.0,0.0,0.0,0.0,0.0,0.0,0.0,0.0,0.0,0.0,0.0,0.0,0.0,0.0,0.0,0.0,0.0,0.0,0.0,0.0,0.0,0.0,0.0,0.0,0.0,0.0,0.0,-0.4872,-0.7988,-0.7988,-0.7988,-0.7988,-0.7988,0.0,0.0,0.0,0.0,-0.7988,-0.7988,-0.7988,-0.7988,-0.7988,-0.7988,-0.7988,-0.7988,-0.7988,-0.7988,-0.7988,-0.7988,-1.0623,-1.4949,-1.554,-1.5137,-1.4088,-1.4088,-1.4088,-1.4088,-1.4088,-1.4088,0.0,0.5909,0.6625,0.7236,0.7632,0.7695,0.7695,0.7695,0.8441,0.9172,0.9669,1.0831,1.1665,1.1841,1.2911,1.3314,1.2573,1.3754,1.4517,0.0,0.0,1.411,1.4711,1.5009,1.5343,1.5694,1.6514,1.6922,1.6922,1.6922,1.6793,1.6492,1.5892,1.5555,1.541,1.541,1.541,1.541,1.541,1.541,1.5352,1.4688,1.3714,1.258,1.2319,1.11,0.9452,0.8978,0.8804,0.8804,0.8804,0.8804,0.8764,0.8537,0.6866,0.0,0.0,0.0,0.0,0.0,0.0,0.0,0.0,0.0,0.0,0.0,0.0,0.0,0.0,0.0,0.0,0.0,0.0,0.0,0.0,0.0,0.0,0.0,0.0,0.0,0.0,0.0,0.0,0.0,-0.4872,-0.7988,-0.7988,-0.7988,-0.7988,-0.7988,-0.7988,0.0,-0.7988,-0.7988,-0.7988,-0.7988,-0.7988,-0.7988,-0.7988,0.0,0.0,-0.7988,-0.7988,-0.7988,-0.7988,-0.7988,-0.8577,-0.9846,-1.4076,-1.5137,-1.4088,-1.4088,-1.4088,-1.4088,-1.4088,-1.4088,-1.4088,0.5812,0.6601,0.7163,0.7373,0.7569,0.7695,0.7695,0.8441,0.9133,0.9534,1.0566,1.134,1.1577,1.246,1.2836,1.2297,1.3238,0.0,0.0,1.4185,1.4111,1.4784,1.498,1.5367,1.595,1.6322,1.668,1.7062,1.7062,1.6866,1.6492,1.6122,1.5748,1.541,1.541,1.541,1.541,1.541,1.541,1.5323,1.451,1.3651,1.2774,1.2348,1.1345,1.0077,0.9459,0.9058,0.8804,0.8804,0.8804,0.856,0.709,0.5655,0.4491,0.0,0.0,0.0,0.0,0.0,0.0,0.0,0.0,0.0,0.0,0.0,0.0,0.0,0.0,0.2692,0.2715,0.0,0.0,0.0,0.0,0.0,0.0,0.0,0.0,0.0,0.0,0.0,0.0,-0.2415,-0.5122,-0.7789,-0.7988,-0.7988,-0.7988,-0.7988,-0.7988,-0.7988,-0.7988,-0.7988,-0.7988,-0.7988,-0.7988,-0.7988,-0.7988,-0.7988,-0.7988,-0.7988,-0.7988,-0.7988,-0.7988,-0.7988,-0.8382,-1.3632,-1.5137,-1.4088,-1.4088,-1.4088,-1.4088,-1.4088,-1.4088,-1.4088,0.5444,0.6297,0.6916,0.7065,0.7448,0.7747,0.7822,0.8568,0.9231,0.9554,1.0351,1.1006,1.1301,1.2014,1.2605,0.0,0.0,0.0,0.0,1.4687,1.4419,1.5107,1.5311,1.569,1.6255,1.6436,1.6793,1.7385,1.7385,1.709,1.6492,1.634,1.5979,1.541,1.541,1.541,1.541,1.541,1.5323,1.5108,1.4293,1.3485,1.2657,1.1797,1.1064,1.0425,1.003,0.9406,0.8804,0.8804,0.8804,0.8289,0.5414,0.4491,0.4491,0.4491,0.4491,0.0,0.0,0.0,0.0,0.0,0.0,0.0,0.0,0.5515,0.6058,0.5243,0.2373,0.0,0.0,0.0,0.0,0.0,0.0,0.0,0.0,0.0,0.0,0.0,0.0,0.0,0.0,0.0,-0.2215,-0.7587,-0.7988,-0.7988,-0.7988,-0.7988,-0.7988,-0.7988,-0.7988,-0.7988,-0.7988,-0.7988,-0.7988,-0.7988,-0.7988,-0.7988,-0.7988,-0.7988,-0.7988,-0.7988,-0.7988,-0.7988,-0.8333,-1.2565,-1.4207,-1.4088,-1.4088,-1.4088,-1.4088,-1.4088,-1.4088,-1.4088,0.4654,0.5446,0.6259,0.6975,0.7482,0.7912,0.8269,0.9006,0.9544,0.9592,1.0351,1.0781,1.0479,1.2022,1.371,1.5184,0.0,0.0,1.6725,1.5137,1.4765,1.6265,1.5728,1.5439,1.5526,1.6179,1.6539,1.6624,1.6624,1.6567,1.6492,1.5835,1.5468,1.541,1.541,1.541,1.541,1.541,1.4991,1.4273,1.3455,1.2665,1.1804,1.0706,1.0204,1.011,1.0392,0.9775,0.8804,0.8804,0.8804,0.8289,0.5414,0.4491,0.4491,0.4491,0.4491,0.4491,0.4491,0.4883,0.5423,0.5962,0.5794,0.546,0.0,0.5815,0.5246,0.1479,0.031,0.0,0.0,0.0,0.0,0.0,0.0,0.0,0.0,0.0,0.0,0.0,0.0,0.0,0.0,0.0,-0.2215,-0.7587,-0.7988,-0.7988,-0.7988,-0.7988,-0.7988,-0.7988,-0.7988,-0.7988,-0.7988,-0.7988,-0.7988,-0.7988,-0.7988,-0.7988,-0.7988,-0.7988,-0.7988,-0.7988,-0.7988,-0.7988,-0.8038,-0.8627,-1.0949,-1.4088,-1.4088,-1.4088,-1.4088,-1.4088,-1.4088,-1.4088,0.4468,0.504,0.5692,0.649,0.7281,0.7915,0.8228,0.9038,0.9592,0.9592,1.0166,1.0498,1.0322,1.1824,1.3357,1.4671,1.4004,1.4358,1.6339,1.4971,1.4621,1.5795,1.5555,1.541,1.541,1.569,1.5864,1.5864,1.5864,1.5864,1.5835,1.507,1.4962,1.5352,1.4421,1.4273,1.4658,1.4213,1.3825,1.3425,1.2634,1.2104,1.1673,1.0519,1.006,1.0017,1.0064,0.9983,0.0,0.0,0.8804,0.8289,0.5414,0.4491,0.4491,0.4491,0.4491,0.4566,0.4921,0.4945,0.5013,0.562,0.5846,0.5921,0.5921,0.4202,0.2144,0.0357,0.0,0.0,0.0,0.0,0.0,0.0,0.0,0.0,0.0,0.0,0.0,0.0,0.0,0.0,0.0,0.0,-0.2215,-0.7587,-0.7988,-0.7988,-0.7988,-0.7988,-0.7988,-0.7988,-0.7988,-0.7988,-0.7988,-0.7988,-0.7988,-0.7988,-0.7988,-0.7988,-0.7988,-0.7988,-0.7988,-0.7988,-0.7988,-0.7988,-0.7988,-0.7988,-0.8997,-1.0784,-1.3157,-1.4088,-1.4088,-1.4088,-1.4088,-1.4088,0.4361,0.4842,0.5377,0.623,0.7114,0.7835,0.8291,0.9187,0.9786,0.9786,1.0088,1.0351,1.0486,1.1614,1.2831,1.399,1.3837,1.4348,1.5986,1.4733,1.4417,1.55,1.5349,1.5293,1.541,1.541,1.541,1.541,1.541,1.541,1.5381,1.4569,1.451,1.5021,1.3606,1.3312,1.3816,1.3252,1.2879,1.2604,1.2012,1.1627,1.124,1.0342,0.9953,0.9909,0.9762,0.9883,0.0,0.0,0.8262,0.7257,0.5167,0.4491,0.4491,0.4491,0.461,0.4798,0.5071,0.4945,0.4887,0.5491,0.5975,0.634,0.6508,0.3121,0.0,0.0,0.0,0.0,0.0,0.0,0.0,0.0,0.0,0.0,0.0,0.0,0.0,0.0,0.0,0.0,0.0,0.0,-0.2215,-0.7587,-0.7988,-0.7988,-0.7988,-0.7988,-0.7988,-0.7988,-0.7988,-0.7988,-0.7988,-0.7988,-0.7988,-0.7988,-0.7988,-0.7988,-0.7988,-0.7988,-0.7988,-0.7988,-0.7988,-0.7988,-0.7988,-0.7988,-0.7988,-0.8269,-1.1093,-1.2174,-1.2345,-1.3603,-1.4088,-1.4088,0.4175,0.479,0.5413,0.6421,0.7054,0.772,0.8651,0.963,1.0283,1.0283,1.0293,1.0467,1.0924,1.1439,1.2363,1.3971,1.3442,1.3967,1.6243,1.4581,1.4226,1.5815,1.5202,1.5,1.54,1.541,1.541,1.541,1.541,1.541,1.5381,1.4569,1.4204,1.4213,1.3373,1.3009,1.3039,1.3009,1.2543,1.1834,1.1803,1.1133,1.0124,0.9836,0.9722,0.9722,0.9715,0.0,0.0,0.8818,0.6934,0.4625,0.4515,0.4491,0.4491,0.4491,0.4907,0.5242,0.4672,0.4935,0.5515,0.6119,0.6286,0.645,0.694,0.339,0.0,0.0,0.0,0.0,0.0,0.0,0.0,0.0,0.0,0.0,0.0,0.0,0.0,0.0,0.0,0.0,0.0,0.0,-0.2215,-0.7587,-0.7988,-0.7988,-0.7988,-0.7988,-0.7988,-0.7988,-0.7988,-0.7988,-0.7988,-0.7988,-0.7988,-0.7988,-0.7988,-0.7988,-0.7988,-0.7988,-0.7988,-0.7988,-0.7988,-0.7988,-0.7988,-0.7988,-0.7988,-0.7931,-0.751,-0.7316,-0.7878,-1.2431,-1.4088,-1.4088,0.3651,0.4144,0.4719,0.5806,0.6626,0.7378,0.8094,0.9092,0.9902,1.0264,1.0527,0.0,0.0,0.0,0.0,0.0,1.3491,1.3954,1.5009,1.4098,1.3854,1.4657,1.4481,1.4523,1.498,1.5,1.4869,1.4599,1.4599,1.4323,1.3786,1.2992,1.2901,1.3342,1.1996,1.1686,1.2174,1.1632,1.1347,1.1214,1.0843,1.0592,1.0372,0.9755,0.9573,0.9662,0.0,0.0,0.0,0.8804,0.6629,0.3969,0.4365,0.4491,0.4569,0.4972,0.4948,0.475,0.4545,0.5225,0.6044,0.6248,0.63,0.5613,0.2982,0.1166,0.0,0.0,0.0,0.0,0.0,0.0,0.0,0.0,0.0,0.0,0.0,0.0,0.0,0.0,0.0,0.0,0.0,0.0,0.0,-0.2566,-0.5977,-0.7988,-0.7988,-0.7988,-0.7988,-0.7988,-0.7988,-0.7988,-0.7988,-0.7988,-0.7988,-0.7988,-0.7988,-0.7988,-0.7988,-0.7988,-0.7988,-0.7988,-0.7988,-0.7988,-0.7988,-0.7988,-0.7988,-0.7971,-0.7766,-0.7446,-0.7268,-0.8877,-1.1434,-1.4088,0.3283,0.3798,0.4383,0.5389,0.6202,0.0,0.0,0.0,0.0,0.0,0.0,0.0,0.0,0.0,0.0,0.0,0.0,1.3918,1.4164,1.3636,1.3477,1.386,1.389,1.4085,1.4541,1.4321,1.4082,1.3818,1.3558,1.3179,1.265,1.184,1.1751,1.2168,1.0587,1.0166,1.0604,0.9821,0.9587,0.9717,0.9334,0.9398,0.9665,0.9093,0.922,0.0,0.0,0.0,0.7417,0.8454,0.6614,0.3986,0.4368,0.4491,0.4566,0.4955,0.4948,0.4527,0.3245,0.3457,0.4028,0.4028,0.4028,0.334,0.0621,0.0,0.0,0.0,0.0,0.0,0.0,0.0,0.0,0.0,0.0,0.0,0.0,0.0,0.0,0.0,0.0,0.0,0.0,0.0,0.0,0.0,-0.3218,-0.5977,-0.7889,-0.7988,-0.7988,-0.7988,-0.7988,-0.7988,-0.7988,-0.7988,-0.7988,-0.7988,-0.7988,-0.7988,-0.7988,-0.7988,-0.7988,-0.7988,-0.7988,-0.7988,-0.7988,-0.7988,-0.7988,-0.7988,-0.7988,-0.7624,-0.7095,-0.7095,-0.9008,-1.1826,0.3034,0.3734,0.4365,0.0,0.0,0.0,0.0,0.0,0.0,0.0,0.0,0.0,0.0,0.0,0.0,0.0,0.0,0.0,1.3755,1.3214,0.0,1.3457,1.3426,1.3585,1.4012,1.3358,1.3005,1.3004,1.2344,1.2011,1.1955,1.1154,1.0785,1.0764,0.9269,0.861,0.861,0.7868,0.7577,0.7588,0.7502,0.775,0.8134,0.8017,0.0,0.0,0.0,0.0,0.4924,0.7664,0.6767,0.4491,0.4491,0.4491,0.4494,0.4528,0.4965,0.4634,0.1,0.0,0.0,0.0,0.0,0.0,0.0,0.0,0.0,0.0,0.0,0.0,0.0,0.0,0.0,0.0,0.0,0.0,0.0,0.0,0.0,0.0,0.0,0.0,0.0,0.0,0.0,0.0,0.0,-0.2365,-0.7736,-0.7988,-0.7988,-0.7988,-0.7988,-0.7988,-0.7988,-0.7988,-0.7988,-0.7988,-0.7988,-0.7988,-0.7988,-0.7988,-0.7988,-0.7988,-0.7988,-0.7988,-0.7988,-0.7988,-0.7988,-0.7988,-0.7988,-0.7624,-0.7095,-0.7095,-0.7095,-0.7749,0.0,0.0,0.0,0.0,0.0,0.0,0.0,0.0,0.0,0.0,0.0,0.0,0.0,0.0,0.0,0.0,0.0,0.0,1.3128,1.2992,0.0,0.0,0.0,1.2455,1.2888,1.2263,0.0,0.0,0.0,1.0914,1.0301,0.9537,0.9479,0.9962,0.902,0.8909,0.9382,0.8639,0.8449,0.8527,0.0,0.7383,0.7737,0.0,0.0,0.0,0.0,0.5117,0.4598,0.5359,0.5113,0.4491,0.4491,0.4491,0.458,0.503,0.5593,0.5196,0.1102,0.0,0.0,0.0,0.0,0.0,0.0,0.0,0.0,0.0,0.0,0.0,0.0,0.0,0.0,0.0,0.0,0.0,0.0,0.0,0.0,0.0,0.0,0.0,0.0,0.0,0.0,0.0,0.0,-0.2365,-0.7736,-0.7988,-0.7988,-0.7988,-0.7988,-0.7988,-0.7988,-0.7988,-0.7988,-0.7988,-0.7988,-0.7988,-0.7988,-0.7988,-0.7988,-0.7988,-0.7988,-0.7988,-0.7988,-0.7988,-0.7988,-0.7988,-0.7988,-0.7624,-0.7095,-0.7095,-0.7095,-0.7272,0.0,0.0,0.0,0.0,0.0,0.0,0.0,0.0,0.0,0.0,0.0,0.0,0.0,0.0,0.0,0.0,0.0,0.0,0.0,1.2246,0.0,0.0,0.0,1.1471,1.1756,1.1239,1.0801,0.0,0.0,0.0,0.0,0.8411,0.8265,0.8299,0.7575,0.7456,0.7802,0.7087,0.0,0.0,0.0,0.0,0.0,0.0,0.0,0.0,0.0,0.4491,0.4532,0.4798,0.4887,0.4935,0.5201,0.5286,0.5351,0.5692,0.6218,0.5669,0.1195,0.0,0.0,0.0,0.0,0.0,0.0,0.0,0.0,0.0,0.0,0.0,0.0,0.0,0.0,0.0,0.0,0.0,0.0,0.0,0.0,0.0,0.0,0.0,0.0,0.0,0.0,0.0,0.0,-0.131,-0.4321,-0.6731,-0.7988,-0.7988,-0.7988,-0.7988,-0.7988,-0.7988,-0.7988,-0.7988,-0.7988,-0.7988,-0.7988,-0.7988,-0.7988,-0.7988,0.0,-0.7988,-0.7988,-0.7988,-0.7988,-0.7965,-0.7702,-0.7392,-0.7095,-0.7095,-0.7095,-0.7095,0.0,0.0,0.0,0.0,0.0,0.0,0.0,0.0,0.0,0.7811,0.8891,0.9689,1.0156,1.1041,0.0,0.0,0.0,0.0,0.0,0.0,0.0,0.0,0.0,1.061,1.0526,1.0136,0.9751,0.0,0.0,0.0,0.0,0.0,0.0,0.0,0.0,0.0,0.0,0.0,0.0,0.0,0.0,0.0,0.0,0.0,0.0,0.0,0.5386,0.4491,0.4583,0.519,0.5446,0.5607,0.6132,0.6354,0.6416,0.6416,0.6277,0.5265,0.1121,0.0,0.0,0.0,0.0,0.0,0.0,0.0,0.0,0.0,0.0,0.0,0.0,0.0,0.0,0.0,0.0,0.0,0.0,0.0,0.0,0.0,0.0,0.0,0.0,0.0,0.0,0.0,0.0,0.0,0.0,-0.442,-0.7282,-0.7988,-0.7988,-0.7988,-0.7988,-0.7988,-0.7988,-0.7988,-0.7988,-0.7988,-0.7988,-0.7988,-0.7988,-0.7988,0.0,0.0,-0.7988,-0.7988,-0.7988,-0.7931,-0.7331,-0.7095,-0.7095,-0.7095,-0.7095,-0.7095,0.0,0.0,0.0,0.0,0.0,0.0,0.0,0.0,0.0,0.0,0.0,0.0,0.0,0.0,0.0,0.0,0.0,0.0,0.0,0.0,0.0,0.0,0.0,0.9688,0.907,0.8467,0.7839,0.7144,0.0,0.0,0.0,0.0,0.0,0.0,0.0,0.0,0.0,0.0,0.0,0.0,0.0,0.0,0.0,0.0,0.0,0.0,0.468,0.4491,0.4583,0.519,0.573,0.616,0.6265,0.6597,0.6943,0.6943,0.4238,0.1031,0.0225,0.0,0.0,0.0,0.0,0.0,0.0,0.0,0.0,0.0,0.0,0.0,0.0,0.0,0.0,0.0,0.0,0.0,0.0,0.0,0.0,0.0,0.0,0.0,0.0,0.0,0.0,0.0,0.0,0.0,0.0,-0.0857,-0.3419,-0.7839,-0.7988,-0.7988,-0.7988,-0.7988,-0.7988,-0.7988,-0.7988,-0.7988,-0.7988,-0.7988,-0.7988,-0.7988,0.0,0.0,-0.7988,-0.7988,-0.7988,-0.7931,-0.7331,-0.7095,-0.7095,-0.7095,-0.7095,-0.7095,0.0,0.0,0.0,0.0,0.0,0.0,0.0,0.0,0.0,0.0,0.0,0.0,0.0,0.0,0.0,0.0,0.0,0.0,0.0,0.0,0.0,0.0,0.0,0.796,0.7608,0.746,0.7143,0.6588,0.0,0.6588,0.0,0.5678,0.5492,0.55,0.0,0.0,0.0,0.0,0.0,0.0,0.0,0.0,0.0,0.0,0.0,0.0,0.0,0.4491,0.4535,0.4825,0.5327,0.5883,0.6201,0.6494,0.6681,0.6681,0.3497,0.0,0.0,0.0,0.0,0.0,0.0,0.0,0.0,0.0,0.0,0.0,0.0,0.0,0.0,0.0,0.0,0.0,0.0,0.0,0.0,0.0,0.0,0.0,0.0,0.0,0.0,0.0,0.0,0.0,0.0,0.0,0.0,0.0,-0.2466,-0.7836,-0.7988,-0.7988,-0.7988,-0.7988,-0.7988,-0.7988,-0.7988,-0.7988,-0.7988,-0.7988,-0.7988,-0.7988,-0.7988,0.0,-0.7988,-0.7988,-0.7988,-0.7931,-0.7331,-0.7095,-0.7095,-0.7095,-0.7095,-0.7095,0.0,0.0,0.0,0.0,0.0,0.0,0.0,0.0,0.426,0.5022,0.5346,0.595,0.7095,0.7883,0.0,0.0,0.0,0.0,0.0,0.0,0.0,0.0,0.0,0.6529,0.6367,0.0,0.0,0.6154,0.6425,0.0,0.0,0.0,0.0,0.0,0.4322,0.4349,0.0,0.0,0.0,0.0,0.0,0.0,0.0,0.0,0.0,0.0,0.0,0.4491,0.4491,0.4491,0.4808,0.5306,0.5914,0.6194,0.63,0.63,0.3297,0.0,0.0,0.0,0.0,0.0,0.0,0.0,0.0,0.0,0.0,0.0,0.0,0.0,0.0,0.0,0.0,0.0,0.0,0.0,0.0,0.0,0.0,0.0,0.0,0.0,0.0,0.0,0.0,0.0,0.0,0.0,0.0,0.0,-0.1913,-0.6176,-0.7385,-0.7988,-0.7988,-0.7988,-0.7988,-0.7988,-0.7988,-0.7988,-0.7988,-0.7988,-0.7988,-0.7988,-0.7988,0.0,0.0,-0.7988,-0.7914,-0.7752,-0.728,-0.7095,-0.7095,-0.7095,-0.7095,-0.7095,0.0,0.0,0.0,0.0,0.0,0.0,0.0,0.0,0.4146,0.4511,0.5101,0.5542,0.5678,0.6362,0.0,0.0,0.0,0.0,0.0,0.0,0.0,0.0,0.0,0.0,0.0,0.0,0.0,0.468,0.4722,0.0,0.0,0.0,0.0,0.0,0.0,0.3873,0.4436,0.0,0.0,0.0,0.0,0.0,0.0,0.0,0.0,0.0,0.0,0.4491,0.4491,0.4491,0.4528,0.4679,0.5286,0.5856,0.63,0.63,0.3304,0.0,0.0,0.0,0.0,0.0,0.0,0.0,0.0,0.0,0.0,0.0,0.0,0.0,0.0,0.0,0.0,0.0,0.0,0.0,0.0,0.0,0.0,0.0,0.0,0.0,0.0,0.0,0.0,0.0,0.0,0.0,0.0,0.0,-0.0202,-0.0706,-0.5475,-0.7988,-0.7988,-0.7988,-0.7988,-0.7988,-0.7988,-0.7988,-0.7988,-0.7988,-0.7988,-0.7988,0.0,0.0,0.0,-0.7988,-0.7668,-0.7173,-0.7115,-0.7095,-0.7095,-0.7095,-0.7095,-0.7095,0.0,0.0,0.0,0.0,0.0,0.0,0.0,0.0,0.4206,0.4464,0.4732,0.4893,0.4893,0.5167,0.0,0.0,0.0,0.0,0.0,0.0,0.0,0.0,0.0,0.0,0.0,0.0,0.4073,0.3849,0.335,0.0,0.0,0.0,0.0,0.0,0.0,0.3012,0.3602,0.0,0.0,0.0,0.0,0.0,0.0,0.0,0.0,0.0,0.0,0.0,0.4491,0.4491,0.4491,0.4532,0.4774,0.5016,0.5354,0.6085,0.5121,0.3233,0.0702,0.0,0.0,0.0,0.0,0.0,0.0,0.0,0.0,0.0,0.0,0.0,0.0,0.0,0.0,0.0,0.0,0.0,0.0,0.0,0.0,0.0,0.0,0.0,0.0,0.0,0.0,0.0,0.0,0.0,0.0,0.0,0.0,0.0,-0.2064,-0.4722,-0.7988,-0.7988,-0.7988,-0.7988,-0.7988,-0.7988,-0.7988,-0.7988,-0.7988,-0.7988,0.0,0.0,0.0,-0.7988,-0.7638,-0.7095,-0.7095,-0.7095,-0.7095,-0.7095,-0.7095,-0.7095,0.0,0.0,0.0,0.0,0.0,0.0,0.242,0.311,0.3691,0.4103,0.4153,0.4236,0.446,0.4294,0.4536,0.5542,0.0,0.0,0.0,0.0,0.0,0.0,0.0,0.0,0.0,0.0,0.3378,0.2826,0.2272,0.2327,0.0,0.0,0.2505,0.301,0.0,0.0,0.0,0.0,0.0,0.0,0.0,0.0,0.0,0.0,0.0,0.0,0.0,0.0,0.0,0.0,0.0,0.4491,0.4491,0.4491,0.4692,0.573,0.5275,0.377,0.0807,0.0,0.0,0.0,0.0,0.0,0.0,0.0,0.0,0.0,0.0,0.0,0.0,0.0,0.0,0.0,0.0,0.0,0.0,0.0,0.0,0.0,0.0,0.0,0.0,0.0,0.0,0.0,0.0,0.0,0.0,0.0,0.0,0.0,0.0,-0.1813,-0.5575,-0.7182,-0.7988,-0.7988,-0.7988,-0.7988,-0.7988,-0.7988,-0.7988,-0.7988,0.0,0.0,0.0,-0.7988,-0.7638,-0.7095,-0.7095,-0.7095,-0.7095,-0.7095,-0.7095,-0.7095,0.0,0.0,0.0,0.0,0.0,0.0,0.0,0.0,0.2324,0.3204,0.3314,0.3622,0.4405,0.379,0.3317,0.0,0.0,0.0,0.0,0.0,0.0,0.0,0.0,0.0,0.0,0.0,0.3504,0.1519,0.152,0.1757,0.2198,0.2196,0.2217,0.2174,0.0,0.0,0.0,0.0,0.0,0.0,0.0,0.0,0.0,0.0,0.0,0.0,0.0,0.0,0.0,0.0,0.0,0.0,0.0,0.4491,0.461,0.5225,0.2858,0.0039,0.0,0.0,0.0,0.0,0.0,0.0,0.0,0.0,0.0,0.0,0.0,0.0,0.0,0.0,0.0,0.0,0.0,0.0,0.0,0.0,0.0,0.0,0.0,0.0,0.0,0.0,0.0,0.0,0.0,0.0,0.0,0.0,0.0,0.0,0.0,-0.0051,-0.0101,-0.5322,-0.7988,-0.7988,-0.7988,-0.7988,-0.7988,-0.7988,-0.7988,0.0,0.0,0.0,0.0,-0.7988,-0.7638,-0.7095,-0.7095,-0.7095,-0.7095,-0.7095,-0.7095,-0.7095,0.0,0.0,0.0,0.0,0.0,0.0,0.0,0.0,0.2417,0.3193,0.3296,0.3594,0.4405,0.0,0.0,0.0,0.0,0.0,0.0,0.0,0.0,0.0,0.0,0.0,0.0,0.0,0.2452,0.1491,0.0809,0.0822,0.1437,0.0936,0.1063,0.1692,0.0766,0.0476,0.0,0.0,0.0,0.0,0.0,0.0,0.0,0.0,0.0,0.0,0.0,0.0,0.0,0.0,0.0,0.0,0.0,0.0,0.0,0.472,0.4266,0.3152,0.0655,0.0,0.0,0.0,0.0,0.065,0.3126,0.178,0.0,0.0,0.0,0.0,0.0,0.0,0.0,0.0,0.0,0.0,0.0,0.0,0.0,0.0,0.0,0.0,0.0,0.0,0.0,0.0,0.0,0.0,0.0,0.0,0.0,0.0,0.0,0.0,0.0,-0.1662,-0.2516,-0.2565,-0.6226,-0.7988,-0.7988,-0.7988,0.0,0.0,0.0,0.0,0.0,-0.7547,-0.7267,-0.7095,-0.7095,-0.7095,-0.7095,-0.7095,-0.7095,-0.7095,0.0,0.0,0.0,0.0,0.0,0.0,0.0,0.0,0.1646,0.2374,0.2725,0.3078,0.0,0.0,0.0,0.0,0.0,0.0,0.0,0.0,0.0,0.0,0.0,0.0,0.0,0.1536,0.1218,0.0932,0.0314,0.0228,0.0688,0.0222,0.0336,0.0902,0.0284,0.0,0.0,0.0,0.0,0.0,0.0,0.0,0.4491,0.0,0.0,0.0,0.0,0.0,0.0,0.0,0.0,0.0,0.0,0.0,0.0,0.0,0.4757,0.4603,0.259,0.1871,0.171,0.171,0.171,0.2355,0.4818,0.3466,0.1692,0.1704,0.1886,0.1612,0.0236,0.0,0.0,0.0,0.0,0.0,0.0,0.0,0.0,0.0,0.0,0.0,0.0,0.0,0.0,0.0,0.0,0.0,0.0,0.0,0.0,0.0,0.0,0.0,0.0,0.0,0.0,-0.0051,-0.3369,-0.6027,-0.7988,-0.7988,0.0,0.0,0.0,0.0,0.0,-0.7344,-0.7095,-0.7095,-0.7095,-0.7095,-0.7095,-0.7095,-0.7095,-0.7095,0.0,0.0,0.0,0.0,0.0,0.0,0.0,0.0,0.0,0.0,0.0,0.2147,0.0,0.0,0.0,0.0,0.0,0.0,0.0,0.0,0.0,0.0,0.0,0.0,0.0,0.0,0.0,0.0,0.0,0.0,0.0,0.0,0.0,0.0,0.0,0.0,0.0,0.0,0.0,0.0,0.4491,0.4491,0.0,0.0,0.0,0.0,0.0,0.0,0.0,0.0,0.0,0.0,0.0,0.0,0.0,0.0,0.0,0.0,0.0,0.4921,0.4491,0.4491,0.4491,0.4638,0.5201,0.4894,0.0,0.4491,0.4938,0.4315,0.1007,0.0168,0.0,0.0,0.0,0.0,0.0,0.0,0.0,0.0,0.0,0.0,0.0,0.0,0.0,0.0,0.0,0.0,0.0,0.0,0.0,0.0,0.0,0.0,0.0,0.0,0.0,0.0,0.0,-0.2616,-0.7434,-0.7839,0.0,0.0,0.0,0.0,0.0,-0.7324,-0.7095,-0.7095,-0.7095,-0.7095,-0.7095,-0.7095,-0.7095,-0.7095,0.0,0.0,0.0,0.0,0.0,0.0,0.0,0.0,0.0,0.0,0.0,0.0,0.0,0.0,0.0,0.0,0.0,0.0,0.0,0.0,0.0,0.0,0.0,0.0,0.0,0.0,0.0,0.0,0.0,0.0,0.0,0.0,0.0,0.0,0.0,0.0,0.0,0.0,0.0,0.0,0.4491,0.4491,0.0,0.0,0.0,0.0,0.4491,0.4491,0.0,0.0,0.0,0.0,0.0,0.0,0.0,0.0,0.4491,0.4522,0.4665,0.0,0.4491,0.4491,0.4491,0.4528,0.0,0.4593,0.4491,0.4491,0.4604,0.4601,0.4219,0.1879,0.0,0.0,0.0,0.0,0.0,0.0,0.0,0.0,0.0,0.0,0.0,0.0,0.0,0.0,0.0,0.0,0.0,0.0,0.0,0.0,0.0,0.0,0.0,0.0,0.0,0.0,0.0,-0.0656,-0.2014,-0.6126,0.0,0.0,0.0,0.0,-0.7294,-0.7152,-0.7095,-0.7095,-0.7095,-0.7095,-0.7095,-0.7095,-0.7095,-0.7095,0.0,0.0,0.0,0.0,0.0,0.0,0.0,0.0,0.0,0.0,0.0,0.0,0.0,0.0,0.0,0.0,0.0,0.0,0.0,0.0,0.0,0.0,0.0,0.0,0.0,0.0,0.0,0.0,0.0,0.0,0.0,0.0,0.0,0.0,0.0,0.0,0.0,0.0,0.0,0.0,0.4491,0.0,0.0,0.0,0.0,0.0,0.4491,0.4491,0.0,0.4491,0.4491,0.4491,0.0,0.0,0.0,0.0,0.4491,0.4491,0.4491,0.4491,0.4491,0.4491,0.4491,0.4491,0.4491,0.4491,0.4491,0.4491,0.4491,0.4675,0.5283,0.4015,0.2807,0.2536,0.2694,0.2208,0.0289,0.0,0.0,0.0,0.0,0.0,0.0,0.0,0.0,0.0,0.0,0.0,0.0,0.0,0.0,0.0,0.0,0.0,0.0,0.0,0.0,0.0,0.0,0.0,-0.0101,-0.3017,0.0,0.0,0.0,0.0,-0.7095,-0.7095,-0.7095,-0.7095,-0.7095,-0.7095,-0.7095,-0.7095,-0.7095,-0.7095,0.0,0.0,0.0,0.0,0.0,0.0,0.0,0.0,0.0,0.0,0.0,0.0,0.0,0.0,0.0,0.0,0.0,0.0,0.0,0.0,0.0,0.0,0.0,0.0,0.0,0.0,0.0,0.0,0.0,0.0,0.0,0.0,0.0,0.0,0.0,0.0,0.0,0.0,0.0,0.0,0.4491,0.0,0.0,0.0,0.0,0.0,0.0,0.0,0.0,0.4491,0.4491,0.4491,0.4491,0.0,0.0,0.0,0.0,0.0,0.4491,0.4491,0.4535,0.472,0.4767,0.4716,0.4532,0.4491,0.4491,0.4491,0.4491,0.4648,0.5163,0.5287,0.5161,0.4657,0.4987,0.0,0.1625,0.1211,0.121,0.121,0.0505,0.0,0.0,0.0,0.0,0.0,0.0,0.0,0.0,0.0,0.0,0.0,0.0,0.0,0.0,0.0,0.0,0.0,0.0,0.0,0.0,0.0,-0.25,0.0,0.0,0.0,-0.7095,-0.7095,-0.7095,-0.7095,-0.7095,-0.7095,-0.7095,-0.7095,-0.7095,-0.7095,0.0,0.0,0.0,0.0,0.0,0.0,0.0,0.0,0.0,0.0,0.0,0.0,0.0,0.0,0.0,0.0,0.0,0.0,0.0,0.0,0.0,0.0,0.0,0.0,0.0,0.0,0.0,0.0,0.0,0.0,0.0,0.0,0.0,0.0,0.0,0.0,0.0028,0.0,0.0,0.4491,0.4491,0.0,0.0,0.0,0.0,0.0,0.0,0.0,0.0,0.4491,0.4491,0.4491,0.4491,0.0,0.0,0.0,0.0,0.0,0.4491,0.4491,0.4737,0.5767,0.602,0.5754,0.4723,0.4491,0.4491,0.4491,0.4491,0.4518,0.4614,0.2642,0.0954,0.0834,0.0913,0.2306,0.0,0.0,0.6781,0.6781,0.0,0.0,0.0,0.0,0.0,0.0,0.0,0.0,0.0,0.0,0.0,0.0,0.0,0.0,0.0,0.0,0.0,0.0,0.0,0.0,0.0,0.0,-0.0439,0.0,0.0,-0.7095,-0.7095,-0.7095,-0.7095,-0.7095,-0.7095,-0.7095,-0.7095,-0.7095,-0.7095,-0.7095,0.0,0.0,0.0,0.0,0.0,0.0,0.0,0.0,0.0,0.0,0.0,0.0,0.0,0.0,0.0,0.0,0.0,0.0,0.0,0.0,0.0,0.0,0.0,0.0,0.0,0.0,0.0,0.0,0.0,0.0,0.0,0.0,0.0,0.0,0.0,0.0,0.0,0.0,0.0811,0.2202,0.0,0.0,0.0,0.0,0.0,0.0,0.0,0.0,0.0,0.0,0.2065,0.2065,0.2065,0.0,0.0,0.0,0.0,0.0,0.4491,0.473,0.519,0.6078,0.6054,0.5665,0.5105,0.4979,0.4979,0.4979,0.4979,0.4979,0.4979,0.2245,0.0833,0.34,0.1678,0.0872,0.3353,0.367,0.367,0.0,0.0,0.0,0.0,0.0,0.0,0.0,0.0,0.0,0.0,0.0,0.0,0.0,0.0,0.0,0.0,0.0,0.0,0.0,0.0,0.0,0.0,0.0,0.0,-0.0135,0.0,-0.473,-0.7095,-0.7095,-0.7095,-0.7095,-0.7095,-0.7095,-0.7095,-0.7095,-0.7095,-0.7095,0.0,0.0,0.0,0.0,0.0,0.0,0.0,0.0,0.0,0.0,0.0,0.0,0.0,0.0,0.0,0.0,0.0,0.0,0.0,0.0,0.0,0.0,0.0,0.0,0.0,0.0,0.0,0.0,0.0,0.0,0.0,0.0,0.0,0.0,0.0,0.0,0.0,0.0,0.0,0.0196,0.0,0.0,0.0,0.0,0.0,0.0,0.0,0.0,0.0,0.0,0.0,0.0,0.0,0.0,0.0,0.0,0.1647,0.3594,0.4294,0.4829,0.5293,0.576,0.574,0.5607,0.5607,0.5607,0.5607,0.5607,0.5607,0.5607,0.5607,0.2539,0.1202,0.4858,0.2392,0.0,0.0,0.0,0.0,0.0,0.0,0.0,0.0,0.0,0.0,0.0,0.0,0.0,0.0,0.0,0.0,0.0,0.0,0.0,0.0,0.0,0.0,0.0,0.0,0.0,0.0,0.0,0.0,0.0,0.0,-0.2059,-0.5534,-0.665,-0.7095,-0.7095,-0.7095,-0.7095,-0.7095,-0.7095,-0.7095,-0.7095,0.0,0.0,0.0,0.0,0.0,0.0,0.0,0.0,0.0,0.0,0.0,0.0,0.0,0.0,0.0,0.0,0.0,0.0,0.0,0.0,0.0,0.0,0.0,0.0,0.0,0.0,0.0,0.0,0.0,0.0,0.0,0.0,0.0,0.0,0.0,0.0,0.0,0.0,0.0,0.0028,0.0224,0.0,0.0,0.0,0.0,0.0,0.0,0.0,0.0,0.0,0.0,0.0,0.0,0.0,0.0,0.0,0.014,0.0923,0.3735,0.4522,0.4566,0.461,0.5433,0.6235,0.6235,0.6235,0.6235,0.6235,0.6235,0.6235,0.6235,0.2801,0.0134,0.0448,0.024,0.0,0.0,0.0,0.0,0.0,0.0,0.0,0.0,0.0,0.0,0.0,0.0,0.0,0.0,0.0,0.0,0.0,0.0,0.0,0.0,0.0,0.0,0.0,0.0,0.0,0.0,0.0,0.0,0.0,0.0,-0.018,-0.0852,-0.5265,-0.7095,-0.7095,-0.7095,-0.7095,-0.7095,-0.7095,-0.7095,-0.7095,0.0,0.0,0.0,0.0,0.0,0.0,0.0,0.0,0.0,0.0,0.0,0.0,0.0,0.0,0.0,0.0,0.0,0.0,0.0,0.0,0.0,0.0,0.0,0.0,0.0,0.0,0.0,0.0,0.0,0.0,0.0,0.0,0.0,0.0,0.0,0.0,0.0,0.0,0.0,0.0,0.0,0.0,0.0,0.0,0.0,0.0,0.0,0.0,0.0,0.0,0.0,0.0,0.0,0.0,0.0,0.0,0.0,0.0252,0.1397,0.3065,0.4491,0.4491,0.4836,0.5173,0.5173,0.6006,0.6807,0.6807,0.6807,0.6695,0.6368,0.4991,0.3067,0.0445,0.0,0.0,0.0,0.0,0.0,0.0,0.0,0.0,0.0,0.0,0.0,0.0,0.0,0.0,0.0,0.0,0.0,0.0,0.0,0.0,0.0,0.0,0.0,0.0,0.0,0.0,0.0,0.0,0.0,0.0,0.0,0.0,-0.0135,-0.1925,-0.4419,-0.7095,-0.7095,-0.7095,-0.7095,-0.7095,-0.7095,-0.7095,0.0,0.0,0.0,0.0,0.0,0.0,0.0,0.0,0.0,0.0,0.0,0.0,0.0,0.0,0.0,0.0,0.0,0.0,0.0,0.0,0.0,0.0,0.0,0.0,0.0,0.0,0.0,0.0,0.0,0.0,0.0,0.0,0.0,0.0,0.0,0.0,0.0,0.0,0.0,0.0,0.0,0.0,0.0,0.0,0.0,0.0,0.0,0.0,0.0,0.0,0.0,0.0,0.0,0.0,0.0,0.0,0.0,0.0,0.0,0.1507,0.3072,0.3081,0.3936,0.4825,0.5016,0.6125,0.7095,0.7095,0.7095,0.6974,0.6614,0.6426,0.5402,0.0,0.0987,0.0,0.0,0.0,0.0,0.0,0.0,0.0,0.0,0.0,0.0,0.0,0.0,0.0,0.0,0.0,0.0,0.0,0.0,0.0,0.0,0.0,0.0,0.0,0.0,0.0,0.0,0.0,0.0,0.0,0.0,0.0,0.0,0.0,-0.2816,-0.7095,-0.7095,-0.7095,-0.7095,-0.7095,-0.7095,-0.7095,0.0,0.0,0.0,0.0,0.0,0.0,0.0,0.0,0.0,0.0,0.0,0.0,0.0,0.0,0.0,0.0,0.0,0.0,0.0,0.0,0.0,0.0,0.0,0.0,0.0,-0.0028,-0.003,0.0,0.0,0.0,0.0,0.0,0.0,0.0,0.0,0.0,0.0,0.0,0.0,0.0,0.0,0.0,0.0,0.0,0.0,0.0,0.0,0.0,0.0,0.0,0.0,0.0,0.0,0.0,0.0,0.0,0.0,0.0,0.0,0.0,0.0,0.0,0.2682,0.5494,0.6091,0.668,0.7095,0.7095,0.7095,0.7095,0.7088,0.6658,0.0,0.7001,0.3129,0.0,0.0,0.0,0.0,0.0,0.0,0.0,0.0,0.0,0.0,0.0,0.0,0.0,0.0,0.0,0.0,0.0,0.0,0.0,0.0,0.0,0.0,0.0,0.0,0.0,0.0,0.0,0.0,0.0,0.0,0.0,0.0,0.0,-0.2772,-0.7051,-0.7095,-0.7092,-0.7088,-0.7088,-0.7092,-0.7095,0.0,0.0,0.0,0.0,0.0,0.0,0.0,0.0,0.0,0.0,0.0,0.0,0.0,0.0,0.0,0.0,0.0,0.0,0.0,0.0,0.0,0.0,0.0,0.0,0.0,-0.2093,-0.2134,0.0,0.0,0.0,0.0,0.0,0.0,0.0,0.0,0.0,0.0,0.0,0.0,0.0,0.0,0.0,0.0,0.0,0.0,0.0,0.0,0.0,0.0,0.0,0.0,0.0,0.0,0.0,0.0,0.0,0.0,0.0,0.0,0.0,0.0,0.0,0.0792,0.1655,0.1818,0.4603,0.7095,0.7095,0.7095,0.697,0.66,0.6719,0.0,0.7068,0.0,0.0,0.0,0.0,0.0,0.0,0.0,0.0,0.0,0.0,0.0,0.0,0.0,0.0,0.0,0.0,0.0,0.0,0.0,0.0,0.0,0.0,0.0,0.0,0.0,0.0,0.0,0.0,0.0,0.0,0.0,0.0,0.0,0.0,-0.0852,-0.246,-0.58,-0.6888,-0.6522,-0.6522,-0.6783,-0.7095,0.0,0.0,0.0,0.0,0.0,0.0,0.0,0.0,0.0,0.0,0.0,0.0,0.0,0.0,0.0,0.0,0.0,0.0,0.0,0.0,0.0,0.0,0.0,-0.056,-0.1758,-0.3566,-0.3597,-0.1786,-0.1786,-0.1174,0.0,0.0,0.0,0.0,0.0,0.0,0.0,0.0,0.0,0.0,0.0,0.0,0.0,0.0,0.0,0.0,0.0,0.0,0.0,0.0,0.0,0.0,0.0,0.0,0.0,0.0,0.0,0.0,0.0,0.0,0.0,0.0,0.0,0.0,0.0,0.2237,0.4285,0.4285,0.4285,0.4176,0.3841,0.4056,0.0,0.0,0.0,0.0,0.0,0.0,0.0,0.0,0.0,0.0,0.0,0.0,0.0,0.0,0.0,0.0,0.0,0.0,0.0,0.0,0.0,0.0,0.0,0.0,0.0,0.0,0.0,0.0,0.0,0.0,0.0,0.0,0.0,0.0,0.0,0.0,0.0,-0.0299,-0.314,-0.5091,-0.63,-0.63,-0.6485,-0.679,0.0,0.0,0.0,0.0,0.0,0.0,0.0,0.0,0.0,0.0,0.0,0.0,0.0,0.0,0.0,0.0,0.0,0.0,0.0,0.0,0.0,0.0,0.0,0.0,0.0,0.0,0.0,0.0,-0.4491,-0.3093,-0.042,-0.042,-0.0269,0.0,0.0,0.0,0.0,0.0,0.0,0.0,0.0,0.0,0.0,0.0,0.0,0.0,0.0,0.0,0.0,0.0,0.0,0.0,0.0,0.0,0.0,0.0,0.0,0.0,0.0,0.0,0.0,0.0,0.0,0.0,0.0,0.0,0.0,0.0,0.0,0.0,0.0,0.0,0.0,0.0,0.0,0.0,0.0,0.0,0.0,0.0,0.0,0.0,0.0,0.0,0.0,0.0,0.0,0.0,0.0,0.0,0.0,0.0,0.0,0.0,0.0,0.0,0.0,0.0,0.0,0.0,0.0,0.0,0.0,0.0,0.0,0.0,0.0,0.0,0.0,-0.0039,-0.0432,-0.2934,-0.63,-0.63,-0.63,-0.63,0.0,0.0,0.0,0.0,0.0,0.0,0.0,0.0,0.0,0.0,0.0,0.0,0.0,0.0,0.0,0.0,0.0,0.0,0.0,0.0,0.0,0.0,0.0,0.0,0.0,0.0,0.0,0.0,0.0,-0.4181,-0.3539,-0.3539,-0.2266,0.0,0.0,0.0,0.0,0.0,0.0,0.0,0.0,0.0,0.0,0.0,0.0,0.0,0.0,0.0,0.0,0.0,0.0,0.0,0.0,0.0,0.0,0.0,0.0,0.0,0.0,0.0,0.0,0.0,0.0,0.0,0.0,0.0,0.0,0.0,0.0,0.0,0.0,0.0,0.0,0.0,0.0,0.0,0.0,0.0,0.0,0.0,0.0,0.0,0.0,0.0,0.0,0.0,0.0,0.0,0.0,0.0,0.0,0.0,0.0,0.0,0.0,0.0,0.0,0.0,0.0,0.0,0.0,0.0,0.0,0.0,0.0,0.0,0.0,0.0,0.0,-0.0314,-0.3636,-0.5512,-0.63,-0.63,-0.63,-0.63,0.0,0.0,0.0,0.0,0.0,0.0,0.0,0.0,0.0,0.0,0.0,0.0,0.0,0.0,0.0,0.0,0.0,0.0,0.0,0.0,0.0,0.0,0.0,0.0,0.0,0.0,0.0,0.0,-0.4491,-0.4491,-0.4491,-0.4491,-0.2899,0.0,0.0,0.0,0.0,0.0,0.0,0.0,0.0,0.0,0.0,0.0,0.0,0.0,0.0,0.0,0.0,0.0,0.0,0.0,0.0,0.0,0.0,0.0,0.0,0.0,0.0,0.0,0.0,0.0,0.0,0.0,0.0,0.0,0.0,0.0,0.0,0.0,0.0,0.0,0.0,0.0,0.0,0.0,0.0,0.0,0.0,0.0,0.0,0.0,0.0,0.0,0.0,0.0,0.0,0.0,0.0,0.0,0.0,0.0,0.3395,0.3395,0.3395,0.1121,0.0,0.0,0.0,0.0,0.0,0.0,0.0,0.0,0.0,0.0,0.0,0.0,0.0,-0.0432,-0.4652,-0.63,-0.63,-0.63,-0.63,-0.63,0.0,0.0,0.0,0.0,0.0,0.0,0.0,0.0,0.0,0.0,0.0,0.0,0.0,0.0,0.0,0.0,0.0,0.0,0.0,0.0,0.0,0.0,0.0,0.0,0.0,0.0,0.0,0.0,-0.4491,-0.4491,-0.4491,-0.4491,-0.2878,0.0,0.0,0.0,0.0,0.0,0.0,0.0,0.0,0.0,0.0,0.0,0.0,0.0,0.0,0.0,0.0,0.0,0.0,0.0,0.0,0.0,0.0,0.0,0.0,0.0,0.0,0.0,0.0,0.0,0.0,0.0,0.0,0.0,0.0,0.0,0.0,0.0,0.0,0.0,0.0,0.0,0.0,0.0,0.0,0.0,0.0,0.0,0.0,0.0,0.0,0.0,0.0,0.0,0.0,0.0,0.0,0.0,0.2192,0.6959,0.7095,0.7095,0.7095,0.3084,0.1149,0.121,0.0398,0.0,0.0,0.0,0.0,0.0,0.0,0.0,0.0,0.0,0.0,-0.0353,-0.383,-0.5201,-0.5318,-0.6025,-0.63,-0.63,0.0,0.0,0.0,0.0,0.0,0.0,0.0,0.0,0.0,0.0,0.0,0.0,0.0,0.0,0.0,0.0,0.0,0.0,0.0,0.0,0.0,0.0,0.0,0.0,0.0,0.0,0.0,-0.4491,-0.4491,-0.4491,-0.4491,-0.4491,-0.2903,0.0,0.0,0.0,0.0,0.0,0.0,0.0,0.0,0.0,0.0,0.0,0.0,0.0,0.0,0.0,0.0,0.0,0.0,0.0,0.0,0.0,0.0,0.0,0.0,0.0,0.0,0.0,0.0,0.0,0.0,0.0,0.0,0.0,0.0,0.0,0.0,0.0,0.0,0.0,0.0,0.0,0.0,0.0,0.0,0.0,0.0,0.0,0.0,0.0,0.0,0.0,0.0,0.0,0.0,0.0,0.0,0.0,0.2192,0.6959,0.7095,0.7095,0.7095,0.6011,0.5679,0.6107,0.1988,0.0,0.0,0.0,0.0,0.0,0.0,0.0,0.0,0.0,0.0,-0.0039,-0.0628,-0.0823,-0.1293,-0.4965,-0.63,-0.63,0.0,0.0,0.0,0.0,0.0,0.0,0.0,0.0,0.0,0.0,0.0,0.0,0.0,0.0,0.0,0.0,0.0,0.0,0.0,0.0,0.0,0.0,0.0,0.0,0.0,0.0,0.0,-0.3993,-0.4327,-0.4491,-0.4505,-0.5184,-0.3542,0.0,0.0,0.0,0.0,0.0,0.0,0.0,0.0,0.0,0.0,0.0,0.0,0.0,0.0,0.0,0.0,0.0,0.0,0.0,0.0,0.0,0.0,0.0,0.0,0.0,0.0,0.0,0.0,0.0,0.0,0.0,0.0,0.0,0.0,0.0,0.0,0.0,0.0,0.0,0.0,0.0,0.0,0.0,0.0,0.0,0.0,0.0,0.0,0.0,0.0,0.0,0.0,0.0,0.0,0.0,0.0,0.0,0.2039,0.6521,0.6647,0.6647,0.6647,0.6429,0.5226,0.3112,0.0999,0.0,0.0,0.0,0.0,0.0,0.0,0.0,0.0,0.0,0.0,0.0,0.0,0.0,-0.051,-0.473,-0.63,-0.63,0.0,0.0,0.0,0.0,0.0,0.0,0.0,0.0,0.0,0.0,0.0,0.0,0.0,0.0,0.0,0.0,0.0,0.0,0.0,0.0,0.0,0.0,0.0,0.0,0.0,0.0,-0.3604,-0.3604,-0.4197,-0.4412,-0.429,-0.4577,-0.3028,0.0,0.0,0.0,0.0,0.0,0.0,0.0,0.0,0.0,0.0,0.0,0.0,0.0,0.0,0.0,0.0,0.0,0.0,0.0,0.0,0.0,0.0,0.0,0.0,0.0,0.0,0.0,0.0,0.0,0.0,0.0,0.0,0.0,0.0,0.0,0.0,0.0,0.0,0.0,0.0,0.0,0.0,0.0,0.0,0.0,0.0,0.0,0.0,0.0,0.0,0.0,0.0,0.0,0.0,0.0,0.0,0.0,0.1449,0.4611,0.5747,0.63,0.63,0.63,0.473,0.1605,0.051,0.0,0.0,0.0,0.0,0.0,0.0,0.0,0.0,0.0,0.0,0.0,0.0,0.0,-0.0392,-0.3519,-0.5395,-0.63,0.0,0.0,0.0,0.0,0.0,0.0,0.0,0.0,0.0,0.0,0.0,0.0,0.0,0.0,0.0,0.0,0.0,0.0,0.0,0.0,0.0,0.0,0.0,0.0,0.0,-0.3907,-0.3604,-0.3604,-0.4197,-0.4201,-0.3608,-0.1367,-0.0214,0.0,0.0,0.0,0.0,0.0,0.0,0.0,0.0,0.0,0.0,0.0,0.0,0.0,0.0,0.0,0.0,0.0,0.0,0.0,0.0,0.0,0.0,0.0,0.0,0.0,0.0,0.0,0.0,0.0,0.0,0.0,0.0,0.0,0.0,0.0,0.0,0.0,0.0,0.0,0.0,0.0,0.0,0.0,0.0,0.0,0.0,0.0,0.0,0.0,0.0,0.0,0.0,0.0,0.0,0.0,0.0,0.0,0.0118,0.0314,0.4222,0.63,0.63,0.63,0.6183,0.5906,0.1918,0.0,0.0,0.0,0.0,0.0,0.0,0.0,0.0,0.0,0.0,0.0,0.0,0.0,-0.0039,-0.0235,-0.2854,-0.63,0.0,0.0,0.0,0.0,0.0,0.0,0.0,0.0,0.0,0.0,0.0,0.0,0.0,0.0,0.0,0.0,0.0,0.0,0.0,0.0,0.0,0.0,0.0,0.0,0.0,-0.3907,-0.3604,-0.3604,-0.3815,-0.301,-0.1277,-0.0407,0.0,0.0,0.0,0.0,0.0,0.0,0.0,0.0,0.0,0.0,0.0,0.0,0.0,0.0,0.0,0.0,0.0,0.0,0.0,0.0,0.0,0.0,0.0,0.0,0.0,0.0,0.0,0.0,0.0,0.0,0.0,0.0,0.0,0.0,0.0,0.0,0.0,0.0,0.0,0.0,0.0,0.0,0.0,0.0,0.0,0.0,0.0,0.0,0.0,0.0,0.0,0.0,0.0,0.0,0.0,0.0,0.0,0.0,0.0,0.0,0.1449,0.3558,0.6261,0.63,0.4927,0.2231,0.0706,0.0,0.0,0.0,0.0,0.0,0.0,0.0,0.0,0.0,0.0,0.0,0.0,0.0,0.0,0.0,-0.266,-0.63,0.0,0.0,0.0,0.134,0.0,0.1174,0.0168,0.0,0.0,0.0,0.0,0.0,0.0,0.0,0.0,0.0,0.0,0.0,0.0,0.0,0.0,0.0,0.0,0.0,0.0,-0.3591,-0.3802,-0.3604,-0.3604,-0.2785,-0.1203,-0.039,0.0,0.0,0.0,0.0,0.0,0.0,0.0,0.0,0.0,0.0,0.0,0.0,0.0,0.0,0.0,0.0,0.0,0.0,0.0,0.0,0.0,0.0,0.0,0.0,0.0,0.0,0.0,0.0,0.0,0.0,0.0,0.0,0.0,0.0,0.0,0.0,0.0,0.0,0.0,0.0,0.0,0.0,0.0,0.0,0.0,0.0,0.0,0.0,0.0,0.0,0.0,0.0,0.0,0.0,0.0,0.0,0.0,0.0,0.0,0.0,0.0,0.2035,0.6261,0.63,0.4183,0.0,0.0,0.0,0.0,0.0,0.0,0.0,0.0,0.0,0.0,0.0,0.0,0.0,0.0,0.0,0.0,0.0,-0.1761,-0.4377,0.0,0.0084,0.1062,0.3987,0.4491,0.3511,0.0588,0.005,0.0,0.0,0.0,0.0,0.0,0.0,0.0,0.0,0.0,0.0,0.0,0.0,0.0,0.0,0.0,0.0,0.0,-0.2871,-0.4068,-0.349,-0.349,-0.349,-0.3436,-0.1096,0.0,0.0,0.0,0.0,0.0,0.0,0.0,0.0,0.0,0.0,0.0,0.0,0.0,0.0,0.0,0.0,0.0,0.0,0.0,0.0,0.0,0.0,0.0,0.0,0.0,0.0,0.0,0.0,0.0,0.0,0.0,0.0,0.0,0.0,0.0,0.0,0.0,0.0,0.0,0.0,0.0,0.0,0.0,0.0,0.0,0.0,0.0,0.0,0.0,0.0,0.0,0.0,0.0,0.0,0.0,0.0,0.0,0.0,0.0,0.0,0.0,0.1957,0.6064,0.6103,0.4066,0.0,0.0,0.0,0.0,0.0,0.0,0.0,0.0,0.0,0.0,0.0,0.0,0.0,0.0,0.0,0.0,0.0,0.0,-0.0588,0.0,0.1758,0.3511,0.4349,0.4491,0.4211,0.3372,0.1406,0.0,0.0,0.0,0.0,0.0,0.0,0.0,0.0,0.0,0.0,0.0,0.0,0.0,0.0,0.0,0.0,0.0,-0.0811,-0.1175,-0.0986,-0.0986,-0.0986,-0.0987,-0.0305,0.0,0.0,0.0,0.0,0.0,0.0,0.0,0.0,0.0,0.0,0.0,0.0,0.0,0.0,0.0,0.0,0.0,0.0,0.0,0.0,0.0,0.0,0.0,0.0,0.0,0.0,0.0,0.0,0.0,0.0,0.0,0.0,0.0,0.0,0.0,0.0,0.0,0.0,0.0,0.0,0.0,0.0,0.0,0.0,0.0,0.0,0.0,0.0,0.0,0.0,0.0,0.0,0.0,0.0,0.0,0.0,0.0,0.0,0.0,0.0,0.0,0.0549,0.1722,0.1761,0.1176,0.0,0.0,0.0,0.0,0.0,0.0,0.0,0.0,0.0,0.0,0.0,0.0,0.0,0.0,0.0,0.0,0.0,0.0,-0.0157,0.187,0.3289,0.4491,0.4491,0.4491,0.4491,0.4491,0.301,0.1424,0.0,0.0,0.0,0.0,0.0,0.0,0.0,0.0,0.0,0.0,0.0,0.0,0.0,0.0,0.0,0.0,0.0,0.0,0.0,0.0,0.0,0.0,0.0,0.0,0.0,0.0,0.0,0.0,0.0,0.0,0.0,0.0,0.0,0.0,0.0,0.0,0.0,0.0,0.0,0.0,0.0,0.0,0.0,0.0,0.0,0.0,0.0,0.0,0.0,0.0,0.0,0.0,0.0,0.0,0.0,0.0,0.0,0.0,0.0,0.0,0.0,0.0,0.0,0.0,0.0,0.0,0.0,0.0,0.0,0.0,0.0,0.0,0.0,0.0,0.0,0.0,0.0,0.0,0.0,0.0,0.0,0.0,0.0,0.0,0.0,0.0,0.0,0.0,0.0,0.0,0.0,0.0,0.0,0.0,0.0,0.0,0.0,0.0,0.0,0.0,0.0,0.0,0.0,0.0,0.0,0.0,0.0,0.0,0.4491,0.4491,0.4491,0.4491,0.4491,0.4491,0.4491,0.3541,0.0,0.0196,0.0,0.0,0.0,0.0,0.0,0.0,0.0,0.0,0.0,0.0,0.0,0.0,0.0,0.0,0.0,0.0,0.0,0.0,0.0,0.0,0.0,0.0,0.0,0.0,0.0,0.0,0.0,0.0,0.0,0.0,0.0,0.0,0.0,0.0,0.0,0.0,0.0,0.0,0.0,0.0,0.0,0.0,0.0,0.0,0.0,0.0,0.0,0.0,0.0,0.0,0.0,0.0,0.0,0.0,0.0,0.0,0.0,0.0,0.0,0.0,0.0,0.0,0.0,0.0,0.0,0.0,0.0,0.0,0.0,0.0,0.0,0.0,-0.2876,-0.051,-0.0039,0.0,0.0,0.0,0.0,0.0,0.0,0.0,0.0,0.0,0.0,0.0,0.0,0.0,0.0,0.0,0.0,0.0,0.0,0.0,0.0,0.0,0.0,0.0,0.0,0.0,0.0,0.0,0.0,0.0,0.0,0.4491,0.4491,0.4491,0.4491,0.4491,0.4491,0.4491,0.4491,0.4294,0.3707,0.1507,0.0,0.0,0.0,0.0,0.0,0.0,0.0,0.0,0.0,0.0,0.0,0.0,0.0,0.0,0.0,0.0,0.0,0.0,0.0,0.0,0.0,0.0,0.0,0.0,0.0,0.0,0.0,0.0,0.0,0.0,0.0,0.0,0.0,0.0,0.0,0.0,0.0,0.0,0.0,0.0,0.0,0.0,0.0,0.0,0.0,0.0,0.0,0.0,0.0,0.0,0.0,0.0,0.0,0.0,0.0,0.0,0.0,0.0,0.0,0.0,0.0,0.0,0.0,0.0,0.0,0.0,0.0,0.0,0.0,0.0,0.0,0.0,-0.5263,-0.3675,-0.0275,0.0,0.0,0.0,0.0,0.0,0.0,0.0,0.0,0.0,0.0,0.0,0.0,0.0,0.0,0.0,0.0,0.0,0.0,0.0,0.0,0.0,0.0,0.0,0.0,0.0,0.0,0.0,0.0,0.0,0.0,0.4491,0.4491,0.4491,0.4491,0.4491,0.459,0.4894,0.4941,0.4832,0.4528,0.1862,0.0,0.0,0.0,0.0,0.0,0.0,0.0,0.0,0.0,0.0,0.0,0.0,0.0,0.0,0.0,0.0,0.0,0.0,0.0,0.0,0.0,0.0,0.0,0.0,0.0,0.0,0.0,0.0,0.0,0.0,0.0,0.0,0.0,0.0,0.0,0.0,0.0,0.0,0.0,0.0,0.0,0.0,0.0,0.0,0.0,0.0,0.0,0.0,0.0,0.0,0.0,0.0,0.0,0.0,0.0,0.0,0.0,0.0,0.0,0.0,0.0,0.0,0.0,0.0,0.0,0.0,0.0,0.0,0.0,0.0,0.0,0.0,0.0,-0.421,-0.0292,0.0,0.0,0.0,0.0,0.0,0.0,0.0,0.0,0.0,0.0,0.0,0.0,0.0,0.0,0.0,0.0,0.0,0.0,0.0,0.0,0.0,0.0,0.0,0.0,0.0,0.0,0.0,0.0,0.0,0.0,0.4491,0.4491,0.4491,0.4491,0.4586,0.4791,0.5163,0.532,0.5262,0.4887,0.2631,0.0774,0.0067,0.0,0.0,0.0,0.0,0.0,0.0,0.0,0.0,0.0,0.0,0.0,0.0,0.0,0.0,0.0,0.0,0.0,0.0,0.0,0.0,0.0,0.0,0.0,0.0,0.0,0.0,0.0,0.0,0.0,0.0,0.0,0.0,0.0,0.0,0.0,0.0,0.0,0.0,0.0,0.0,0.0,0.0,0.0,0.0,0.0,0.0,0.0,0.0,0.0,0.0,0.0,0.0,0.0,0.0,0.0,0.0,0.0,0.0,0.0,0.0,0.0,0.0,0.0,0.0,0.0,0.0,0.0,0.0,0.0,0.0,0.0,-0.3885,-0.0269,0.0,0.0,0.0,0.0,0.0,0.0,0.0,0.0,0.0,0.0,0.0,0.0,0.0,0.0,0.0,0.0,0.0,0.0,0.0,0.0,0.0,0.0,0.0,0.0,0.0,0.0,0.0,0.0,0.0,0.0,0.4491,0.4491,0.4491,0.4491,0.4935,0.5132,0.4665,0.5047,0.5562,0.6033,0.5332,0.3551,0.0337,0.0,0.0,0.0,0.0,0.0,0.0,0.0,0.0,0.0,0.0,0.0,0.0,0.0,0.0,0.0,0.0,0.0,0.0,0.0,0.0,0.0,0.0,0.0,0.0,0.0,0.0,0.0,0.0,0.0,0.0,0.0,0.0,0.0,0.0,0.0,0.0,0.0,0.0,0.0,0.0,0.0,0.0,0.0,0.0,0.0,0.0,0.0,0.0,0.0,0.0,0.0,0.0,0.0,0.0,0.0,0.0,0.0,0.0,0.0,0.0,0.0,0.0,0.0,0.0,0.0,0.0,0.0,0.0,0.0,0.0,0.0,0.0,-0.0269,0.0,0.0,0.0,0.0,0.0,0.0,0.0,0.0,0.0,0.0,0.0,0.0,0.0,0.0,0.0,0.0,0.0,0.0,0.0,0.0,0.0,0.0,0.0,0.0,0.0,0.0,0.0,0.0,0.0,0.0,0.4491,0.4491,0.4491,0.4491,0.4702,0.4784,0.4528,0.4706,0.5088,0.5696,0.5552,0.4944,0.3798,0.1452,0.084,0.2945,0.3755,0.2933,0.019,0.0,0.0,0.0,0.0,0.0,0.0,0.0,0.0,0.0,0.0,0.0,0.0,0.0,0.0,0.0,0.0,0.0,0.0,0.0,0.0,0.0,0.0,0.0,0.0,0.0,0.0,0.0,0.0,0.0,0.0,0.0,0.0,0.0,0.0,0.0,0.0,0.0,0.0,0.0,0.0,0.0,0.0,0.0,0.0,0.0,0.0,0.0,0.0,0.0,0.0,0.0,0.0,0.0,0.0,0.0,0.0,0.0,0.0,0.0,0.0,0.0,0.0,0.0,0.0,0.0,0.0,0.0,0.0,0.0,0.0,0.0,0.0,0.0,0.0,0.0,0.0,0.0,0.0,0.0,0.0,0.0,0.0,0.0,0.0,0.0,0.0,0.0,0.0,0.0,0.0,0.0,0.0,0.0,0.0,0.0,0.0,0.0,0.4491,0.4491,0.4491,0.4491,0.4491,0.4491,0.4491,0.4631,0.5016,0.5784,0.5743,0.5747,0.602,0.3583,0.2491,0.3791,0.5721,0.5427,0.195,0.0644,0.0,0.0,0.0,0.0,0.0,0.0,0.0,0.0,0.0,0.0,0.0,0.0,0.0,0.0,0.0,0.0,0.0,0.0,0.0,0.0,0.0,0.0,0.0,0.0,0.0,0.0,0.0,0.0,0.0,0.0,0.0,0.0,0.0,0.0,0.0,0.0,0.0,0.0,0.0,0.0,0.0,0.0,0.0,0.0,0.0,0.0,0.0,0.0,0.0,0.0,0.0,0.0,0.0,0.0,0.0,0.0,0.0,0.0,0.0,0.0,0.0,0.0,0.0,0.0,0.0,0.0,0.0,0.0,0.0,0.0,0.0,0.0,0.0,0.0,0.0,0.0,0.0,0.0,0.0,0.0,0.0,0.0,0.0,0.0,0.0,0.0,0.0,0.0,0.0,0.0,0.0,0.0,0.0,0.0,0.0,0.0,0.4491,0.4491,0.4491,0.4491,0.4491,0.4491,0.4491,0.4989,0.5791,0.6886,0.6586,0.6054,0.5484,0.6298,0.5061,0.0579,0.3959,0.6271,0.6118,0.2273,0.0,0.0,0.0,0.0,0.0,0.0,0.0,0.0,0.0,0.0,0.0,0.0,0.0,0.0,0.0,0.0,0.0,0.0,0.0,0.0,0.0,0.0,0.0,0.0,0.0,0.0,0.0,0.0,0.0,0.0,0.0,0.0,0.0,0.0,0.0,0.0,0.0,0.0,0.0,0.0,0.0,0.0,0.0,0.0,0.0,0.0,0.0,0.0,0.0,0.0,0.0,0.0,0.0,0.0,0.0,0.0,0.0,0.0,0.0,0.0,0.0,0.0,0.0,0.0,0.0,0.0,0.0,0.0,0.0,0.0,0.0,0.0,0.0,0.0,0.0,0.0,0.0,0.0,0.0,0.0,0.0,0.0,0.0,0.0,0.0,0.0,0.0,0.0,0.0,0.0,0.0,0.0,0.0,0.0,0.0,0.0,0.4491,0.4491,0.4491,0.4491,0.4491,0.4624,0.5027,0.5603,0.6139,0.6505,0.6422,0.6221,0.6016,0.6664,0.647,0.4821,0.5999,0.6678,0.6327,0.4958,0.2911,0.0113,0.2301,0.2465,0.0056,0.0,0.0,0.0,0.0,0.0,0.0,0.0,0.0,0.0,0.0,0.0,0.0,0.0,0.0,0.0,0.0,0.0,0.0,0.0,0.0,0.0,0.0,0.0,0.0,0.0,0.0,0.0,0.0,0.0,0.0,0.0,0.0,0.0,0.0,0.0,0.0,0.0,0.0,0.0,0.0,0.0,0.0,0.0,0.0,0.0,0.0,0.0,0.0,0.0,0.0,0.0,0.0,0.0,0.0,0.0,0.0,0.0,0.0,0.0,0.0,0.0,0.0,0.0,0.0,0.0,0.0,0.0,0.0,0.0,0.0,0.0,0.0,0.0,0.0,0.0,0.0,0.0,0.0,0.0,0.0,0.0,0.0,0.0,0.0,0.0,0.0,0.0,0.0,0.0,0.0,0.0,0.4491,0.4491,0.4491,0.4491,0.4491,0.4692,0.5303,0.5911,0.63,0.0,0.6484,0.0,0.6573,0.0,0.7095,0.0,0.7095,0.6937,0.66,0.6416,0.4398,0.0182,0.3682,0.3912,0.009,0.0,0.0,0.0,0.0,0.0,0.0,0.0,0.0,0.0,0.0,0.0,0.0,0.0,0.074,0.0,0.0,0.1143,0.0,0.0,0.0,0.0,0.0,0.0,0.0,0.0,0.0,0.0,0.0,0.0,0.0,0.0,0.0,0.0,0.0,0.0,0.0,0.0,0.0,0.0,0.0,0.0,0.0,0.0,0.0,0.0,0.0,0.0,0.0,0.0,0.0,0.0,0.0,0.0,0.0,0.0,0.0,0.0,0.0,0.0,0.0,0.0,0.0,0.0,0.0,0.0,0.0,0.0,0.0,0.0,0.0,0.0,0.0,0.0,0.0,0.0,0.0,0.0,0.0,0.0,0.0,0.0,0.0,0.0,0.0,0.0,0.0,0.0,0.0,0.0,0.0,0.0,0.4494,0.4491,0.4498,0.4528,0.4535,0.474,0.0,0.0,0.631,0.0,0.6793,0.7095,0.7095,0.7095,0.7095,0.7095,0.7095,0.7095,0.7095,0.6559,0.0,0.0,0.4177,0.4417,0.0408,0.0304,0.0285,0.0255,0.0225,0.0224,0.0224,0.0224,0.0224,0.0224,0.0056,0.0,0.0,0.0192,0.2248,0.5395,0.5426,0.3366,0.0269,0.0269,0.0,0.0236,0.0067,0.0,0.0,0.0,0.0135,0.0269,0.0269,0.0269,0.0269,0.0269,0.0269,0.0269,0.0269,0.0269,0.0269,0.0269,0.0,0.0,0.0,0.0,0.0,0.0,0.0,0.0,0.0,0.0,0.0,0.0,0.0,0.0,0.0,0.0,0.0,0.0,0.0,0.0,0.0,0.0,0.0,0.0,0.0,0.0,0.0,0.0,0.0,0.0,0.0,0.0,0.0,0.0,0.0,0.0,0.0,0.0,0.0,0.0,0.0,0.0,0.0,0.0,0.0,0.0,0.0,0.0,0.0,0.0,0.0,0.0,0.0,0.0,0.458,0.4491,0.4631,0.5085,0.5163,0.5368,0.0,0.0,0.0,0.0,0.7004,0.7095,0.7095,0.7095,0.7095,0.7095,0.7095,0.0,0.0,0.0,0.0,0.5278,0.5931,0.58,0.4712,0.47,0.4461,0.4006,0.3569,0.3345,0.3345,0.3345,0.3345,0.3262,0.1006,0.0,0.017,0.2872,0.4556,0.5433,0.5887,0.5256,0.0,0.0,0.402,0.3651,0.0975,0.0,0.0,0.0,0.1779,0.402,0.402,0.402,0.402,0.402,0.402,0.402,0.402,0.402,0.402,0.402,0.198,0.0,0.0,0.0,0.0,0.0,0.0,0.0,0.0,0.0,0.0,0.0,0.0,0.0,0.0,0.0,0.0,0.0,0.0,0.0,0.0,0.0,0.0,0.0,0.0,0.0,0.0,0.0,0.0,0.0,0.0,0.0,0.0,0.0,0.0,0.0,0.0,0.0,0.0,0.0,0.0,0.0,0.0,0.0,0.0,0.0,0.0,0.0,0.0,0.0,0.0,0.0,0.0,0.0,0.49,0.4887,0.5078,0.5685,0.0,0.0,0.589,0.6129,0.0,0.7018,0.7095,0.0,0.7095,0.7095,0.7095,0.7095,0.7095,0.0,0.7095,0.0,0.0,0.7065,0.6576,0.63,0.63,0.63,0.0,0.4999,0.4658,0.4491,0.4491,0.4491,0.4491,0.4436,0.2732,0.1953,0.211,0.4431,0.5395,0.5446,0.6054,0.0,0.0,0.5494,0.5395,0.5126,0.3082,0.2347,0.2347,0.2347,0.3718,0.5395,0.5395,0.5395,0.5395,0.5395,0.5395,0.5395,0.5395,0.5395,0.5395,0.5395,0.3851,0.2347,0.2347,0.2359,0.1914,0.0,0.0,0.0,0.0,0.0,0.0,0.0,0.0,0.0,0.0,0.0,0.0,0.0,0.0,0.0,0.0,0.0,0.0,0.0,0.0,0.0,0.0,0.0,0.0,0.0,0.0,0.0,0.0,0.0,0.0,0.0,0.0,0.0,0.0,0.0,0.0,0.0,0.0,0.0,0.0,0.0,0.0,0.0,0.0,0.0,0.0,0.0,0.0,0.0,0.5395,0.5515,0.5702,0.0,0.0,0.0,0.0,0.6078,0.0,0.6923,0.0,0.7011,0.7088,0.7095,0.7095,0.7095,0.0,0.7095,0.7095,0.7095,0.7095,0.7095,0.6576,0.63,0.63,0.63,0.5743,0.461,0.4528,0.4491,0.4491,0.4491,0.4491,0.4491,0.4491,0.0,0.0,0.5136,0.5395,0.544,0.5969,0.6228,0.6235,0.5624,0.5395,0.5395,0.5395,0.5395,0.5395,0.5395,0.5395,0.5395,0.5395,0.5395,0.5395,0.5395,0.5395,0.5395,0.5395,0.5395,0.5395,0.5395,0.5395,0.5395,0.5395,0.5395,0.4522,0.1344,0.0706,0.0,0.0,0.0,0.0,0.0,0.0,0.0,0.0,0.0,0.0,0.0,0.0,0.0,0.0,0.0,0.0,0.0,0.0,0.0,0.0,0.0,0.0,0.0,0.0,0.0,0.0,0.0,0.0,0.0,0.0,0.0,0.0,0.0,0.0,0.0,0.0,0.0,0.0,0.0,0.0,0.0,0.0,0.0,0.0,0.0,0.0,0.0,0.6023,0.6143,0.633,0.0,0.0,0.6429,0.677,0.6876,0.6848,0.6504,0.6457,0.66,0.7045,0.7095,0.7095,0.7095,0.7095,0.0,0.0,0.0,0.0,0.7095,0.6576,0.63,0.63,0.63,0.5951,0.5238,0.4733,0.4491,0.4491,0.4491,0.4491,0.4491,0.4491,0.0,0.4528,0.5136,0.0,0.5402,0.5511,0.5853,0.6235,0.5624,0.5395,0.5395,0.5395,0.5395,0.5395,0.5395,0.5395,0.5395,0.5395,0.5395,0.5395,0.5395,0.5395,0.5395,0.5395,0.5395,0.5395,0.5395,0.5395,0.5395,0.5395,0.5395,0.5226,0.4589,0.4456,0.3551,0.0539,0.0,0.0,0.0,0.0,0.0,0.0,0.0,0.0,0.0,0.0,0.0,0.0,0.0,0.0,0.0,0.0,0.0,0.0,0.0,0.0,0.0,0.0,0.0,0.0,0.0,0.0,0.0,0.0,0.0,0.0,0.0,0.0,0.0,0.0,0.0,0.0,0.0,0.0,0.0,0.0,0.0,0.0,0.0,0.0,0.0,0.66,0.6511,0.6388,0.6634,0.0,0.0,0.0,0.7095,0.0,0.6753,0.6715,0.6824,0.7065,0.7095,0.7095,0.7095,0.7095,0.7095,0.7095,0.7095,0.7095,0.7095,0.6868,0.6573,0.6306,0.63,0.6003,0.5395,0.4788,0.4491,0.4491,0.4491,0.4491,0.4491,0.4491,0.4491,0.0,0.0,0.0,0.5423,0.5736,0.604,0.6269,0.5975,0.5866,0.5822,0.5508,0.5395,0.5395,0.5395,0.5395,0.5395,0.5395,0.5395,0.5395,0.5395,0.5395,0.5395,0.5395,0.5395,0.5395,0.5395,0.5395,0.5395,0.5395,0.5395,0.5395,0.5395,0.5395,0.4858,0.3115,0.128,0.0,0.0,0.0,0.0,0.0,0.0,0.0,0.0,0.0,0.0,0.0,0.0,0.0,0.0,0.0,0.0,0.0,0.0,0.0,0.0,0.0,0.0,0.0,0.0,0.0,0.0,0.0,0.0811,0.2343,0.2343,0.1475,0.0,0.0,0.0,0.0,0.0,0.0,0.0,0.0,0.0,0.0,0.0,0.0,0.0,0.7004,0.6766,0.0,0.0,0.6405,0.0,0.7024,0.7095,0.7095,0.7095,0.7095,0.7095,0.7095,0.7095,0.7095,0.7095,0.7095,0.7095,0.7095,0.7095,0.7095,0.7095,0.7095,0.6865,0.6313,0.63,0.6064,0.0,0.4849,0.4491,0.4491,0.4491,0.4491,0.4491,0.0,0.0,0.0,0.0,0.547,0.5627,0.6108,0.63,0.63,0.63,0.63,0.6221,0.5614,0.5395,0.5395,0.5395,0.5395,0.5395,0.5395,0.5395,0.5395,0.5395,0.5395,0.5395,0.5395,0.5395,0.5395,0.5395,0.5395,0.5395,0.5395,0.5395,0.5395,0.5395,0.5395,0.5395,0.5395,0.3076,0.0,0.0,0.0,0.0,0.0,0.0,0.0,0.0,0.0,0.0,0.0,0.0,0.0,0.0,0.0,0.0,0.0,0.0,0.0,0.0,0.0,0.0,0.0,0.0,0.0308,0.0,0.095,0.2202,0.4494,0.4624,0.3401,0.1143,0.1163,0.0706,0.0,0.0,0.0,0.0,0.0,0.0,0.0,0.0,0.0,0.0,0.0,0.0,0.0,0.0,0.0,0.0,0.7088,0.7095,0.7095,0.7095,0.7095,0.7095,0.7095,0.7095,0.7095,0.7095,0.7095,0.7095,0.7095,0.7095,0.7095,0.7095,0.7095,0.6865,0.6313,0.63,0.6272,0.0,0.0,0.4491,0.4491,0.4491,0.4491,0.4491,0.0,0.0,0.0,0.5371,0.5713,0.6221,0.6276,0.63,0.63,0.63,0.63,0.6221,0.5614,0.5395,0.5395,0.5395,0.5395,0.5395,0.5395,0.5395,0.5395,0.5395,0.5395,0.5395,0.5395,0.5395,0.5395,0.5395,0.5395,0.5395,0.5395,0.5395,0.5395,0.5395,0.5395,0.5395,0.5395,0.5114,0.3834,0.0,0.0,0.0,0.0,0.0,0.0,0.0,0.0,0.0,0.0,0.0,0.0,0.0,0.0,0.0,0.0,0.0,0.0,0.0,0.0,0.0,0.0,0.0,0.0,0.407,0.407,0.4236,0.4508,0.5061,0.5179,0.4882,0.4902,0.3015,0.0,0.0,0.0,0.0,0.0,0.0,0.0,0.0,0.0,0.0,0.0,0.0,0.0,0.0,0.0,0.0,0.0,0.7095,0.7095,0.7095,0.7095,0.7095,0.7095,0.7095,0.7095,0.7095,0.7095,0.7095,0.7095,0.7095,0.7095,0.7095,0.7095,0.6865,0.6313,0.63,0.63,0.0,0.0,0.0,0.0,0.4491,0.0,0.0,0.0,0.5167,0.5419,0.5784,0.6078,0.63,0.63,0.63,0.63,0.63,0.63,0.6221,0.5614,0.5395,0.5395,0.5395,0.5395,0.5395,0.5395,0.5395,0.5395,0.5395,0.5395,0.5395,0.5395,0.5395,0.5395,0.5395,0.5395,0.5395,0.5395,0.5395,0.5395,0.5395,0.5395,0.5395,0.5395,0.5395,0.4918,0.0,0.0,0.0,0.0,0.0,0.0,0.0,0.0,0.0,0.0,0.0,0.0,0.0,0.0,0.0,0.0,0.0,0.0,0.0,0.0,0.0,0.0,0.1786,0.3317,0.4491,0.4491,0.4491,0.4511,0.5119,0.5395,0.5292,0.3115,0.1344,0.0,0.0,0.0,0.0,0.0,0.0,0.0,0.0,0.0,0.0,0.9651,0.0,1.028,0.0,0.9648,0.9135,0.9135,0.9135,0.9135,0.9135,0.9135,0.8619,0.7272,0.7095,0.7095,0.7095,0.7095,0.7095,0.7095,0.7095,0.7095,0.7095,0.7095,0.0,0.6529,0.6388,0.63,0.63,0.587,0.0,0.0,0.4757,0.0,0.0,0.547,0.5661,0.5689,0.6119,0.63,0.63,0.63,0.63,0.63,0.63,0.63,0.6242,0.5815,0.5661,0.5661,0.5661,0.5542,0.5395,0.5395,0.5395,0.5395,0.5395,0.5395,0.5395,0.5395,0.5395,0.5395,0.5395,0.5395,0.5395,0.5395,0.5395,0.5395,0.5395,0.5395,0.5395,0.5395,0.5248,0.5129,0.5129,0.0,0.0,0.0,0.2676,0.0,0.1312,0.1312,0.1312,0.1312,0.0,0.0,0.0,0.0,0.0,0.0,0.0,0.0,0.0,0.0,0.0,0.0,0.3428,0.4491,0.4491,0.4491,0.4491,0.4505,0.4935,0.5225,0.5249,0.2523,0.1433,0.1577,0.1577,0.0975,0.0,0.0,0.0,0.0135,0.121,0.0908,0.0,1.571,1.5724,1.573,1.573,1.4774,1.3997,1.3997,1.3997,1.3997,1.3997,1.3997,1.226,0.7617,0.7095,0.7095,0.7095,0.7095,0.7095,0.7095,0.7095,0.7095,0.0,0.0,0.7092,0.7085,0.6559,0.63,0.63,0.0,0.0,0.5385,0.5385,0.5702,0.6279,0.6286,0.6289,0.6289,0.6296,0.63,0.63,0.63,0.63,0.63,0.63,0.63,0.6296,0.6289,0.6289,0.6289,0.6289,0.589,0.5395,0.5395,0.5395,0.5395,0.5395,0.5395,0.5395,0.5395,0.5395,0.5395,0.5395,0.5395,0.5395,0.5395,0.5395,0.5395,0.5395,0.5395,0.5395,0.5395,0.4904,0.4501,0.4501,0.0,0.0,0.0,0.0,0.0,0.4432,0.4432,0.4432,0.4432,0.0,0.0,0.0,0.0,0.0,0.0,0.0,0.0,0.4349,0.1563,0.0,0.4405,0.4491,0.4491,0.4491,0.4491,0.4491,0.4491,0.4498,0.4825,0.5361,0.4731,0.4779,0.5329,0.5329,0.3215,0.0,0.0,0.0,0.0438,0.402,0.3084,0.0,1.5784,1.5784,1.5784,1.5784,1.4863,1.4088,1.4088,1.4088,1.4088,1.4088,1.4088,1.3519,1.204,0.9008,0.7095,0.0,0.7095,0.7095,0.0,0.7095,0.7095,0.7095,0.7095,0.7095,0.7095,0.6563,0.63,0.63,0.0,0.0,0.0,0.6013,0.6115,0.63,0.63,0.63,0.63,0.63,0.63,0.63,0.63,0.63,0.63,0.63,0.63,0.63,0.63,0.63,0.63,0.63,0.6173,0.6013,0.6013,0.573,0.5395,0.5395,0.5395,0.5395,0.5395,0.5395,0.5395,0.5395,0.5395,0.5395,0.5395,0.5395,0.5395,0.5395,0.5395,0.5269,0.4853,0.4621,0.4491,0.4491,0.4491,0.0,0.0,0.0,0.4491,0.4491,0.4491,0.368,0.0,0.3289,0.0,0.0,0.0,0.0,0.0,0.0,0.0,0.0,0.3566,0.0,0.4491,0.4491,0.4491,0.4491,0.4491,0.4491,0.4491,0.4491,0.4593,0.4791,0.5013,0.5214,0.5395,0.5395,0.4722,0.3685,0.3685,0.3685,0.3818,0.499,0.4655,0.3685,1.5784,1.5784,1.5784,1.5784,1.5224,1.4596,1.4155,1.4088,1.4088,1.4088,1.4088,1.4088,1.4088,1.1477,0.0,0.9744,0.9744,0.9744,0.9744,0.9744,0.9744,0.9744,0.9744,0.9744,0.9744,0.0,0.0,0.659,0.6409,0.63,0.63,0.63,0.63,0.63,0.63,0.63,0.63,0.63,0.63,0.63,0.63,0.63,0.63,0.63,0.63,0.63,0.63,0.63,0.63,0.63,0.63,0.63,0.63,0.604,0.5736,0.5736,0.5573,0.5395,0.5395,0.5395,0.5395,0.5395,0.5395,0.5395,0.5395,0.5395,0.5395,0.5395,0.5395,0.5279,0.49,0.4832,0.4832,0.4832,0.4832,0.475,0.4522,0.0,0.0,0.0,0.0,0.0,0.0,0.34,0.0,0.0,0.0,0.0,0.0,0.0,0.0,0.4491,0.4491,0.0,0.4491,0.4491,0.4491,0.4491,0.4491,0.4491,0.4498,0.4726,0.4832,0.4849,0.5228,0.5395,0.5395,0.5395,0.5395,0.5395,0.5395,0.5395,0.5395,0.5395,0.5395,0.5395,1.5784,1.5784,0.0,0.0,1.5784,0.0,1.4262,1.4088,1.4088,1.4088,1.4088,1.4088,1.4088,1.4088,1.4088,1.4088,0.0,0.0,0.0,1.4088,1.4088,1.4088,1.4088,0.0,1.4088,1.4088,1.1955,0.7573,0.6987,0.6718,0.6718,0.6718,0.6718,0.6718,0.6718,0.6718,0.6718,0.6718,0.6718,0.6679,0.6412,0.63,0.63,0.63,0.63,0.63,0.63,0.63,0.63,0.63,0.63,0.63,0.63,0.63,0.63,0.63,0.587,0.5395,0.5395,0.5395,0.5395,0.5395,0.5395,0.5395,0.5395,0.5395,0.5395,0.5395,0.5395,0.5395,0.5395,0.5395,0.5395,0.5395,0.5395,0.5184,0.4576,0.0,0.0,0.0,0.0,0.0,0.0,0.4552,0.4552,0.0,0.0,0.0,0.0,0.0,0.4491,0.4491,0.4491,0.4491,0.4491,0.4491,0.4491,0.4491,0.4532,0.4532,0.4511,0.5119,0.5395,0.5395,0.5395,0.5395,0.5395,0.5395,0.5395,0.5395,0.5395,0.5395,0.5395,0.5395,0.5395,0.5395,0.0,0.0,1.5784,1.5784,1.5784,1.5431,1.4262,1.4088,1.4088,1.4088,1.4088,1.4088,1.4088,1.4088,1.4088,1.4088,1.4088,1.4088,1.4088,1.4088,1.4088,1.4088,1.4088,1.4088,1.4088,1.4088,1.3561,1.2431,1.1378,1.087,1.087,1.087,1.087,1.087,1.087,1.087,1.087,1.087,1.087,1.0602,0.7553,0.63,0.63,0.63,0.63,0.63,0.63,0.63,0.63,0.63,0.63,0.63,0.63,0.63,0.63,0.63,0.587,0.5395,0.5395,0.5395,0.5395,0.5395,0.5395,0.5395,0.5395,0.5395,0.5395,0.5395,0.5395,0.5395,0.5395,0.5395,0.5395,0.5395,0.5395,0.5184,0.4576,0.4491,0.0,0.0,0.4491,0.4672,0.5136,0.518,0.518,0.0,0.0,0.0,0.0,0.0,0.4491,0.4491,0.4491,0.4491,0.4491,0.4491,0.4491,0.4494,0.4958,0.4938,0.4511,0.5119,0.5395,0.5395,0.5395,0.5395,0.5395,0.5395,0.5395,0.5395,0.5395,0.5395,0.5395,0.5395,0.5395,0.5395,1.5784,1.5784,1.5784,1.5784,1.5784,1.5431,1.4262,1.4088,1.4088,1.4088,1.4088,1.4088,1.4088,1.4563,1.4669,1.4135,1.4088,1.4088,1.4088,1.4088,1.4088,1.4088,1.4088,1.4088,1.4088,1.4088,1.4088,1.4088,1.3434,1.2839,1.2305,1.2305,1.2305,1.2305,1.2305,1.2305,1.2305,1.2305,1.2305,1.2114,0.9927,0.9059,0.9059,0.9059,0.9059,0.8794,0.6945,0.63,0.63,0.63,0.63,0.63,0.63,0.63,0.63,0.63,0.6067,0.5808,0.5808,0.5607,0.5395,0.5395,0.5395,0.5395,0.5395,0.5395,0.5395,0.5395,0.5395,0.5395,0.5395,0.5395,0.5395,0.5395,0.5163,0.4866,0.4535,0.4491,0.0,0.4491,0.4733,0.5033,0.5361,0.5395,0.5279,0.5003,0.0,0.0,0.4505,0.4491,0.4491,0.4491,0.4491,0.4491,0.4491,0.4491,0.4627,0.4907,0.5238,0.5221,0.4914,0.5245,0.5395,0.5395,0.5395,0.5395,0.5395,0.5395,0.5395,0.5395,0.5395,0.5395,0.5395,0.5395,0.5395,0.5395,1.5784,1.5784,1.5784,1.5784,1.5784,1.5451,1.4502,1.4349,1.4349,1.4349,1.4349,1.4349,1.4349,1.5237,1.5431,1.4436,1.4188,1.4088,1.4088,1.4088,1.4088,1.4088,1.4088,1.4088,1.4088,1.4088,1.4088,1.4088,1.4088,1.3567,1.2572,1.2572,1.2572,1.2572,1.2572,1.2572,1.2572,1.2572,1.2572,1.2559,1.2371,1.2412,1.2572,1.2572,1.2572,1.2086,0.8502,0.7211,0.7096,0.649,0.63,0.63,0.63,0.63,0.6416,0.7019,0.7211,0.7057,0.6451,0.5924,0.5511,0.5419,0.5395,0.5395,0.5395,0.5395,0.5395,0.5395,0.5395,0.5395,0.5395,0.5395,0.5395,0.5395,0.4887,0.4491,0.4491,0.0,0.4491,0.4491,0.5027,0.5395,0.5395,0.5395,0.518,0.4665,0.5105,0.0,0.0,0.4491,0.4532,0.4624,0.4627,0.4627,0.4627,0.4627,0.4887,0.5395,0.5395,0.5395,0.5395,0.5395,0.5395,0.5395,0.5395,0.5395,0.5395,0.5395,0.5395,0.5395,0.5395,0.5395,0.5395,0.5395,0.5395,0.5395,1.5784,1.5784,1.5784,1.5784,1.5784,1.5718,1.5538,1.5558,1.5558,1.5558,1.5558,1.5558,1.5558,1.5671,1.5711,1.5531,1.4656,1.4088,1.4088,1.4088,1.4088,1.4088,1.4088,1.4088,1.4088,1.4088,1.4088,1.4088,1.4088,1.3995,1.3808,1.3808,1.3808,1.3808,1.3808,1.3808,1.3808,1.3808,1.3808,1.3721,1.2712,1.2906,1.3808,1.3808,1.3808,1.3592,1.1967,1.1354,1.087,0.7437,0.63,0.63,0.63,0.63,0.6984,1.0378,1.1354,1.064,0.7211,0.6231,0.6037,0.5521,0.5395,0.5395,0.5395,0.5395,0.5395,0.5395,0.5395,0.5395,0.5395,0.5395,0.5395,0.5395,0.4887,0.4491,0.4491,0.0,0.4491,0.4491,0.5027,0.5395,0.5395,0.5395,0.5354,0.5262,0.5341,0.5129,0.4522,0.4491,0.4723,0.5238,0.5255,0.5255,0.5255,0.5255,0.53,0.5395,0.5395,0.5395,0.5395,0.5395,0.5395,0.5395,0.5395,0.5395,0.5395,0.5395,0.5395,0.5395,0.5395,0.5395,0.5395,0.5395,0.5395,0.5395,1.5784,1.5784,1.5784,1.5784,1.5784,1.5784,1.5784,1.5784,1.5784,1.5784,1.5784,1.5784,1.5784,1.5784,1.5784,1.5784,1.4763,1.4088,1.4088,1.4088,1.4088,1.4088,1.4088,1.4088,1.4088,1.4088,1.4088,1.4088,1.4088,1.4088,1.4088,1.4088,1.4088,1.4088,1.4088,1.4088,1.4088,1.4088,1.4088,1.4041,1.3487,1.3594,1.4088,1.4088,1.4088,1.4015,1.346,1.3267,1.2883,1.0368,0.955,0.955,0.955,0.955,0.989,1.1774,1.2305,1.1885,1.004,0.7965,0.6231,0.5951,0.5638,0.5395,0.5395,0.5395,0.5395,0.5395,0.5395,0.5395,0.5395,0.5395,0.5395,0.5395,0.4887,0.0,0.0,0.4696,0.461,0.4938,0.5225,0.5395,0.5395,0.5395,0.5395,0.5395,0.5395,0.5272,0.4993,0.4979,0.5105,0.5385,0.5078,0.5064,0.5392,0.5395,0.5395,0.5395,0.5395,0.5395,0.5395,0.5395,0.5395,0.5395,0.5395,0.5395,0.5395,0.5395,0.5395,0.5395,0.5395,0.5395,0.5395,0.5395,0.5395,0.5395,1.5784,1.5784,1.5784,1.5784,1.5784,1.5784,1.5784,1.5784,1.5784,1.5784,1.5784,1.5784,1.5784,1.5784,1.5784,1.5784,1.501,1.4496,1.4496,1.4242,1.4088,1.4088,1.4088,1.4088,1.4088,1.4088,1.4088,1.4088,1.4088,1.4088,1.4088,1.4088,1.4088,1.4088,1.4088,1.4088,1.4088,1.4088,1.4088,1.4088,1.4088,1.4088,1.4088,1.4088,1.4088,1.4088,1.4088,1.4088,1.3948,1.3026,1.2532,1.2305,1.2305,1.2305,1.2305,1.2305,1.2305,1.2305,1.2305,1.004,0.7702,0.7702,0.7343,0.6709,0.5656,0.5395,0.5395,0.5395,0.5395,0.5395,0.5395,0.5395,0.5395,0.5395,0.0,0.0,0.0,0.4993,0.4873,0.5341,0.5395,0.5395,0.5395,0.5395,0.5395,0.5395,0.5395,0.5395,0.5395,0.5395,0.5395,0.5395,0.4941,0.4924,0.5388,0.5395,0.5395,0.5395,0.5395,0.5395,0.5395,0.5395,0.5395,0.5395,0.5395,0.5395,0.5395,0.5395,0.5395,0.5395,0.5395,0.5395,0.5491,0.6305,0.6597,0.6597,1.5784,1.5784,1.5784,1.5784,1.5784,1.5784,1.5784,1.5784,1.5784,1.5784,1.5784,1.5784,1.5784,1.5784,1.5784,1.5784,1.5704,1.5651,1.5651,1.4689,1.4088,1.4088,1.4088,1.4088,1.4088,1.4088,1.4088,1.4088,1.4088,1.4088,1.4088,1.4088,1.4088,1.4088,1.4088,1.4088,1.4088,1.4088,1.4088,1.4088,1.4088,1.4088,1.4088,1.4088,1.4088,1.4088,1.4088,1.4088,1.4075,1.3988,1.322,1.2305,1.2305,1.2305,1.2305,1.2305,1.2305,1.2305,1.2305,1.2077,1.1848,1.1848,1.1821,1.0683,0.6386,0.5395,0.5395,0.5395,0.5395,0.5395,0.5395,0.5395,0.5395,0.5395,0.0,0.0,0.5388,0.5354,0.5344,0.5388,0.5395,0.5395,0.5395,0.5395,0.5395,0.5395,0.5395,0.5395,0.5395,0.5395,0.5395,0.5395,0.5351,0.5351,0.5395,0.5395,0.5395,0.5395,0.5395,0.5395,0.5395,0.5395,0.5395,0.5395,0.5395,0.5395,0.5395,0.5395,0.5395,0.5395,0.5395,0.5395,0.5785,0.9032,1.0231,1.0231,1.5784,1.5784,1.5784,1.5784,1.5784,1.5784,1.5784,1.5784,1.5784,1.5784,1.5784,1.5784,1.5784,1.5784,1.5784,1.5784,1.5784,1.5784,1.5784,1.5371,1.4843,1.4122,1.4088,1.4088,1.4088,1.4088,1.4088,1.4088,1.4088,1.4088,1.4088,1.4088,1.4088,1.4088,1.4088,1.4088,1.4088,1.4088,1.4088,1.4088,1.4088,1.4088,1.4088,1.4088,1.4088,1.4088,1.4088,1.4088,1.4088,1.4088,1.3788,1.328,1.2538,1.2305,1.2305,1.2305,1.2305,1.2305,1.2305,1.2305,1.2305,1.2305,1.2305,1.166,0.9189,0.864,0.864,0.864,0.864,0.7962,0.5785,0.7181,0.7929,0.5756,0.0,0.5395,0.5395,0.5395,0.5395,0.5395,0.7312,0.7767,0.5624,0.5395,0.5395,0.5395,0.5395,0.5395,0.5395,0.5395,0.5395,0.5395,0.5395,0.5395,0.5395,0.5395,0.5395,0.5395,0.5395,0.5395,0.5395,0.5395,0.5395,0.5395,0.5395,0.5395,0.5395,0.5395,0.5395,0.5624,0.7767,0.864,0.8769,1.0104,1.0593,1.0593,1.5784,1.5784,1.5784,1.5784,1.5784,1.5784,1.5784,1.5784,1.5784,1.5784,1.5784,1.5784,1.5784,1.5784,1.5784,1.5784,1.5784,1.5784,1.5784,1.5784,1.5471,1.4669,1.4282,1.4088,1.4088,1.4088,1.4088,1.4088,1.4088,1.4088,1.4088,1.4088,1.4088,1.4088,1.4088,1.4088,1.4088,1.4088,1.4088,1.4088,1.4088,1.4088,1.4088,1.4088,1.4088,1.4088,1.4088,1.4088,1.4088,1.4088,1.4088,1.3948,1.312,1.2866,1.2792,1.2412,1.2305,1.2305,1.2305,1.2305,1.2305,1.2305,1.2305,1.1997,1.0861,1.0593,1.0593,1.0593,1.0593,0.9875,0.7474,0.9,0.9811,0.7409,0.7022,0.6662,0.5557,0.5395,0.5818,0.6892,0.916,0.9646,0.7279,0.7022,0.7022,0.7022,0.6013,0.5395,0.5395,0.5395,0.5395,0.5395,0.5395,0.5395,0.5395,0.5395,0.5395,0.5395,0.5395,0.5395,0.5395,0.5395,0.5395,0.5458,0.6568,0.7022,0.7022,0.7022,0.7022,0.7279,0.9678,1.0593,1.0593,1.0593,1.0593,1.0593,1.5784,1.5784,1.5784,1.5784,1.5784,1.5784,1.5784,1.5784,1.5784,1.5784,1.5784,1.5784,1.5784,1.5784,1.5825,1.5872,1.5872,1.5872,1.5872,1.5825,1.5784,1.5784,1.4716,1.4102,1.4102,1.4088,1.4088,1.4088,1.4088,1.4088,1.4088,1.4088,1.4088,1.4088,1.4088,1.4088,1.4088,1.4088,1.4088,1.4088,1.4088,1.4088,1.4088,1.4088,1.4088,1.4088,1.4088,1.4088,1.4088,1.4088,1.4088,1.4088,1.4088,1.4088,1.3854,1.2665,1.2311,1.2305,1.2305,1.2305,1.2305,1.2305,1.2305,1.1997,1.0874,1.0606,1.06,1.0593,1.0593,1.0593,1.0593,1.0593,1.0593,1.0593,1.0593,0.939,0.5918,0.5428,0.6728,1.0199,1.0593,1.0593,1.0593,1.0593,1.0593,1.0593,0.7409,0.5428,0.5395,0.5428,0.5428,0.5395,0.5395,0.5395,0.5395,0.5395,0.5395,0.5395,0.5395,0.5395,0.5395,0.5395,0.5428,0.5624,0.9096,1.0593,1.0593,1.0593,1.0593,1.0593,1.0593,1.0593,1.0593,1.0593,1.0593,1.0593,1.5784,1.5784,1.5784,1.5784,1.5784,1.5784,1.5784,1.5784,1.5784,1.5784,1.5784,1.5784,1.5784,1.5784,1.7156,2.0621,2.0944,2.0944,2.0944,1.7708,1.5784,1.5784,1.5451,1.5311,1.5311,1.4509,1.4088,1.4088,1.4088,1.4088,1.4088,1.4088,1.4088,1.4088,1.4088,1.4088,1.4088,1.4088,1.4088,1.4088,1.4088,1.4088,1.4088,1.4088,1.4088,1.4088,1.4088,1.4088,1.4088,1.4088,1.4088,1.4088,1.4088,1.4088,1.4015,1.3661,1.2959,1.2305,1.2305,1.2305,1.2305,1.2305,1.2305,1.2211,1.1864,1.1784,1.1584,1.076,1.0593,1.0593,1.0593,1.0593,1.0593,1.0593,1.0593,1.0231,0.9192,0.9064,0.9422,1.0491,1.0593,1.0593,1.0593,1.0593,1.0593,1.0593,0.9646,0.7994,0.5524,0.7735,0.7929,0.5495,0.5395,0.5395,0.5395,0.5395,0.5395,0.5395,0.5395,0.5395,0.5395,0.5395,0.6728,0.9096,1.0136,1.0593,1.0593,1.0593,1.0593,1.0593,1.0593,1.0593,1.0593,1.0593,1.0593,1.0593,1.5784,1.5784,1.5784,1.5784,1.5784,1.5784,1.5784,1.5784,1.5784,1.5784,1.5784,1.652,1.848,1.871,1.9898,2.2818,2.3091,2.3091,2.3091,2.035,1.871,1.871,1.871,1.7801,1.5825,1.5137,1.4549,1.4088,1.4088,1.4088,1.4088,1.4088,1.4088,1.4088,1.4088,1.4088,1.4088,1.4088,1.4088,1.4088,1.4088,1.4088,1.4088,1.4088,1.4088,1.4088,1.4088,1.4088,1.4088,1.4088,1.4088,1.4088,1.4088,1.4088,1.4088,1.4088,1.3574,1.2906,1.2432,1.2305,1.2305,1.2305,1.2305,1.2305,1.2305,1.2305,1.1971,1.0834,1.0593,1.0593,1.0593,1.0593,1.0593,1.0593,1.0593,1.0593,1.0593,1.0593,1.0593,1.0593,1.0593,1.0593,1.0593,1.0593,1.0593,1.0593,1.0593,0.9678,0.7572,0.9454,0.9646,0.7507,0.6112,0.6046,0.7442,0.7442,0.6761,0.5395,0.5395,0.6112,0.7442,0.7442,0.8608,1.0593,1.0593,1.0593,1.0593,1.0593,1.0593,1.0593,1.0593,1.0593,1.0593,1.0593,1.0593,1.0593,1.5784,1.5784,1.5784,1.5784,1.5784,1.5784,1.5784,1.5784,1.5784,1.5784,1.6197,1.8164,2.2589,2.3091,2.3091,2.3091,2.3091,2.3091,2.3091,2.3091,2.3091,2.3091,2.3091,2.0989,1.656,1.6473,1.593,1.4902,1.4755,1.4699,1.4699,1.4699,1.4454,1.413,1.4496,1.4454,1.4088,1.4088,1.4088,1.4088,1.4088,1.4088,1.4088,1.4088,1.4088,1.4088,1.4088,1.4088,1.4088,1.4088,1.4088,1.4088,1.4088,1.4088,1.4088,1.4088,1.4088,1.3848,1.2759,1.2385,1.2305,1.2305,1.2305,1.2305,1.2305,1.2305,1.2004,1.0968,1.0667,1.0593,1.0593,1.0593,1.0593,1.0593,1.0593,1.0593,1.0593,1.0593,1.0593,1.0593,1.0593,1.0593,1.0593,1.0593,1.0593,1.0593,1.0593,1.0593,1.0593,1.0593,1.0593,1.0593,0.7507,0.7377,1.0561,1.0593,0.9,0.5851,0.5851,0.754,1.0593,1.0593,1.0593,1.0593,1.0593,1.0593,1.0593,1.0593,1.0593,1.0593,1.0593,1.0593,1.0593,1.0593,1.0593,1.0593,1.5784,1.5784,1.5784,1.5784,1.5784,1.5784,1.5784,1.5784,1.5784,1.5784,1.9123,2.1908,2.3003,2.3091,2.3091,2.3091,2.3091,2.3091,2.3091,2.3091,2.3091,2.3091,2.3091,2.2589,2.1543,2.1543,2.1414,2.1163,1.9847,1.9186,1.9186,1.9186,1.7366,1.425,1.7649,1.7293,1.4088,1.4088,1.4088,1.4088,1.4088,1.4088,1.4088,1.4088,1.4088,1.4088,1.4088,1.4088,1.4088,1.4088,1.4088,1.4088,1.4088,1.4088,1.4088,1.4088,1.4088,1.4028,1.3768,1.3013,1.2305,1.2305,1.2305,1.2305,1.2305,1.2305,1.2231,1.1977,1.1229,1.0593,1.0593,1.0593,1.0593,1.0593,1.0593,1.0593,1.0593,1.0593,1.0593,1.0593,1.0593,1.0593,1.0593,1.0593,1.0593,1.0593,1.0593,1.0593,1.0593,1.0593,1.0593,1.0593,0.9875,0.9843,1.0593,1.0593,1.0231,0.9486,0.9486,0.9875,1.0593,1.0593,1.0593,1.0593,1.0593,1.0593,1.0593,1.0593,1.0593,1.0593,1.0593,1.0593,1.0593,1.0593,1.0593,1.0593,1.5784,1.5784,1.5784,1.5784,1.5784,1.5784,1.5784,1.5784,1.5784,1.5784,1.8025,2.0486,2.2862,2.3091,2.3091,2.3091,2.3091,2.3091,2.3091,2.3091,2.3091,2.3091,2.3091,2.3091,2.3091,2.3091,2.3091,2.3091,2.2236,2.1797,2.1777,2.0987,1.9383,1.7285,1.959,1.9344,1.7204,1.7204,1.7204,1.7204,1.7204,1.7204,1.7204,1.7204,1.5918,1.4088,1.4088,1.4088,1.4088,1.4088,1.4088,1.4088,1.4088,1.4088,1.4088,1.4088,1.4088,1.4088,1.4088,1.3213,1.2305,1.2305,1.2305,1.2305,1.2305,1.2305,1.2305,1.2305,1.1817,1.1424,1.1424,1.0968,1.0593,1.0593,1.0593,1.0593,1.0593,1.0593,1.0593,1.0593,1.0593,1.0593,1.0593,1.0593,1.0593,1.0593,1.0593,1.0593,1.0593,1.0593,1.0593,1.0593,1.0593,1.0593,1.0593,1.0593,1.0593,1.0593,1.0593,1.0593,1.0593,1.0593,1.0593,1.0593,1.0593,1.0593,1.0593,1.0593,1.0593,1.0593,1.0593,1.0593,1.0593,1.0593,1.0593,1.0593,1.5967,1.6473,1.707,1.707,1.6379,1.5784,1.5784,1.6513,1.707,1.707,1.707,1.8572,2.2643,2.3091,2.3091,2.3091,2.3091,2.3091,2.3091,2.3091,2.3091,2.3091,2.3091,2.3091,2.3091,2.3091,2.3091,2.3091,2.3091,2.2945,2.2623,2.123,2.0605,2.0605,2.0605,2.0605,2.0605,2.0605,2.0605,2.0605,2.0605,2.0605,2.0605,2.0605,1.8381,1.5228,1.5228,1.4741,1.4208,1.4943,1.5228,1.5228,1.5228,1.5228,1.5228,1.5228,1.4699,1.4088,1.4088,1.336,1.2559,1.2351,1.2305,1.2305,1.2305,1.2305,1.2305,1.2305,1.2305,1.2305,1.2305,1.1544,1.0827,1.0626,1.0593,1.0593,1.0593,1.0593,1.0593,1.0593,1.0593,1.0593,1.0593,1.0593,1.0593,1.0593,1.0593,1.0593,1.0593,1.0593,1.0593,1.0593,1.0593,1.0593,1.0593,1.0593,1.0593,1.0593,1.0593,1.0593,1.0593,1.0593,1.0593,1.0593,1.0593,1.0593,1.0593,1.0593,1.0593,1.0593,1.0593,1.0593,1.0593,1.0593,1.0593,1.0593,1.6655,1.9206,2.2129,2.2129,1.8618,1.5784,1.5784,1.9397,2.2129,2.2129,2.2129,2.2359,2.3047,2.3091,2.3091,2.3091,2.3091,2.3091,2.3091,2.3091,2.3091,2.3091,2.3091,2.3091,2.3091,2.3091,2.3091,2.3091,2.3091,2.2373,2.0948,2.0713,2.0605,2.0605,2.0605,2.0605,2.0605,2.0605,2.0605,2.0605,2.0605,2.0605,2.0605,2.0605,2.0235,1.9717,1.9717,1.7285,1.4699,1.8461,1.9717,1.9717,1.9717,1.9717,1.9717,1.9717,1.7041,1.4088,1.4088,1.3968,1.3601,1.2559,1.2305,1.2305,1.2305,1.2305,1.2305,1.2305,1.2305,1.2305,1.2305,1.2171,1.1737,1.0754,1.0593,1.0593,1.0593,1.0593,1.0593,1.0593,1.0593,1.0593,1.0593,1.0593,1.0593,1.0593,1.0593,1.0593,1.0593,1.0593,1.0593,1.0593,1.0593,1.0593,1.0593,1.0593,1.0593,1.0593,1.0593,1.0593,1.0593,1.0593,1.0593,1.0593,1.0593,1.0593,1.0593,1.0593,1.0593,1.0593,1.0593,1.0593,1.0593,1.0593,1.0593,1.0593,2.0305,2.1632,2.3091,2.3091,2.1311,1.9898,1.9898,2.1721,2.3091,2.3091,2.3091,2.3091,2.3091,2.3091,2.3091,2.3091,2.3091,2.3091,2.3091,2.3091,2.3091,2.3091,2.3091,2.3091,2.3091,2.3091,2.3091,2.3091,2.2168,2.1807,2.2002,2.2002,2.1484,2.0605,2.0605,2.0605,2.0605,2.0605,2.0605,2.0605,2.0605,2.0605,2.0605,2.0605,2.0605,2.0605,2.0605,1.9344,1.8012,1.9952,2.0605,2.0605,2.0605,2.0605,2.0605,2.0605,1.9225,1.773,1.773,1.773,1.7375,1.5844,1.3875,1.2305,1.2305,1.3947,1.5473,1.5473,1.3803,1.2305,1.2305,1.2305,1.2131,1.1617,1.153,1.153,1.153,1.1002,1.0593,1.0593,1.0593,1.0593,1.0593,1.0593,1.0593,1.0593,1.0593,1.0593,1.0593,1.0593,1.0593,1.0593,1.0593,1.0593,1.0593,1.0593,1.0593,1.0593,1.0593,1.0593,1.0593,1.0593,1.0593,1.0593,1.0593,1.0593,1.0593,1.0593,1.0593,1.0593,1.0593,1.0593,1.0593,1.0593,1.0593,1.0593]}]]